[[{"header":{"parameterUnit":"m.s-1","parameterCategory":1,"la1":30.6,"la2":28.766,"lo1":-90.7593,"lo2":-88.6598,"dx":0.0162,"dy":0.0183,"nx":116,"ny":114,"refTime":"2023-01-07T18:00:00:Z","depth":0,"parameterNumber":2,"parameterNumberName":"U-component_of_WINDS"},"data":[0.0,0.0,0.0,0.0,0.0,0.0,0.0,0.0,0.0,0.0,0.0,0.0,0.0,0.0,0.0,0.0,0.0,0.0,0.0,0.0,0.0,0.0,0.0,0.0,0.0,0.0,0.0,0.0,0.0,0.0,0.0,0.0,0.0,0.0,0.0,0.0,0.0,0.0,0.0,0.0,0.0,0.0,0.0,0.0,0.0,0.0,0.0,0.0,0.0,0.0,0.0,0.0,0.0,0.0,0.0,0.0,0.0,0.0,0.0,0.0,0.0,0.0,0.0,0.0,0.0,0.0,0.0,0.0,0.0,0.0,0.0,0.0,0.0,0.0,0.0,0.0,0.0,0.0,0.0,0.0,0.0,0.0,0.0,0.0,0.0,0.0,0.0,0.0,0.0,0.0,0.0,0.0,0.0,0.0,0.0,0.0,0.0,0.0,0.0,0.0,0.0,0.0,0.0,0.0,0.0,0.0,0.0,0.0,0.0,0.0,0.0,0.0,0.0,0.0,0.0,0.0,0.0,0.0,0.0,0.0,0.0,0.0,0.0,0.0,0.0,0.0,0.0,0.0,0.0,0.0,0.0,0.0,0.0,0.0,0.0,0.0,0.0,0.0,0.0,0.0,0.0,0.0,0.0,0.0,0.0,0.0,0.0,0.0,0.0,0.0,0.0,0.0,0.0,0.0,0.0,0.0,0.0,0.0,0.0,0.0,0.0,0.0,0.0,0.0,0.0,0.0,0.0,0.0,0.0,0.0,0.0,0.0,0.0,0.0,0.0,0.0,0.0,0.0,0.0,0.0,0.0,0.0,0.0,0.0,0.0,0.0,0.0,0.0,0.0,0.0,0.0,0.0,0.0,0.0,0.0,0.0,0.0,0.0,0.0,0.0,0.0,0.0,0.0,0.0,0.0,0.0,0.0,0.0,0.0,0.0,0.0,0.0,0.0,0.0,0.0,0.0,0.0,0.0,0.0,0.0,0.0,0.0,0.0,0.0,0.0,0.0,0.0,0.0,0.0,0.0,0.0,0.0,0.0,0.0,0.0,0.0,0.0,0.0,0.0,0.0,0.0,0.0,0.0,0.0,0.0,0.0,0.0,0.0,0.0,0.0,0.0,0.0,0.0,0.0,0.0,0.0,0.0,0.0,0.0,0.0,0.0,0.0,0.0,0.0,0.0,0.0,0.0,0.0,0.0,0.0,0.0,0.0,0.0,0.0,0.0,0.0,0.0,0.0,0.0,0.0,0.0,0.0,0.0,0.0,0.0,0.0,0.0,0.0,0.0,0.0,0.0,0.0,0.0,0.0,0.0,0.0,0.0,0.0,0.0,0.0,0.0,0.0,0.0,0.0,0.0,0.0,0.0,0.0,0.0,0.0,0.0,0.0,0.0,0.0,0.0,0.0,0.0,0.0,0.0,0.0,0.0,0.0,0.0,0.0,0.0,0.0,0.0,0.0,0.0,0.0,0.0,0.0,0.0,0.0,0.0,0.0,0.0,0.0,0.0,0.0,0.0,0.0,0.0,0.0,0.0,0.0,0.0,0.0,0.0,0.0,0.0,0.0,0.0,0.0,0.0,0.0,0.0,0.0,0.0,0.0,0.0,0.0,0.0,0.0,0.0,0.0,0.0,0.0,0.0,0.0,0.0,0.0,0.0,0.0,0.0,0.0,0.0,0.0,0.0,0.0,0.0,0.0,0.0,0.0,0.0,0.0,0.0,0.0,0.0,0.0,0.0,0.0,0.0,0.0,0.0,0.0,0.0,0.0,0.0,0.0,0.0,0.0,0.0,0.0,0.0,0.0,0.0,0.0,0.0,0.0,0.0,0.0,0.0,0.0,0.0,0.0,0.0,0.0,0.0,0.0,0.0,0.0,0.0,0.0,0.0,0.0,0.0,0.0,0.0,0.0,0.0,0.0,0.0,0.0,0.0,0.0,0.0,0.0,0.0,0.0,0.0,0.0,0.0,0.0,0.0,0.0,0.0,0.0,0.0,0.0,0.0,0.0,0.0,0.0,0.0,0.0,0.0,0.0,0.0,0.0,0.0,0.0,0.0,0.0,0.0,0.0,0.0,0.0,0.0,0.0,0.0,0.0,0.0,0.0,0.0,0.0,0.0,0.0,0.0,0.0,0.0,0.0,0.0,0.0,0.0,0.0,0.0,0.0,0.0,0.0,0.0,0.0,0.0,0.0,0.0,0.0,0.0,0.0,0.0,0.0,0.0,0.0,0.0,0.0,0.0,0.0,0.0,0.0,0.0,0.0,0.0,0.0,0.0,0.0,0.0,0.0,0.0,0.0,0.0,0.0,0.0,0.0,0.0,0.0,0.0,0.0,0.0,0.0,0.0,0.0,0.0,0.0,0.0,0.0,0.0,0.0,0.0,0.0,0.0,0.0,0.0,0.0,0.0,0.0,0.0,0.0,0.0,0.0,0.0,0.0,0.0,0.0,0.0,0.0,0.0,0.0,0.0,0.0,0.0,0.0,0.0,0.0,0.0,0.0,0.0,0.0,0.0,0.0,0.0,0.0,0.0,0.0,0.0,0.0,0.0,0.0,0.0,0.0,0.0,0.0,0.0,0.0,0.0,0.0,0.0,0.0,0.0,0.0,0.0,0.0,0.0,0.0,0.0,0.0,0.0,0.0,0.0,0.0,0.0,0.0,0.0,0.0,0.0,0.0,0.0,0.0,0.0,0.0,0.0,0.0,0.0,0.0,0.0,0.0,0.0,0.0,0.0,0.0,0.0,0.0,0.0,0.0,0.0,0.0,0.0,0.0,0.0,0.0,0.0,0.0,0.0,0.0,0.0,0.0,0.0,0.0,0.0,0.0,0.0,0.0,0.0,0.0,0.0,0.0,0.0,0.0,0.0,0.0,0.0,0.0,0.0,0.0,0.0,0.0,0.0,0.0,0.0,0.0,0.0,0.0,0.0,0.0,0.0,0.0,0.0,0.0,0.0,0.0,0.0,0.0,0.0,0.0,0.0,0.0,0.0,0.0,0.0,0.0,0.0,0.0,0.0,0.0,0.0,0.0,0.0,0.0,0.0,0.0,0.0,0.0,0.0,0.0,0.0,0.0,0.0,0.0,0.0,0.0,0.0,0.0,0.0,0.0,0.0,0.0,0.0,0.0,0.0,0.0,0.0,0.0,0.0,0.0,0.0,0.0,0.0,0.0,0.0,0.0,0.0,0.0,0.0,0.0,0.0,0.0,0.0,0.0,0.0,0.0,0.0,0.0,0.0,0.0,0.0,0.0,0.0,0.0,0.0,0.0,0.0,0.0,0.0,0.0,0.0,0.0,0.0,0.0,0.0,0.0,0.0,0.0,0.0,0.0,0.0,0.0,0.0,0.0,0.0,0.0,0.0,0.0,0.0,0.0,0.0,0.0,0.0,0.0,0.0,0.0,0.0,0.0,0.0,0.0,0.0,0.0,0.0,0.0,0.0,0.0,0.0,0.0,0.0,0.0,0.0,0.0,0.0,0.0,0.0,0.0,0.0,0.0,0.0,0.0,0.0,0.0,0.0,0.0,0.0,0.0,0.0,0.0,0.0,0.0,0.0,0.0,0.0,0.0,0.0,0.0,0.0,0.0,0.0,0.0,0.0,0.0,0.0,0.0,0.0,0.0,0.0,0.0,0.0,0.0,0.0,0.0,0.0,0.0,0.0,0.0,0.0,0.0,0.0,0.0,0.0,0.0,0.0,0.0,0.0,0.0,0.0,0.0,0.0,0.0,0.0,0.0,0.0,0.0,0.0,0.0,0.0,0.0,0.0,0.0,0.0,0.0,0.0,0.0,0.0,0.0,0.0,0.0,0.0,0.0,0.0,0.0,0.0,0.0,0.0,0.0,0.0,0.0,0.0,0.0,0.0,0.0,0.0,0.0,0.0,0.0,0.0,0.0,0.0,0.0,0.0,0.0,0.0,0.0,0.0,0.0,0.0,0.0,0.0,0.0,0.0,0.0,0.0,0.0,0.0,0.0,0.0,0.0,0.0,0.0,0.0,0.0,0.0,0.0,0.0,0.0,0.0,0.0,0.0,0.0,0.0,0.0,0.0,0.0,0.0,0.0,0.0,0.0,0.0,0.0,0.0,0.0,0.0,0.0,0.0,0.0,0.0,0.0,0.0,0.0,0.0,0.0,0.0,0.0,0.0,0.0,0.0,0.0,0.0,0.0,0.0,0.0,0.0,0.0,0.0,0.0,0.0,0.0,0.0,0.0,0.0,0.0,0.0,0.0,0.0,0.0,0.0,0.0,0.0,0.0,0.0,0.0,0.0,0.0,0.0,0.0,0.0,0.0,0.0,0.0,0.0,0.0,0.0,0.0,0.0,0.0,0.0,0.0,0.0,0.0,0.0,0.0,0.0,0.0,0.0,0.0,0.0,0.0,0.0,0.0,0.0,0.0,0.0,0.0,0.0,0.0,0.0,0.0,0.0,0.0,0.0,0.0,0.0,0.0,0.0,0.0,0.0,0.0,0.0,0.0,0.0,0.0,0.0,0.0,0.0,0.0,0.0,0.0,0.0,0.0,0.0,0.0,0.0,0.0,0.0,0.0,0.0,0.0,0.0,0.0,0.0,0.0,0.0,0.0,0.0,0.0,0.0,0.0,0.0,0.0,0.0,0.0,0.0,0.0,0.0,0.0,0.0,0.0,0.0,0.0,0.0,0.0,0.0,0.0,0.0,0.0,0.0,0.0,0.0,0.0,0.0,0.0,0.0,0.0,0.0,0.0,0.0,0.0,0.0,0.0,0.0,0.0,0.0,0.0,0.0,0.0,0.0,0.0,0.0,0.0,0.0,0.0,0.0,0.0,0.0,0.0,0.0,0.0,0.0,0.0,0.0,0.0,0.0,0.0,0.0,0.0,0.0,0.0,0.0,0.0,0.0,0.0,0.0,0.0,0.0,0.0,0.0,0.0,0.0,0.0,0.0,0.0,0.0,0.0,0.0,0.0,0.0,0.0,0.0,0.0,0.0,0.0,0.0,0.0,0.0,0.0,0.0,0.0,0.0,0.0,0.0,0.0,0.0,0.0,0.0,0.0,0.0,0.0,0.0,0.0,0.0,0.0,0.0,0.0,0.0,0.0,0.0,0.0,0.0,0.0,0.0,0.0,0.0,0.0,0.0,0.0,0.0,0.0,0.0,0.0,0.0,0.0,0.0,0.0,0.0,0.0,0.0,0.0,0.0,0.0,0.0,0.0,0.0,0.0,0.0,0.0,0.0,0.0,0.0,0.0,0.0,0.0,0.0,0.0,0.0,0.0,0.0,0.0,0.0,0.0,0.0,0.0,0.0,0.0,0.0,0.0,0.0,0.0,0.0,0.0,0.0,0.0,0.0,0.0,0.0,0.0,0.0,0.0,0.0,0.0,0.0,0.0,0.0,0.0,0.0,0.0,0.0,0.0,0.0,0.0,0.0,0.0,0.0,0.0,0.0,0.0,0.0,0.0,0.0,0.0,0.0,0.0,0.0,0.0,0.0,0.0,0.0,0.0,0.0,0.0,0.0,0.0,0.0,0.0,0.0,0.0,0.0,0.0,0.0,0.0,0.0,0.0,0.0,0.0,0.0,0.0,0.0,0.0,0.0,0.0,0.0,0.0,0.0,0.0,0.0,0.0,0.0,0.0,0.0,0.0,0.0,0.0,0.0,0.0,0.0,0.0,0.0,0.0,0.0,0.0,0.0,0.0,0.0,0.0,0.0,0.0,0.0,0.0,0.0,0.0,0.0,0.0,0.0,0.0,0.0,0.0,0.0,0.0,0.0,0.0,0.0,0.0,0.0,0.0,0.0,0.0,0.0,0.0,0.0,0.0,0.0,0.0,0.0,0.0,0.0,0.0,0.0,0.0,0.0,0.0,0.0,0.0,0.0,0.0,0.0,0.0,0.0,0.0,0.0,0.0,0.0,0.0,0.0,0.0,0.0,0.0,0.0,0.0,0.0,0.0,0.0,0.0,0.0,0.0,0.0,0.0,0.0,0.0,0.0,0.0,0.0,0.0,0.0,0.0,0.0,0.0,0.0,0.0,0.0,0.0,0.0,0.0,0.0,0.0,0.0,0.0,0.0,0.0,0.0,0.0,0.0,0.0,0.0,0.0,0.0,0.0,0.0,0.0,-5.4126,0.0,0.0,0.0,0.0,0.0,0.0,0.0,0.0,0.0,0.0,0.0,0.0,0.0,0.0,0.0,0.0,0.0,0.0,0.0,0.0,0.0,0.0,0.0,0.0,0.0,0.0,0.0,0.0,0.0,0.0,0.0,0.0,0.0,0.0,0.0,0.0,0.0,-4.7148,-4.7539,-4.8437,-4.9297,-5.0078,-4.918,-4.8555,-4.8164,0.0,0.0,0.0,0.0,0.0,0.0,0.0,0.0,0.0,0.0,0.0,0.0,0.0,0.0,0.0,0.0,0.0,0.0,0.0,0.0,0.0,0.0,0.0,0.0,0.0,0.0,0.0,0.0,0.0,0.0,0.0,0.0,0.0,0.0,0.0,0.0,0.0,0.0,0.0,0.0,0.0,0.0,0.0,0.0,0.0,0.0,0.0,0.0,0.0,0.0,0.0,0.0,0.0,0.0,0.0,0.0,0.0,0.0,0.0,0.0,0.0,0.0,0.0,0.0,0.0,0.0,0.0,0.0,0.0,0.0,0.0,-5.4511,0.0,0.0,0.0,0.0,0.0,0.0,0.0,0.0,0.0,0.0,0.0,0.0,0.0,0.0,0.0,0.0,0.0,0.0,0.0,0.0,0.0,0.0,0.0,-4.6523,-4.6601,-4.6758,-4.6758,-4.6758,0.0,0.0,0.0,0.0,0.0,0.0,0.0,-4.7461,-4.832,-4.9336,-5.0664,-5.1719,-5.2539,-5.2499,-5.2148,-5.1484,-5.0,0.0,0.0,0.0,0.0,0.0,0.0,0.0,0.0,0.0,0.0,0.0,0.0,0.0,0.0,0.0,0.0,0.0,0.0,0.0,0.0,0.0,0.0,0.0,0.0,0.0,0.0,0.0,0.0,0.0,0.0,0.0,0.0,0.0,0.0,0.0,0.0,0.0,0.0,0.0,0.0,0.0,0.0,0.0,0.0,0.0,0.0,0.0,0.0,0.0,0.0,0.0,0.0,0.0,0.0,0.0,0.0,0.0,0.0,0.0,0.0,0.0,0.0,0.0,-6.0481,-6.0358,-6.0358,-6.0358,-6.0358,-6.0165,-5.6665,-5.5318,-5.5588,-5.528,0.0,0.0,0.0,0.0,0.0,0.0,0.0,0.0,0.0,0.0,0.0,0.0,0.0,0.0,0.0,0.0,0.0,0.0,0.0,0.0,0.0,-4.7422,-4.7734,-4.8476,-4.8555,-4.8555,-4.8555,0.0,0.0,0.0,0.0,0.0,-4.8555,-4.8672,-4.9492,-5.1055,-5.4219,-5.6211,-5.7031,-5.6852,-5.6816,-5.6719,-5.2812,-5.1016,-5.0859,0.0,0.0,0.0,0.0,0.0,0.0,0.0,0.0,0.0,0.0,0.0,0.0,0.0,0.0,0.0,0.0,0.0,0.0,0.0,0.0,0.0,0.0,0.0,0.0,0.0,0.0,0.0,0.0,0.0,0.0,0.0,0.0,0.0,0.0,0.0,0.0,0.0,0.0,0.0,0.0,0.0,-5.5271,-5.3986,0.0,0.0,0.0,0.0,0.0,0.0,0.0,0.0,0.0,0.0,0.0,0.0,0.0,-6.0595,-6.0355,-5.9821,-5.9568,-5.9683,-5.8957,-5.8627,-5.8627,-5.8627,-5.8627,-5.8588,-5.805,0.0,-5.9858,-5.8396,0.0,0.0,0.0,0.0,0.0,0.0,0.0,0.0,0.0,0.0,0.0,0.0,0.0,0.0,0.0,0.0,0.0,0.0,0.0,0.0,0.0,-4.8476,-4.9219,-4.9609,-5.0039,-5.0117,-4.9648,-5.0039,0.0,0.0,0.0,-4.9844,-5.0312,-5.0781,-5.2344,-5.5039,-5.707,-5.8242,-5.8633,-5.8549,-5.8228,-5.7718,-5.5803,-5.4395,-5.3416,-5.2598,0.0,0.0,0.0,0.0,0.0,0.0,0.0,0.0,0.0,0.0,0.0,0.0,0.0,0.0,0.0,0.0,0.0,0.0,0.0,0.0,0.0,0.0,0.0,0.0,0.0,0.0,0.0,0.0,0.0,0.0,0.0,0.0,0.0,0.0,0.0,0.0,0.0,0.0,0.0,-5.6439,-5.7247,-5.7489,-5.8617,-5.9738,0.0,0.0,0.0,0.0,0.0,0.0,0.0,0.0,0.0,-6.0913,-6.1366,-6.1571,-6.1524,-6.1589,-6.1627,-6.1627,-6.1281,-6.1115,-6.1115,-6.1115,-6.1115,-6.1115,-6.1115,-6.155,-6.205,-5.9858,-5.9396,-6.0089,0.0,0.0,0.0,0.0,-6.0012,-6.0358,0.0,0.0,0.0,0.0,0.0,0.0,0.0,0.0,0.0,0.0,0.0,0.0,-4.8555,-4.9922,-5.0937,-5.1133,-5.1914,-5.2031,-5.1211,-5.2148,-5.2344,-5.1523,-5.1719,-5.1992,-5.2383,-5.3476,-5.5508,-5.8555,-5.9648,-6.0156,-6.0113,-6.0105,-5.9536,-5.862,-5.8554,-5.7381,-5.5333,-5.4674,-5.338,-5.1736,0.0,0.0,0.0,0.0,0.0,0.0,0.0,0.0,0.0,0.0,0.0,0.0,0.0,0.0,0.0,0.0,0.0,0.0,0.0,0.0,0.0,0.0,0.0,0.0,0.0,0.0,0.0,0.0,0.0,0.0,0.0,0.0,0.0,0.0,0.0,0.0,0.0,-5.8377,-5.9366,-6.0489,-6.1507,-6.2391,0.0,0.0,0.0,0.0,0.0,0.0,-6.1959,-6.2752,-6.266,-6.1485,-6.205,-6.2512,-6.2743,-6.3128,-6.3512,-6.3974,-6.3512,-6.3423,-6.3628,-6.3385,-6.3308,-6.3308,-6.3308,-6.3308,-6.3166,-6.1243,-6.0589,-6.0858,-6.1512,-6.1781,-6.1743,-6.1512,-6.1858,-6.2397,0.0,0.0,0.0,0.0,0.0,0.0,0.0,0.0,0.0,0.0,0.0,-5.0351,-5.1133,-5.2031,-5.2891,-5.375,-5.4609,-5.4726,-5.3867,-5.539,-5.5937,-5.5078,-5.5859,-5.5898,-5.5117,-5.6758,-5.8515,-6.0273,-6.1992,-6.2728,-6.2602,-6.2508,-6.1974,-6.1095,-6.0926,-5.9085,-5.6124,-5.6036,-5.5019,-5.3429,-5.2671,0.0,0.0,0.0,0.0,0.0,0.0,0.0,0.0,0.0,0.0,0.0,0.0,0.0,0.0,0.0,0.0,0.0,0.0,0.0,0.0,0.0,0.0,0.0,0.0,0.0,0.0,0.0,0.0,0.0,0.0,0.0,0.0,0.0,0.0,0.0,0.0,0.0,0.0,-6.1362,-6.2696,0.0,0.0,0.0,0.0,-6.3553,-6.4905,-6.5358,-6.446,-6.5268,-6.4948,-6.3243,-6.3243,-6.3628,-6.4474,-6.3705,-6.4128,-6.5743,-6.4089,-6.3743,-6.4512,-6.3666,-6.3308,-6.3308,-6.3308,-6.3308,-6.3269,-6.3166,-6.3589,-6.4359,-6.4397,-6.4397,-6.432,-6.3474,-6.3192,-6.3243,0.0,0.0,0.0,-4.6289,-4.6289,-4.6484,-4.7031,-4.7383,-4.7812,-4.8359,-4.9922,-5.1094,-5.1367,-5.3672,-5.5312,-5.5664,-5.6992,-5.7422,-5.6562,-5.7617,-5.7617,-5.6211,-5.6953,-5.7539,-5.7812,-5.9492,-6.0625,-6.125,-6.2422,-6.2694,-6.2101,-6.2515,-6.1928,-6.0472,-6.029,-5.922,-5.7571,-5.7598,-5.6985,-5.5807,-5.4472,-5.2981,0.0,0.0,0.0,0.0,0.0,0.0,0.0,0.0,0.0,0.0,0.0,0.0,0.0,0.0,0.0,0.0,0.0,0.0,0.0,0.0,0.0,0.0,0.0,0.0,0.0,0.0,0.0,0.0,0.0,0.0,0.0,0.0,0.0,0.0,0.0,0.0,0.0,-6.2023,-6.3012,0.0,-6.3446,-6.4521,-6.518,-6.5076,-6.6075,-6.632,-6.5474,-6.6205,-6.6397,-6.5782,-6.5743,-6.6167,-6.7051,-6.6744,-6.6898,-6.7513,-6.6898,-6.6744,-6.7051,-6.6744,-6.6282,-6.5743,-6.5743,-6.5436,-6.4974,-6.4974,-6.4512,-6.3782,-6.3782,-6.3782,-6.3743,-6.3423,-6.3666,-6.4128,0.0,0.0,0.0,-4.6289,-4.6523,-4.6914,-4.75,-4.8086,-4.8789,-4.9648,-5.1211,-5.25,-5.3086,-5.5469,-5.7148,-5.7461,-5.8789,-5.9258,-5.8398,-5.9414,-5.9531,-5.8359,-5.8867,-5.9453,-6.0039,-6.1133,-6.1992,-6.2578,-6.3437,-6.3554,-6.2961,-6.3374,-6.2723,-6.1207,-6.0756,-6.0197,-5.9561,-5.906,-5.8355,-5.7448,-5.6098,-5.4802,-5.3607,0.0,0.0,0.0,0.0,0.0,0.0,0.0,0.0,0.0,0.0,0.0,0.0,0.0,0.0,0.0,0.0,0.0,0.0,0.0,0.0,0.0,0.0,0.0,0.0,0.0,0.0,0.0,0.0,0.0,0.0,0.0,0.0,0.0,0.0,0.0,-6.2327,-6.3563,-6.4122,-6.4472,-6.4704,-6.5786,-6.6278,-6.5923,-6.7205,-6.7628,-6.6782,-6.7513,-6.7821,-6.7552,-6.7552,-6.7975,-6.8821,-6.8552,-6.8692,-6.9244,-6.8667,-6.8552,-6.8821,-6.8552,-6.809,-6.7552,-6.7552,-6.7051,-6.6282,-6.6282,-6.5628,-6.4551,-6.4282,-6.4166,-6.4166,-6.4166,-6.4551,-6.5128,0.0,0.0,-4.6289,-4.6289,-4.7031,-4.7617,-4.7656,-4.9101,-5.0508,-5.1328,-5.2969,-5.4687,-5.6406,-5.7422,-5.832,-5.914,-5.9961,-6.0117,-5.9375,-6.0859,-6.1758,-6.1797,-6.1758,-6.1758,-6.1797,-6.1797,-6.2617,-6.4297,-6.5156,-6.5501,-6.5376,-6.5187,-6.4563,-6.3571,-6.2607,-6.2151,-6.2036,-6.0331,-5.9127,-5.8341,-5.7534,-5.6822,-5.6025,0.0,0.0,0.0,0.0,0.0,0.0,0.0,0.0,0.0,0.0,0.0,0.0,0.0,0.0,0.0,0.0,0.0,0.0,0.0,0.0,0.0,0.0,0.0,0.0,0.0,0.0,0.0,0.0,0.0,0.0,0.0,0.0,0.0,-6.367,-6.3681,-6.4183,-6.5828,-6.5936,-6.5513,-6.4666,-6.6128,-6.6821,-6.6051,-6.8321,-6.936,-6.8513,-6.9283,-6.936,-6.85,-6.8475,-6.8898,-6.9744,-6.8898,-6.9283,-7.0898,-6.9244,-6.8936,-6.9706,-6.8859,-6.8462,-6.8423,-6.8423,-6.7936,-6.7128,-6.7128,-6.7128,-6.7051,-6.6205,-6.5936,-6.5974,-6.5936,-6.5936,-6.6205,-4.6445,-4.6289,-4.6289,-4.6289,-4.7031,-4.7812,-4.8437,-4.9492,-5.0703,-5.2148,-5.3867,-5.5351,-5.6484,-5.8476,-5.9805,-6.0039,-6.0859,-6.1523,-6.1914,-6.2383,-6.293,-6.3555,-6.2969,-6.293,-6.3555,-6.3594,-6.3828,-6.4297,-6.5156,-6.5273,-6.4605,-6.5103,-6.4813,-6.395,-6.3416,-6.3187,-6.31,-6.1885,-6.1243,-6.087,-5.8819,-5.7921,-5.7676,0.0,0.0,0.0,0.0,0.0,0.0,0.0,0.0,0.0,0.0,0.0,0.0,0.0,0.0,0.0,0.0,0.0,0.0,0.0,0.0,0.0,0.0,0.0,0.0,0.0,0.0,0.0,0.0,0.0,0.0,0.0,0.0,-6.4006,-6.3688,-6.3515,-6.3554,-6.4028,-6.46,-6.4859,-6.4628,-6.6705,-6.7936,-6.7744,-6.9475,-7.0475,-7.0244,-7.0437,-7.0475,-7.0206,-7.0206,-7.0321,-7.0552,-7.0321,-7.0437,-7.0898,-7.0437,-7.036,-7.0552,-7.0321,-6.9898,-6.936,-6.936,-6.8859,-6.8052,-6.8052,-6.8052,-6.7898,-6.6474,-6.6628,-6.7628,-6.7013,-6.7167,-6.7782,-4.6899,-4.6476,-4.6362,-4.6758,-4.7578,-4.8437,-4.9297,-5.0156,-5.1445,-5.3516,-5.4687,-5.6055,-5.7969,-5.9492,-6.0547,-6.0898,-6.1758,-6.2461,-6.2969,-6.3672,-6.414,-6.4297,-6.414,-6.4336,-6.4844,-6.5195,-6.5586,-6.5937,-6.6445,-6.6445,-6.5937,-6.5909,-6.5644,-6.513,-6.4418,-6.4158,-6.4155,-6.3053,-6.2673,-6.2646,-6.075,-5.9582,-5.8875,-5.7638,-5.7316,-5.7331,-5.648,-5.5937,-5.5703,-5.6211,0.0,0.0,0.0,0.0,0.0,0.0,0.0,0.0,0.0,0.0,0.0,0.0,0.0,0.0,0.0,0.0,0.0,0.0,0.0,0.0,0.0,0.0,0.0,0.0,-6.4492,-6.4546,-6.4093,-6.3939,-6.3974,-6.4359,-6.4859,-6.5128,-6.5128,-6.7128,-6.8385,-6.8385,-6.9937,-7.0898,-7.0898,-7.1245,-7.1437,-7.1437,-7.1783,-7.1975,-7.1975,-7.1975,-7.1975,-7.1975,-7.1975,-7.1975,-7.1975,-7.1975,-7.1745,-7.1283,-7.1283,-7.0821,-6.9975,-6.9975,-6.9975,0.0,0.0,0.0,0.0,0.0,-6.7975,-6.8462,-4.7655,-4.6901,-4.6651,-4.7576,-4.8476,-4.9297,-5.0078,-5.0976,-5.2461,-5.4961,-5.5469,-5.6836,-6.0039,-6.0508,-6.0898,-6.1758,-6.2539,-6.3086,-6.3281,-6.4844,-6.5351,-6.4492,-6.5273,-6.5742,-6.5742,-6.6601,-6.7461,-6.8359,-6.8359,-6.8281,-6.8164,-6.7242,-6.6748,-6.6583,-6.5478,-6.5102,-6.5193,-6.4009,-6.368,-6.3857,-6.2834,-6.1462,-5.9924,-5.9153,-5.8932,-5.9051,-5.9176,-5.8711,-5.8086,-5.8242,0.0,0.0,0.0,0.0,0.0,0.0,0.0,0.0,0.0,0.0,0.0,0.0,0.0,0.0,0.0,0.0,0.0,0.0,0.0,0.0,0.0,0.0,0.0,0.0,-6.4839,-6.4743,-6.4743,-6.478,-6.505,-6.5833,-6.5974,-6.6051,-6.6051,-6.7552,-6.859,-6.8667,-7.0167,-7.1091,-7.1206,0.0,0.0,0.0,0.0,-7.3514,-7.3514,-7.3514,-7.3514,-7.3514,-7.3514,-7.3514,-7.3514,-7.3514,-7.3514,-7.3514,-7.3514,-7.3053,-7.236,-7.236,-7.236,-7.2129,-6.986,-6.8936,-6.8859,-6.8936,-6.8975,-6.909,-4.8419,-4.8224,-4.8276,-4.8443,-4.929,-5.0,-5.0156,-5.1484,-5.3125,-5.5039,-5.6523,-5.8164,-6.0195,-6.1015,-6.1797,-6.2656,-6.289,-6.3594,-6.5,-6.6055,-6.625,-6.539,-6.6172,-6.664,-6.664,-6.75,-6.8398,-6.9258,-6.918,-6.8828,-6.8203,-6.8007,-6.7536,-6.6833,-6.6418,-6.626,-6.6233,-6.5213,-6.4778,-6.4746,-6.3735,-6.2812,-6.1888,-6.046,-5.9928,-5.987,-5.9371,-5.9101,-5.914,-6.0508,-6.0273,-5.9687,-6.1289,-6.1055,0.0,0.0,0.0,0.0,0.0,0.0,0.0,0.0,0.0,0.0,0.0,0.0,0.0,0.0,0.0,0.0,0.0,0.0,0.0,-6.5886,-6.5727,-6.5628,-6.5628,-6.5738,-6.5831,-6.5897,-6.6474,-6.6859,-6.6859,-6.8436,-6.9706,-7.036,-7.136,-7.2245,-7.2976,-7.3168,-7.3245,-7.3245,-7.3399,-7.3514,-7.3514,-7.3514,-7.3514,-7.3514,0.0,0.0,-7.3514,-7.3514,-7.3514,-7.3514,-7.3514,-7.3399,-7.3245,-7.3245,-7.3245,-7.3206,-7.2706,-7.2091,-7.1552,-7.2245,-7.25,-7.2552,-4.9668,-4.8998,-4.8673,-4.9235,-4.978,-5.0266,-5.0742,-5.1875,-5.332,-5.5078,-5.6445,-5.789,-5.9609,-6.0547,-6.1406,-6.2265,-6.3164,-6.4219,-6.5508,-6.6015,-6.6055,-6.5625,-6.6836,-6.7539,-6.7539,-6.8359,-6.9453,-7.0742,-6.9453,-6.8789,-6.8789,-6.793,-6.7305,-6.6875,-6.6687,-6.6678,-6.6699,-6.602,-6.5855,-6.591,-6.486,-6.4301,-6.3884,-6.2032,-6.1421,-6.1395,-6.0699,-6.0156,-5.9922,-6.0781,-6.0508,-6.0039,-6.1289,-6.1406,-6.1211,0.0,0.0,0.0,0.0,0.0,0.0,0.0,0.0,0.0,0.0,0.0,0.0,0.0,0.0,-6.6873,0.0,0.0,-6.6583,-6.608,-6.5981,-6.5981,-6.5981,-6.6137,-6.6156,-6.5921,-6.7046,-6.7803,-6.7757,-6.9706,-7.1129,-7.1514,-7.236,-7.3053,-7.3476,-7.3899,-7.4091,-7.4091,-7.4514,-7.4745,-7.4745,-7.4745,-7.4745,-7.4745,-7.4745,-7.4745,-7.4745,-7.4745,-7.4745,-7.4745,-7.4745,-7.4745,-7.4745,-7.4745,-7.4745,-7.4745,-7.4745,-7.3976,-7.2899,-7.336,-7.3514,-7.3514,-5.0712,-4.9654,-4.9071,-4.9991,-5.0207,-5.0475,-5.1246,-5.2265,-5.3516,-5.5078,-5.6211,-5.7461,-5.9023,-5.9765,-6.0586,-6.1601,-6.3594,-6.5039,-6.5586,-6.5586,-6.5508,-6.5351,-6.7031,-6.7851,-6.7695,-6.8828,-7.0117,-7.1523,-6.9453,-6.8672,-6.914,-6.7773,-6.707,-6.6875,-6.6738,-6.6742,-6.6874,-6.6596,-6.6658,-6.6836,-6.5904,-6.568,-6.5663,-6.3756,-6.2968,-6.2742,-6.2185,-6.1406,-6.0664,-6.0859,-6.0469,-6.0117,-6.1094,-6.1406,-6.1719,-6.3281,-6.375,0.0,0.0,0.0,0.0,0.0,0.0,0.0,0.0,-6.7287,-6.7268,-6.6242,-6.6749,-6.7107,-6.6253,-6.6661,-6.6883,-6.6124,-6.6089,-6.6221,-6.6376,-6.6715,-6.6888,-6.6696,-6.7978,-6.8928,-6.9117,-7.1168,-7.2514,-7.2668,-7.336,-7.3822,-7.3976,-7.4591,-7.4938,-7.4938,-7.563,-7.6015,-7.6015,-7.6015,-7.6015,-7.6015,-7.6015,-7.6015,-7.6015,-7.6015,-7.6015,-7.6015,-7.6015,-7.6015,-7.6015,-7.6015,-7.6015,-7.6015,-7.6015,-7.5168,-7.4014,-7.4014,-7.4014,-7.4014,-5.0712,-5.0577,-5.0524,-5.0763,-5.094,-5.1089,-5.1213,-5.2727,-5.4219,-5.5156,-5.6719,-5.8125,-5.9101,-5.9297,-5.9961,-6.1562,-6.4726,-6.6328,-6.5625,-6.5586,-6.5234,-6.4492,-6.6133,-6.668,-6.5898,-6.8242,-6.957,-6.9765,-6.9414,-6.8945,-6.832,-6.8125,-6.7656,-6.6914,-6.6874,-6.6874,-6.6914,-6.6873,-6.6874,-6.6875,-6.6568,-6.6579,-6.664,-6.5426,-6.4147,-6.2968,-6.289,-6.2305,-6.168,-6.2461,-6.2656,-6.2851,-6.4492,-6.5039,-6.5195,-6.6172,-6.6445,-6.664,-6.7539,-6.7485,-6.7028,-6.6307,-6.6229,-6.5835,0.0,-6.5102,-6.6012,-6.4999,-6.5469,-6.609,-6.6109,-6.6187,-6.6251,-6.6344,-6.6347,-6.6633,-6.7418,-6.8291,-6.9016,-6.9421,-6.9642,-7.0269,-7.1632,-7.2745,-7.3668,-7.4361,-7.4514,-7.4899,-7.5668,-7.5822,-7.5861,-7.5861,-7.5938,-7.6015,-7.6015,-7.6015,-7.6015,-7.6015,-7.6015,-7.6015,-7.6015,-7.6015,-7.6015,-7.6015,-7.6015,-7.6015,-7.6015,-7.6015,-7.6015,-7.6015,-7.6015,-7.5899,-7.5707,-7.5707,-7.5707,-7.5707,-5.0789,-5.0712,-5.0702,-5.0764,-5.0907,-5.1206,-5.1775,-5.2996,-5.4203,-5.5059,-5.6325,-5.7265,-5.7656,-5.8594,-5.9687,-6.0859,-6.3203,-6.4492,-6.4101,-6.457,-6.4453,-6.3594,-6.5195,-6.5976,-6.5625,-6.7187,-6.8476,-6.9453,-6.8437,-6.8047,-6.8203,-6.7695,-6.7265,-6.6914,-6.6914,-6.6914,-6.6914,-6.6914,-6.6914,-6.6875,-6.6791,-6.6832,-6.6836,-6.64,-6.5504,-6.4492,-6.4492,-6.3945,0.0,-6.4219,-6.418,-6.3984,-6.5195,-6.5937,-6.6523,-6.7383,-6.8008,-6.8162,-6.737,-6.7075,-6.7008,-6.699,-6.6974,-6.6993,-6.7121,-6.7822,-6.82,-6.717,-6.7329,-6.7536,-6.7122,-6.7014,-6.7044,0.0,-6.7637,-6.8314,-6.9216,-7.0191,-7.1251,-7.2339,-7.2458,-7.2599,-7.2929,-7.4168,-7.5091,-7.5438,-7.5476,-7.563,-7.5976,-7.6015,-7.6015,-7.6015,-7.6015,-7.6015,-7.6015,-7.6015,-7.6015,-7.6015,-7.6015,-7.6015,-7.6015,-7.6015,-7.6015,-7.6015,-7.6015,-7.6015,-7.6015,-7.6015,-7.6015,-7.6015,-7.6015,-7.6015,-7.6015,-7.6015,-7.6015,-7.6015,-5.1202,-5.101,-5.0971,-5.075,-5.0966,-5.1409,-5.2129,-5.3096,-5.406,-5.495,-5.5911,-5.656,-5.6601,-5.8164,-5.9336,-5.9687,-6.1719,-6.3008,-6.3008,-6.3594,-6.3789,-6.3398,-6.4336,-6.4883,-6.4883,-6.5976,-6.7148,-6.8359,-6.7383,-6.7226,-6.7812,-6.7187,-6.6914,-6.6914,-6.6914,-6.6914,-6.6914,-6.6914,-6.6914,-6.6914,-6.6914,-6.6914,-6.6914,-6.7187,-6.6875,-6.6289,-6.6055,-6.539,-6.4805,-6.5664,-6.5547,-6.5156,-6.6055,-6.6758,-6.7422,-6.8281,-6.9101,-6.945,-6.7965,-6.755,-6.7648,-6.8147,-6.8022,-6.8127,-6.9359,-6.9725,-6.9635,-6.8899,-6.8839,-6.8753,-6.821,-6.8099,-6.8187,-6.85,-6.9153,-7.0009,-7.1102,-7.2104,-7.3199,-7.4509,-7.4886,-7.4839,-7.4378,-7.5414,-7.6052,-7.5991,-7.6015,-7.6015,-7.6015,-7.6015,-7.6092,-7.6361,-7.6361,-7.6476,-7.6669,-7.6669,-7.6669,-7.6669,-7.6669,-7.6669,-7.6669,-7.6476,-7.6361,-7.6361,-7.6092,-7.6015,-7.6015,-7.6015,-7.6015,-7.6015,-7.6015,-7.6015,-7.6015,-7.6015,-7.6015,-7.6015,-5.2038,-5.1846,-5.1625,-5.0827,-5.1366,-5.1905,-5.2059,-5.295,-5.394,-5.4791,-5.5794,-5.6456,-5.6601,-5.8164,-5.8867,-5.8047,-6.1055,-6.3008,-6.3008,-6.3008,-6.3398,-6.4219,-6.3515,-6.3086,-6.3086,-6.4765,-6.5664,-6.5703,-6.6523,-6.6914,-6.6953,-6.6914,-6.6914,-6.6914,-6.6914,-6.6914,-6.6914,-6.6914,-6.6914,-6.6914,-6.6914,-6.6914,-6.6992,-6.7851,-6.8125,-6.8008,-6.7148,-6.6289,-6.5703,-6.6562,-6.6836,-6.6953,-6.7851,-6.8125,-6.832,-6.914,-6.9961,-7.0664,-7.0586,-7.0452,-7.0366,-7.0402,-6.9621,-6.889,-6.8929,-6.8929,-6.8936,-6.889,-6.889,-6.8945,-6.9139,-6.9153,-6.9452,-7.0467,-7.0625,-7.125,-7.2969,-7.3984,-7.4761,-7.5485,-7.6294,-7.6756,0.0,-7.64,-7.6234,-7.6005,-7.6015,-7.6015,-7.6015,-7.6015,-7.6399,-7.7207,-7.7246,-7.763,-7.84,-7.84,-7.84,-7.84,-7.84,-7.84,-7.84,-7.763,-7.7246,-7.7207,-7.6361,-7.6015,-7.6015,-7.6015,-7.6015,-7.6015,-7.6015,-7.6015,-7.6015,-7.6015,-7.6015,-7.6015,-5.2933,-5.2769,-5.2702,-5.2395,-5.2587,-5.2964,-5.3591,-5.408,-5.4633,-5.5472,-5.5975,0.0,0.0,0.0,0.0,0.0,-5.9492,-6.0703,-6.125,-6.1836,-6.2265,-6.2578,-6.2305,-6.2422,-6.3008,-6.3555,-6.414,-6.4726,-6.5625,-6.6055,-6.6055,-6.664,-6.6914,-6.6914,-6.6914,-6.6914,-6.6914,-6.6914,-6.6914,-6.6953,-6.7539,-6.7422,-6.6992,-6.7851,-6.7851,-6.7383,0.0,-6.7969,-6.832,-6.914,-6.9062,-6.8789,-6.9609,-6.9844,-7.0039,-7.0898,-7.1328,-7.1405,-7.0764,-7.0545,-7.0473,-7.0318,-7.0024,-6.9902,-7.048,-7.0681,-7.0745,-7.0745,-7.0876,-7.0993,-7.1046,-7.0579,-7.0699,-7.2187,-7.2422,-7.3047,-7.4765,-7.5781,-7.6406,-7.6634,-7.6906,0.0,0.0,0.0,0.0,-7.6195,-7.6712,-7.701,-7.6876,-7.7361,-7.7784,-7.8092,-7.8092,-7.8222,-7.8477,-7.8477,-7.8477,-7.8477,-7.8477,-7.8477,-7.8477,-7.8207,-7.8092,-7.8092,-7.7784,-7.7669,-7.7669,-7.7669,-7.7669,-7.7669,-7.7669,-7.7669,-7.7669,-7.7669,-7.7669,-7.7592,0.0,0.0,0.0,-5.3241,-5.3472,0.0,0.0,0.0,0.0,0.0,0.0,0.0,0.0,0.0,0.0,0.0,0.0,-5.9059,-5.9922,-6.0742,-6.1367,-6.168,-6.1719,-6.1953,-6.2539,-6.2851,-6.3281,-6.3828,-6.5039,-6.543,-6.5156,-6.6015,-6.6289,-6.5976,-6.5976,-6.5976,-6.5976,-6.5976,-6.6523,-6.7344,-6.6953,-6.7031,-6.7383,-6.7656,-6.7383,0.0,-6.8203,-6.8984,-6.9609,-7.043,-7.0351,-7.0078,-7.0898,-7.1172,-7.1289,-7.1836,-7.1992,-7.1874,-7.1194,-7.103,-7.0982,-7.0887,-7.0832,-7.0988,-7.1569,-7.1735,-7.1809,-7.1809,-7.1908,-7.1992,-7.1992,-7.1523,-7.1758,-7.3476,-7.375,-7.4375,-7.6133,-7.6836,-7.7187,-7.7187,-7.7187,-7.7263,0.0,0.0,0.0,-7.6895,-7.7691,-7.8071,-7.7857,-7.8345,-7.87,-7.8938,-7.8977,-7.9092,-7.9438,-7.9438,-7.9438,-7.9438,-7.9438,-7.9438,-7.94,-7.9092,-7.8977,-7.8938,-7.8631,-7.8477,-7.8477,-7.8477,-7.8477,-7.8477,-7.8477,-7.8477,-7.8477,-7.8477,-7.8707,-7.8861,0.0,0.0,0.0,0.0,0.0,0.0,0.0,0.0,0.0,0.0,0.0,0.0,0.0,0.0,0.0,0.0,0.0,0.0,-5.9062,-5.9844,-6.0664,-6.1601,-6.164,-6.164,-6.1719,-6.25,-6.293,-6.293,-6.4648,-6.5039,-6.4258,-6.5117,-6.5078,-6.4297,-6.4297,-6.4297,-6.4297,-6.4297,-6.5742,-6.7773,-6.5351,-6.582,-6.793,-6.7148,-6.6797,-6.6992,-6.8633,-6.9258,-6.9453,-7.039,-7.0742,-7.0898,-7.1758,-7.1992,-7.1992,-7.1992,-7.1992,-7.1992,-7.1992,-7.1992,-7.1992,-7.1992,-7.1992,-7.1992,-7.1992,-7.1992,-7.1992,-7.1992,-7.1992,-7.2031,-7.2109,-7.207,-7.2617,-7.4453,-7.4648,-7.5195,-7.6953,-7.7187,-7.7187,0.0,0.0,0.0,0.0,0.0,0.0,-7.8085,0.0,-7.9165,-7.8895,-7.8912,-7.9223,-7.9869,-7.9862,-8.0246,-8.1093,-8.1093,-8.1093,-8.1093,-8.1093,-8.1093,-8.1054,-8.0246,-7.9862,-7.9823,-7.8977,-7.8631,-7.8631,-7.8631,-7.8631,-7.8631,-7.8631,-7.8631,-7.8631,-7.8631,-7.9169,-7.9746,0.0,0.0,0.0,0.0,0.0,0.0,0.0,0.0,0.0,0.0,0.0,0.0,0.0,0.0,0.0,0.0,0.0,0.0,-5.8016,-5.8355,-5.918,-6.0664,-6.0742,-6.1055,-6.168,-6.1914,-6.2031,-6.2031,-6.3125,-6.3555,-6.3359,-6.4219,-6.4492,-6.4297,-6.4297,-6.4297,-6.4297,-6.4297,-6.4687,-6.5273,-6.5273,-6.5273,-6.5351,-6.5781,-6.5547,-6.5117,-6.6172,-6.6562,-6.6992,-6.9765,-7.1133,-7.1719,-7.1914,-7.1992,-7.1992,-7.1992,-7.1992,-7.1992,-7.1992,-7.1992,-7.1992,-7.1992,-7.1992,-7.1992,-7.1992,-7.1992,-7.1992,-7.1992,-7.1992,-7.2383,-7.3711,-7.289,-7.3008,-7.6055,-7.5469,0.0,-7.6953,-7.7187,0.0,-7.7187,-7.7187,-7.7539,-7.8437,-7.9023,0.0,0.0,-8.0279,-8.0213,-7.999,-8.0493,-8.0829,-8.0976,-8.0858,-8.09,-8.1093,-8.1093,-8.1093,-8.1093,-8.1093,-8.1093,-8.1093,-8.0862,-8.0785,-8.0746,-8.0516,-8.0439,-8.0439,-8.0439,-8.0439,-8.0439,-8.0439,-8.0439,-8.0439,-8.0439,-8.0592,-8.0746,0.0,0.0,0.0,0.0,0.0,0.0,0.0,0.0,0.0,0.0,0.0,0.0,0.0,0.0,0.0,0.0,0.0,0.0,0.0,-5.7555,-5.8276,-5.9258,-6.0,-6.0625,-6.1133,-6.1484,-6.1719,-6.1719,-6.2578,-6.2812,-6.2461,-6.332,-6.3515,-6.3164,-6.3164,-6.3164,-6.3164,-6.3164,-6.3828,0.0,0.0,-6.4297,-6.4844,-6.457,-6.414,-6.3828,-6.4726,-6.5781,-6.7109,-6.9414,-7.0976,-7.1992,-7.1992,-7.1992,-7.1992,-7.1992,-7.1992,-7.1992,-7.1992,-7.1992,-7.1992,-7.1992,-7.1992,-7.1992,-7.1992,-7.1992,-7.1992,-7.1992,-7.1992,-7.2422,-7.3789,-7.293,-7.289,-7.5625,0.0,0.0,-7.6445,-7.6953,-7.7187,0.0,-7.7187,0.0,-7.8906,-7.9453,-8.0234,0.0,-8.1475,-8.1311,-8.1115,-8.1477,-8.1582,-8.1418,-8.1311,-8.1196,-8.1093,-8.1093,-8.1093,-8.1093,-8.1093,-8.1093,-8.1093,-8.1093,-8.1093,-8.1093,0.0,-8.1093,-8.1093,-8.1093,-8.1093,-8.1093,-8.1093,-8.1093,-8.1093,-8.1093,-8.1093,-8.1093,0.0,0.0,0.0,0.0,0.0,0.0,0.0,0.0,0.0,0.0,-5.5703,-5.5703,-5.5703,-5.5703,0.0,0.0,0.0,0.0,0.0,0.0,-5.7629,-5.789,-5.9297,-6.0117,-6.0234,-6.1094,-6.1523,-6.1523,-6.2383,-6.2422,-6.1719,-6.2461,-6.2422,-6.1719,-6.1719,-6.1719,-6.1719,-6.1719,-6.3008,-6.4883,-6.2617,-6.3047,-6.4922,0.0,-6.2812,-6.293,-6.3828,-6.5898,-6.832,-6.9062,-7.0508,-7.1992,-7.1992,-7.1992,-7.1992,-7.1992,-7.1992,-7.1992,-7.1992,-7.1992,-7.1992,-7.1992,-7.1992,-7.1992,-7.1992,-7.1992,-7.1992,-7.1992,-7.1992,-7.2265,-7.3125,-7.2578,-7.2578,-7.4336,-7.4609,-7.4883,-7.5781,-7.664,-7.7187,-7.7187,-7.7187,-7.7851,-7.9531,-7.9687,-8.0429,-8.2187,-8.2304,-8.2221,-8.2053,-8.2,-8.1837,-8.1447,-8.1391,-8.1311,-8.1146,-8.1124,-8.1093,-8.1093,-8.1093,-8.1093,-8.1093,-8.1093,-8.1093,-8.1093,-8.1093,0.0,-8.1093,-8.1093,-8.1093,-8.1093,-8.1093,-8.1093,-8.1093,-8.1093,-8.1093,-8.1131,0.0,0.0,0.0,0.0,0.0,0.0,0.0,0.0,0.0,0.0,-5.5703,-5.5703,0.0,0.0,0.0,0.0,0.0,0.0,0.0,0.0,0.0,-5.7851,-5.8164,-5.8672,-5.9375,-6.0195,-6.0625,-6.0625,-6.1484,-6.1836,-6.1719,-6.1836,-6.1836,-6.1719,-6.1719,-6.1719,-6.1719,-6.1719,-6.1953,-6.2344,-6.1875,-6.1953,-6.2344,-6.2031,0.0,0.0,-6.289,-6.5351,-6.8203,-6.8359,-7.0039,-7.1992,-7.1992,-7.1992,-7.1992,-7.1992,-7.1992,-7.1992,-7.1992,-7.1992,-7.1992,-7.1992,-7.1992,-7.1992,-7.1992,-7.1992,-7.1992,-7.1992,-7.1992,-7.2265,-7.3125,-7.2578,-7.2578,-7.4336,-7.4609,-7.4883,-7.5781,-7.664,-7.7187,0.0,-7.7187,-7.7851,-7.9531,-7.9687,0.0,0.0,0.0,-8.2265,-8.2263,-8.2071,-8.1889,-8.1679,-8.1501,-8.1383,-8.1361,-8.1181,-8.1093,-8.1093,-8.1093,-8.1093,-8.1093,-8.1093,-8.1093,-8.1093,-8.1093,0.0,-8.1093,-8.1093,-8.1093,-8.1093,-8.1093,-8.1093,-8.1093,-8.1093,-8.1093,-8.1208,0.0,0.0,0.0,0.0,0.0,0.0,0.0,-5.7049,-5.7357,-5.8242,-5.8357,-5.7857,-5.6522,-5.6368,-5.6368,0.0,0.0,0.0,0.0,0.0,0.0,-5.7093,-5.7615,-5.8086,-5.8515,-5.9336,-5.9765,-5.9765,0.0,-6.0625,-6.1015,-6.1015,-6.1289,-6.1719,-6.1719,-6.1719,-6.1719,-6.1719,-6.1719,-6.1719,-6.1719,-6.1719,-6.1719,0.0,0.0,0.0,-6.2695,-6.4961,-6.7578,-6.8047,-6.9883,-7.1992,-7.1992,-7.1992,-7.1992,-7.1992,-7.1992,-7.1992,-7.1992,-7.1992,-7.1992,-7.1992,-7.1992,-7.1992,-7.1992,-7.1992,-7.1992,-7.1992,-7.1992,-7.2265,-7.3125,-7.2578,-7.2422,-7.3711,-7.3906,-7.4219,-7.5117,-7.5976,-7.668,-7.7148,-7.7187,-7.7851,-7.9531,-7.9687,-8.0429,-8.2187,0.0,-8.2304,-8.2304,-8.2115,-8.1967,-8.1861,-8.164,-8.1553,-8.1553,-8.1374,-8.1244,-8.1244,-8.1161,-8.1093,-8.1093,-8.1093,-8.1093,-8.1093,-8.1093,0.0,-8.1093,-8.1093,-8.1093,-8.1093,-8.1093,-8.1093,-8.1093,-8.1093,-8.1362,-8.1785,0.0,0.0,0.0,0.0,0.0,0.0,-5.805,-5.8434,-5.9088,-6.0589,-6.0973,-6.0242,-5.8061,-5.7638,-5.7484,0.0,0.0,0.0,0.0,0.0,0.0,0.0,0.0,0.0,0.0,0.0,0.0,-5.8906,-5.9101,0.0,0.0,0.0,0.0,0.0,-6.1172,-6.1172,-6.1172,-6.1367,-6.1406,0.0,0.0,-6.1719,0.0,0.0,0.0,0.0,0.0,-6.4531,-6.6992,-6.7695,-6.9726,-7.1992,-7.1992,-7.1992,-7.1992,-7.1992,-7.1992,-7.1992,-7.1992,-7.1992,-7.1992,-7.1992,-7.1992,-7.1992,-7.1992,-7.1992,-7.1992,-7.1992,-7.1992,-7.2226,-7.289,-7.2461,-7.2226,-7.289,-7.3164,-7.3594,-7.4492,-7.5351,-7.6211,-7.7109,-7.7187,0.0,-7.9531,-7.9687,0.0,-8.2187,0.0,0.0,-8.2304,-8.2168,-8.2059,-8.2059,-8.1873,-8.1746,-8.1746,-8.1563,-8.1469,-8.1458,-8.1244,-8.1152,-8.1137,-8.1139,-8.1093,-8.1093,-8.1093,0.0,0.0,-8.1093,-8.1093,-8.1093,-8.1093,-8.1093,-8.1131,-8.1285,-8.1747,-8.2362,0.0,0.0,0.0,0.0,0.0,0.0,-5.8165,-5.8934,-5.9742,-6.0666,-6.1473,-6.1601,-6.055,-5.9742,-5.8973,0.0,0.0,0.0,0.0,0.0,0.0,0.0,0.0,0.0,0.0,0.0,0.0,-5.8008,-5.8828,0.0,0.0,0.0,0.0,0.0,0.0,-5.9414,-5.9492,-6.0195,0.0,0.0,0.0,0.0,0.0,0.0,0.0,0.0,0.0,-6.4023,-6.6914,-6.6992,-6.9258,-7.1992,-7.1992,-7.1992,-7.1992,-7.1992,-7.1992,-7.1992,-7.1992,-7.1992,-7.1992,-7.1992,-7.1992,-7.1992,-7.1992,-7.1992,-7.1992,-7.1992,-7.1992,-7.2031,-7.2109,-7.2031,-7.2031,-7.2109,-7.2773,-7.3594,-7.4492,-7.5351,-7.6211,-7.7109,0.0,0.0,-7.9531,-7.9687,-8.0429,0.0,0.0,0.0,-8.2304,-8.2265,-8.2265,-8.2265,-8.2065,-8.1976,-8.1976,-8.1753,-8.1656,-8.1648,-8.1469,-8.1359,-8.1359,-8.1181,-8.1093,-8.1093,-8.1093,0.0,0.0,-8.1093,-8.1093,-8.1093,-8.1093,-8.1093,-8.1208,-8.19,-8.2247,-8.2516,0.0,0.0,0.0,0.0,0.0,0.0,-5.9511,-6.0089,-6.0973,-6.2858,-6.2935,-6.2704,-6.2358,-6.155,-6.0512,-5.9127,0.0,0.0,0.0,0.0,0.0,0.0,0.0,0.0,0.0,0.0,-5.8544,-5.8672,-5.9023,0.0,0.0,0.0,0.0,0.0,0.0,-6.0703,-6.0742,-6.1055,0.0,0.0,0.0,0.0,0.0,0.0,0.0,0.0,0.0,0.0,-6.6914,-6.6914,-6.918,-7.1992,-7.1992,-7.1992,-7.1992,-7.1992,-7.1992,-7.1992,-7.1992,-7.1992,-7.1992,-7.1992,-7.1992,-7.1992,-7.1992,-7.1992,-7.1992,-7.1992,-7.1992,-7.1992,-7.1992,-7.1992,-7.1992,-7.1992,-7.2305,-7.3008,-7.4414,-7.4883,-7.5625,-7.7031,-7.7187,0.0,0.0,0.0,-8.0429,0.0,0.0,0.0,-8.2304,-8.2304,-8.2304,-8.2304,-8.2221,-8.2175,-8.2175,-8.1984,-8.1878,-8.1878,-8.1695,-8.1582,-8.1582,-8.1359,-8.1285,-8.1271,-8.1161,0.0,0.0,-8.1093,-8.1093,-8.1131,-8.1631,-8.1823,-8.19,-8.2747,-8.3401,-8.3978,0.0,0.0,0.0,0.0,0.0,-5.8165,-6.0435,-6.1012,-6.1897,-6.3935,-6.3666,-6.3205,-6.2974,-6.2435,-6.1512,-6.0012,-5.9127,0.0,0.0,0.0,0.0,0.0,0.0,0.0,0.0,0.0,-5.8987,-5.9096,-5.9179,-5.9492,0.0,0.0,-6.0351,-6.0976,0.0,0.0,0.0,0.0,0.0,0.0,0.0,0.0,0.0,0.0,0.0,0.0,0.0,0.0,0.0,0.0,0.0,-7.164,-7.1914,-7.1992,-7.1992,-7.1992,-7.1992,-7.1992,-7.1992,-7.1992,-7.1992,-7.1992,-7.1992,-7.1992,-7.1992,-7.1992,-7.1992,-7.1992,-7.1992,-7.1992,-7.1992,-7.1992,-7.1992,-7.1992,-7.1992,-7.2539,-7.4023,-7.4453,-7.5234,-7.6992,0.0,-7.8515,0.0,-8.0312,0.0,0.0,0.0,0.0,-8.2304,-8.2304,-8.2304,-8.2304,-8.2304,-8.2304,-8.2304,-8.217,-8.211,-8.2107,-8.1883,-8.1805,-8.176,-8.1582,-8.1501,-8.1491,-8.1285,0.0,0.0,-8.137,-8.1439,-8.1554,-8.2362,-8.267,-8.2785,-8.367,-8.4362,-8.4939,0.0,0.0,0.0,0.0,0.0,0.0,-6.055,-6.1524,-6.2358,-6.3205,-6.3308,-6.3012,-6.2216,-6.2101,-6.1755,-6.0858,-5.9973,0.0,0.0,0.0,0.0,0.0,0.0,0.0,0.0,0.0,-5.8883,-5.8883,-5.9095,-5.9219,-5.9219,-5.9219,-5.9219,-5.9219,0.0,0.0,0.0,0.0,0.0,0.0,0.0,0.0,0.0,0.0,0.0,0.0,0.0,0.0,0.0,0.0,0.0,0.0,0.0,-7.1992,-7.1992,-7.1992,-7.1992,-7.1992,-7.1992,-7.1992,-7.1992,-7.1992,-7.1992,-7.1992,-7.1992,-7.1992,-7.1992,-7.1992,-7.1992,-7.1992,-7.1992,-7.1992,-7.1992,-7.1992,-7.1992,-7.2305,-7.3203,-7.4062,-7.5234,0.0,0.0,-8.0039,-8.0898,-8.1758,0.0,0.0,0.0,0.0,-8.2304,-8.2304,-8.2304,-8.2304,-8.2304,-8.2304,-8.2304,-8.2304,-8.2304,-8.2304,-8.2071,-8.1988,-8.1984,-8.1805,-8.168,0.0,0.0,0.0,0.0,-8.2029,-8.2285,-8.2362,-8.3247,-8.3593,-8.367,-8.4555,-8.4901,-8.5016,0.0,0.0,0.0,0.0,0.0,0.0,0.0,-6.1012,-6.1512,-6.2358,-6.1973,-6.1704,-6.2062,-6.1562,-6.1089,-6.0819,-6.055,0.0,0.0,0.0,0.0,0.0,0.0,0.0,0.0,-6.0194,-6.0573,-6.0681,-6.0814,-6.0898,-6.0898,-6.0898,-6.0898,-6.0898,-6.0898,-6.0898,0.0,0.0,0.0,0.0,0.0,0.0,0.0,0.0,0.0,0.0,0.0,0.0,0.0,0.0,0.0,0.0,0.0,0.0,0.0,-7.1992,-7.1992,-7.1992,-7.1992,-7.1992,-7.1992,-7.1992,-7.1992,-7.1992,-7.1992,-7.1992,-7.1992,-7.1992,-7.1992,-7.1992,-7.1992,-7.1992,-7.1992,-7.1992,-7.1992,-7.2305,-7.3164,-7.4062,0.0,-7.6172,-7.832,-7.9805,0.0,0.0,0.0,0.0,0.0,0.0,-8.2304,-8.2304,-8.2304,-8.2304,-8.2304,-8.2304,-8.2304,-8.2304,-8.2304,-8.2304,-8.2222,-8.2218,-8.2217,-8.1992,-8.1894,0.0,0.0,0.0,0.0,-8.2187,-8.241,-8.2439,-8.3939,-8.4478,-8.4593,-8.544,-8.5709,-8.5747,0.0,0.0,0.0,0.0,0.0,0.0,0.0,-6.0781,-6.0973,-6.1562,-6.1127,-6.1012,-6.155,-6.1127,-6.0781,-6.0781,-6.0781,0.0,0.0,0.0,0.0,0.0,0.0,0.0,-6.0281,-6.0948,-6.1489,-6.1919,-6.2449,-6.2695,-6.2695,-6.3008,-6.2812,-6.2187,-6.2187,-6.1992,0.0,0.0,0.0,0.0,0.0,0.0,-6.1719,0.0,0.0,0.0,0.0,0.0,0.0,0.0,0.0,0.0,0.0,0.0,0.0,0.0,-7.1992,-7.1992,-7.1992,-7.1992,-7.1992,-7.1992,-7.1992,-7.1992,-7.1992,-7.1992,-7.1992,-7.1992,-7.1992,-7.1992,-7.1992,-7.1992,-7.1992,-7.1992,-7.1992,-7.2305,-7.3164,-7.4062,0.0,-7.7109,0.0,0.0,0.0,0.0,0.0,0.0,0.0,0.0,-8.2304,-8.2304,-8.2304,-8.2304,-8.2304,-8.2304,-8.2304,-8.2304,-8.2304,-8.2304,-8.2304,-8.2304,-8.2304,-8.2173,-8.2118,0.0,0.0,0.0,0.0,-8.2699,-8.3012,-8.3076,-8.4735,-8.5363,-8.544,-8.6286,-8.6594,-8.6632,0.0,0.0,0.0,0.0,0.0,0.0,0.0,-6.0781,-6.0781,-6.0781,-6.0781,-6.0781,-6.0781,-6.0781,-6.0781,-6.0781,0.0,0.0,0.0,0.0,0.0,0.0,0.0,0.0,-6.0896,-6.1213,-6.1834,-6.2696,-6.3763,-6.4297,-6.4336,-6.5117,-6.4648,-6.3086,-6.3086,-6.2617,-6.1797,0.0,0.0,0.0,0.0,-6.1719,0.0,0.0,0.0,0.0,0.0,0.0,0.0,0.0,0.0,0.0,0.0,0.0,0.0,0.0,0.0,0.0,0.0,-7.1992,-7.1992,-7.1992,-7.1992,-7.1992,-7.1992,-7.1992,0.0,-7.1992,-7.1992,-7.1992,-7.1992,-7.1992,-7.1992,-7.1992,-7.1992,-7.2305,-7.3164,-7.4101,-7.5937,0.0,-8.039,0.0,0.0,0.0,0.0,0.0,0.0,0.0,-8.2304,-8.2304,-8.2304,-8.2304,-8.2304,-8.2304,-8.2304,-8.2304,-8.2304,-8.2304,-8.2304,-8.2304,-8.2304,-8.2304,-8.2304,0.0,0.0,0.0,0.0,-8.3427,-8.4002,-8.4223,-8.5637,-8.6247,-8.6363,-8.7171,-8.7478,-8.7594,0.0,0.0,0.0,0.0,0.0,0.0,0.0,0.0,0.0,0.0,-6.0781,-6.0781,-6.0781,-6.0781,-6.0781,0.0,0.0,0.0,0.0,0.0,0.0,0.0,0.0,0.0,-6.1793,-6.2113,-6.2696,-6.3507,-6.4037,-6.4297,-6.4297,-6.4492,-6.4375,-6.3984,-6.3984,-6.3515,-6.2656,-6.1992,0.0,0.0,-6.1719,-6.1719,0.0,0.0,0.0,0.0,-6.293,-6.3984,0.0,0.0,0.0,0.0,0.0,0.0,0.0,0.0,-7.1015,-7.1133,-7.1836,0.0,-7.1992,-7.1992,-7.1992,-7.1992,0.0,-7.1992,-7.1992,-7.1992,-7.1992,-7.1992,-7.1992,-7.1992,-7.1992,-7.1992,-7.1992,-7.2305,-7.3164,-7.4609,-7.6601,-7.9375,-7.9883,-8.0625,0.0,0.0,0.0,0.0,0.0,-8.2304,-8.2304,-8.2304,-8.2304,-8.2304,-8.2304,-8.2304,-8.2304,-8.2304,-8.2304,-8.2304,-8.2304,-8.2304,-8.2304,-8.2304,-8.2304,0.0,0.0,0.0,-8.3038,-8.3797,-8.4813,-8.5978,-8.6794,-8.7517,-8.8094,-8.8325,-8.8402,-8.8402,0.0,0.0,0.0,0.0,0.0,0.0,0.0,0.0,0.0,0.0,0.0,-6.0781,-6.0781,-6.0781,0.0,0.0,0.0,0.0,0.0,0.0,0.0,0.0,0.0,-6.1639,-6.2101,-6.2773,-6.3546,-6.4402,-6.513,-6.5508,-6.5508,-6.5898,-6.5664,-6.4883,-6.4492,-6.3828,-6.2969,-6.25,-6.207,-6.1719,-6.1719,0.0,0.0,0.0,0.0,0.0,-6.3906,-6.4805,0.0,-6.6055,-6.6836,-6.7656,0.0,0.0,0.0,0.0,-7.0117,-7.0273,-7.1172,-7.1719,-7.1992,-7.1992,-7.1992,-7.1992,-7.1992,-7.1992,-7.1992,-7.1992,-7.1992,-7.1992,-7.1992,-7.1992,-7.1992,-7.1992,-7.2344,-7.3047,-7.4297,-7.5664,-7.7148,-7.8945,-7.9492,0.0,0.0,0.0,0.0,0.0,0.0,-8.2304,-8.2304,-8.2304,-8.2304,-8.2304,-8.2304,-8.2304,-8.2304,-8.2304,-8.2304,-8.2304,-8.2304,-8.2304,-8.2304,-8.2304,-8.2539,0.0,0.0,0.0,-8.4114,-8.5102,-8.5969,-8.6732,-8.7729,-8.8351,-8.8748,-8.9094,-8.9248,-8.9325,0.0,0.0,0.0,0.0,0.0,0.0,0.0,0.0,0.0,0.0,0.0,0.0,0.0,0.0,0.0,0.0,0.0,0.0,0.0,0.0,0.0,0.0,-6.1739,-6.2216,-6.2486,-6.3471,-6.4441,-6.5303,-6.6499,-6.7031,-6.6914,-6.7773,-6.7344,-6.5742,-6.4883,-6.4023,-6.3203,-6.3047,-6.25,-6.1719,-6.1719,0.0,0.0,0.0,0.0,0.0,0.0,0.0,0.0,-6.664,-6.6914,-6.7031,-6.7773,0.0,0.0,0.0,0.0,0.0,-7.043,-7.1328,-7.1992,-7.1992,-7.1992,-7.1992,-7.1992,-7.1992,-7.1992,-7.1992,-7.1992,-7.1992,-7.1992,-7.1992,-7.1992,-7.1992,-7.2851,0.0,-7.5664,-7.664,-7.7617,-7.875,-7.9375,0.0,0.0,0.0,0.0,0.0,0.0,-8.2304,-8.2304,-8.2304,-8.2304,-8.2304,-8.2304,-8.2304,-8.2304,-8.2304,-8.2304,-8.2304,-8.2304,-8.2383,-8.25,-8.25,-8.2969,-8.3789,0.0,0.0,-8.5195,-8.6558,-8.7153,-8.7378,-8.8734,-8.9188,-8.9195,-8.9888,-9.0107,-9.021,0.0,0.0,0.0,0.0,0.0,0.0,0.0,0.0,0.0,0.0,0.0,0.0,0.0,0.0,0.0,0.0,0.0,0.0,0.0,0.0,0.0,-6.2045,-6.2084,-6.2755,-6.4205,-6.4674,-6.5342,-6.6192,-6.7395,-6.7617,-6.6914,-6.7773,-6.7656,-6.664,-6.5781,-6.4922,-6.4062,-6.332,-6.25,-6.1719,-6.1719,0.0,0.0,0.0,0.0,0.0,0.0,0.0,0.0,-6.6836,-6.6914,-6.6914,-6.707,0.0,0.0,0.0,0.0,0.0,-7.0273,-7.1328,-7.1992,-7.1992,-7.1992,-7.1992,-7.1992,-7.1992,-7.1992,-7.1992,-7.1992,-7.1992,-7.1992,-7.1992,-7.1992,-7.1992,-7.3359,-7.4765,0.0,0.0,-7.8047,-8.0351,0.0,0.0,0.0,0.0,0.0,0.0,0.0,-8.2304,-8.2304,-8.2304,-8.2304,-8.2304,-8.2304,-8.2304,-8.2304,-8.2304,-8.2304,-8.2304,-8.2304,-8.2695,-8.3398,-8.3398,-8.3867,-8.4687,0.0,-8.5195,-8.6054,-8.6792,-8.795,-8.932,-9.0088,-9.0647,-9.1086,-9.1188,-9.1138,-9.1018,0.0,0.0,0.0,0.0,0.0,0.0,0.0,0.0,0.0,0.0,0.0,0.0,0.0,0.0,0.0,0.0,0.0,0.0,0.0,0.0,-6.1755,-6.3044,-6.3067,-6.3589,-6.4829,-6.5543,-6.6351,-6.7209,-6.7876,-6.8203,-6.8242,-6.8203,-6.7734,-6.6875,-6.6484,-6.582,-6.4961,-6.4062,-6.3203,-6.2383,0.0,0.0,0.0,0.0,0.0,0.0,0.0,0.0,0.0,0.0,-6.6914,-6.6914,-6.6914,0.0,0.0,0.0,0.0,0.0,-6.9726,-7.0664,-7.1406,-7.1875,-7.2344,-7.2578,-7.2109,-7.1992,-7.1992,-7.1992,-7.1992,-7.1992,-7.1992,-7.2383,-7.3008,-7.3945,0.0,-7.5625,-7.6484,-7.7344,-7.8515,0.0,0.0,0.0,0.0,0.0,0.0,0.0,0.0,0.0,-8.2304,-8.2304,-8.2304,-8.2304,-8.2304,-8.2304,-8.2304,-8.2304,-8.2304,-8.2304,-8.2773,-8.3203,-8.3633,-8.4101,-8.4765,-8.5586,0.0,-8.6094,-8.6953,-8.7686,-8.8633,-8.9788,-9.0507,-9.11,-9.1488,-9.1392,-9.1264,-9.121,0.0,0.0,0.0,0.0,0.0,0.0,0.0,0.0,0.0,0.0,0.0,0.0,0.0,0.0,0.0,0.0,0.0,0.0,0.0,-6.1318,-6.2118,-6.3798,-6.3901,-6.4398,-6.5381,-6.6373,-6.724,-6.7907,-6.8509,-6.8984,-6.9375,-6.8359,-6.7539,-6.6914,-6.6914,-6.6406,-6.5547,-6.4687,-6.3906,-6.3281,0.0,0.0,0.0,0.0,0.0,0.0,0.0,0.0,0.0,0.0,0.0,0.0,0.0,0.0,0.0,-6.7148,-6.7695,-6.8437,-6.9492,-7.039,-7.1172,-7.1836,-7.25,-7.2812,-7.2148,-7.1992,-7.1992,-7.1992,-7.1992,-7.207,-7.2265,-7.3008,-7.4101,-7.5664,-7.5898,-7.6211,-7.707,-7.7969,0.0,0.0,0.0,0.0,0.0,0.0,0.0,0.0,0.0,0.0,-8.2304,-8.2304,-8.2304,-8.2304,-8.2304,-8.2304,-8.2304,-8.25,-8.2617,-8.2617,-8.3281,-8.3828,-8.4219,-8.4883,-8.5664,-8.6484,-8.6484,-8.6875,-8.7578,-8.8359,-8.9133,-8.987,-9.0729,-9.1261,-9.154,-9.1297,-9.121,-9.121,0.0,0.0,0.0,0.0,0.0,0.0,0.0,0.0,0.0,0.0,0.0,0.0,0.0,0.0,0.0,0.0,0.0,0.0,0.0,-6.1404,-6.2275,-6.3995,-6.4205,-6.4926,-6.6276,-6.7309,-6.7829,-6.7907,-6.9641,-7.0156,-6.9375,-6.7734,-6.6953,-6.6914,-6.6914,-6.6406,-6.5547,-6.4687,-6.4258,-6.414,-6.332,0.0,0.0,0.0,0.0,0.0,0.0,0.0,0.0,0.0,0.0,0.0,0.0,0.0,-6.707,-6.7851,-6.8164,-6.8555,-7.0156,-7.125,-7.1914,-7.1992,-7.2031,-7.207,-7.1992,-7.1992,-7.1992,-7.1992,-7.1992,-7.2265,-7.3047,-7.3906,-7.4805,-7.5742,-7.5898,-7.6211,-7.707,0.0,0.0,0.0,0.0,0.0,0.0,0.0,0.0,0.0,0.0,0.0,-8.2304,-8.2304,-8.2304,-8.2304,-8.2304,-8.2304,-8.2304,-8.3086,-8.3515,-8.3515,-8.3554,-8.4453,-8.6015,-8.6094,-8.6562,-8.7422,-8.7422,-8.7422,-8.7578,-8.8359,-8.9218,-9.0077,-9.0937,-9.1531,-9.1831,-9.1369,-9.121,-9.121,0.0,0.0,0.0,0.0,0.0,0.0,0.0,0.0,0.0,0.0,0.0,0.0,0.0,0.0,0.0,0.0,0.0,0.0,0.0,-6.2093,-6.296,-6.4171,-6.4804,-6.5621,-6.6683,-6.7601,-6.835,-6.8897,-7.0116,-7.0273,-6.9453,-6.8242,-6.7422,-6.6914,-6.6914,-6.6719,-6.6328,-6.4883,-6.4609,-6.5039,-6.414,-6.4336,0.0,0.0,0.0,0.0,0.0,0.0,0.0,0.0,-6.6914,-6.6914,-6.6914,-6.6914,-6.707,-6.793,-6.8594,-6.9375,-7.1055,-7.1758,-7.2148,-7.2656,-7.2383,-7.1992,-7.1992,-7.1992,-7.2148,-7.2695,-7.2812,-7.3242,-7.4648,-7.5195,-7.5703,-7.6562,-7.6719,-7.6992,0.0,0.0,0.0,0.0,0.0,0.0,0.0,0.0,0.0,0.0,0.0,0.0,-8.2304,-8.2304,-8.2304,-8.2304,-8.2304,-8.2304,-8.2304,-8.3164,-8.3867,-8.4414,-8.4961,-8.5547,-8.6211,-8.6758,-8.7187,-8.75,-8.75,-8.75,-8.7539,-8.7812,-8.8437,-8.9336,-9.0605,-9.1527,-9.2022,-9.1566,-9.1368,-9.1376,0.0,0.0,0.0,0.0,0.0,0.0,0.0,0.0,0.0,0.0,0.0,0.0,0.0,0.0,0.0,0.0,0.0,0.0,-6.1679,-6.2539,-6.3398,-6.4258,-6.5117,-6.6015,-6.6875,-6.7734,-6.8476,-6.9101,-6.9648,-6.9648,-6.9062,-6.8203,-6.7461,-6.6914,-6.6914,-6.6758,-6.6406,-6.5234,-6.5039,-6.5547,-6.4961,-6.5234,0.0,0.0,0.0,0.0,0.0,0.0,0.0,0.0,-6.6914,-6.6914,-6.6914,-6.6914,-6.7148,-6.8281,-6.9219,-7.0195,-7.1601,-7.2383,-7.2812,-7.289,-7.2656,-7.2422,-7.2422,-7.2422,-7.2578,-7.3164,-7.375,-7.4492,-7.5664,-7.6133,0.0,0.0,-7.7422,0.0,0.0,0.0,0.0,0.0,0.0,0.0,0.0,0.0,0.0,0.0,0.0,0.0,0.0,-8.2304,-8.2304,-8.2304,-8.2304,-8.2304,-8.2304,-8.3437,-8.4297,-8.4922,-8.6054,-8.6601,-8.664,-8.7226,-8.75,-8.75,-8.75,-8.75,-8.75,-8.75,-8.8125,-8.9257,-9.0498,-9.1475,-9.2154,-9.1772,-9.1565,-9.1475,0.0,0.0,0.0,0.0,0.0,0.0,0.0,0.0,-6.0819,-6.0819,-6.0819,0.0,0.0,0.0,0.0,0.0,0.0,0.0,-6.1679,-6.2539,-6.3398,-6.4258,-6.5156,-6.6015,-6.6875,-6.7734,-6.8203,-6.8203,-6.8203,-6.8203,-6.8164,-6.7305,-6.6914,-6.6914,-6.6875,-6.6406,-6.5625,-6.5586,-6.5586,-6.5625,-6.5586,-6.6094,-6.6914,0.0,0.0,0.0,0.0,0.0,0.0,0.0,-6.6914,-6.6914,-6.6914,-6.6914,-6.7226,-6.8984,-7.0078,-7.0898,-7.1797,-7.3281,-7.414,-7.2461,-7.2656,-7.3281,-7.3281,-7.3281,-7.3281,-7.332,-7.4687,-7.5898,-7.5898,-7.6601,0.0,-7.7226,0.0,0.0,0.0,0.0,0.0,0.0,0.0,0.0,0.0,0.0,0.0,0.0,0.0,0.0,0.0,-8.2304,-8.2304,-8.2304,-8.2304,-8.2304,-8.2304,-8.4023,-8.4883,-8.4922,-8.6679,-8.75,-8.75,-8.75,-8.75,-8.75,-8.75,-8.75,-8.75,-8.75,-8.8476,-9.0077,-9.0732,-9.1475,-9.2164,-9.1965,-9.1721,-9.1515,0.0,0.0,0.0,0.0,0.0,0.0,0.0,0.0,-6.2358,-6.1793,-6.1716,0.0,0.0,0.0,0.0,0.0,0.0,0.0,-6.1679,-6.3086,-6.4023,-6.4297,-6.5703,-6.664,-6.6875,-6.7148,-6.789,-6.9101,-6.9062,-6.875,-6.8164,-6.7305,-6.6914,-6.6875,-6.625,-6.6172,-6.6406,-6.4531,-6.4844,-6.6406,-6.5195,-6.5586,-6.6914,0.0,0.0,0.0,0.0,0.0,0.0,0.0,0.0,0.0,-6.6914,-6.6914,-6.7226,-6.8984,-6.9648,-7.039,-7.3086,-7.332,-7.293,-7.3633,-7.3086,-7.2539,-7.3164,-7.3281,-7.3633,-7.4883,-7.6015,-7.6797,-7.6797,-7.7539,0.0,0.0,0.0,0.0,0.0,0.0,0.0,0.0,0.0,0.0,0.0,0.0,0.0,0.0,0.0,0.0,0.0,-8.2304,-8.2304,-8.2304,-8.2304,-8.2578,-8.3203,-8.4336,-8.5195,-8.582,-8.6953,-8.75,-8.75,-8.75,-8.75,-8.75,-8.75,-8.75,-8.7539,-8.8125,-8.8984,-9.0078,-9.0894,-9.1711,-9.2448,-9.2208,-9.2048,-9.1987,0.0,0.0,0.0,0.0,0.0,0.0,-6.3243,-6.3308,-6.3012,-6.2216,-6.2101,-6.1793,0.0,0.0,0.0,-6.1265,-6.1364,-6.1504,-6.1679,-6.3008,-6.3789,-6.3789,-6.5469,-6.6562,-6.6875,-6.7226,-6.7773,-6.8476,-6.8437,-6.8164,-6.7695,-6.75,-6.7226,-6.6875,-6.6719,-6.6367,-6.582,-6.4922,-6.5078,-6.5859,-6.5469,-6.5976,-6.6914,0.0,0.0,0.0,0.0,0.0,0.0,0.0,0.0,0.0,-6.6484,-6.6601,-6.7305,-6.9375,-7.0195,-7.1055,-7.3828,-7.4101,-7.3633,-7.3984,-7.3281,-7.2734,-7.3633,-7.4062,-7.4726,-7.6133,-7.6836,-7.7305,-7.7656,-7.8164,0.0,0.0,0.0,0.0,0.0,0.0,0.0,0.0,0.0,0.0,0.0,0.0,0.0,0.0,0.0,0.0,0.0,-8.2304,-8.2304,-8.2304,-8.2304,-8.2734,-8.3594,-8.4453,-8.5351,-8.6211,-8.707,-8.75,-8.75,-8.75,-8.75,-8.75,-8.75,-8.75,-8.7578,-8.8359,-8.9219,-9.0078,-9.0976,-9.1836,-9.2578,-9.2404,-9.2291,-9.2169,0.0,0.0,0.0,0.0,0.0,0.0,-6.3512,-6.3538,-6.3243,-6.2447,-6.2255,-6.187,0.0,0.0,0.0,-6.1259,-6.1312,-6.1424,-6.1679,-6.2539,-6.3008,-6.3008,-6.4609,-6.5859,-6.664,-6.7539,-6.7578,-6.6797,-6.6953,-6.6992,-6.6914,-6.7695,-6.7656,-6.6914,-6.7656,-6.668,-6.4648,-6.6055,-6.5859,-6.4687,-6.6172,-6.6836,-6.6914,-6.6914,0.0,0.0,0.0,0.0,0.0,0.0,0.0,0.0,-6.5859,-6.6211,-6.7383,-6.9844,-7.1211,-7.2265,-7.4101,-7.5117,-7.5312,-7.3789,-7.3437,-7.3633,-7.4414,-7.5351,-7.625,-7.7031,0.0,-7.7578,-7.8359,-7.8633,0.0,0.0,0.0,0.0,0.0,0.0,0.0,0.0,0.0,0.0,0.0,0.0,0.0,0.0,0.0,0.0,0.0,-8.2304,-8.2304,-8.2304,-8.2304,-8.2773,-8.3711,-8.4492,-8.539,-8.6328,-8.7109,-8.75,-8.75,-8.75,-8.75,-8.75,-8.75,-8.75,-8.7578,-8.8437,-8.9297,-9.0078,-9.1054,-9.1914,-9.2617,-9.2617,-9.2448,-9.2233,0.0,0.0,0.0,0.0,0.0,0.0,-6.5243,-6.532,-6.5013,-6.4166,-6.3474,-6.2743,-6.1908,-6.1435,0.0,-6.1277,-6.1498,-6.1635,-6.1719,-6.2539,-6.3008,-6.3008,-6.4023,-6.4687,-6.4844,-6.5703,-6.6055,-6.5898,-6.7265,-6.7578,-6.6914,-6.7109,-6.707,-6.6875,-6.6367,-6.6211,-6.6289,-6.5273,-6.543,-6.6328,-6.6015,-6.6289,-6.6914,-6.6914,-6.6914,0.0,0.0,0.0,0.0,0.0,0.0,0.0,-6.5859,-6.6211,-6.7265,-6.914,-7.0312,-7.1523,-7.3945,-7.4258,-7.3945,-7.4258,-7.4336,-7.4375,-7.457,-7.5781,-7.6953,-7.7148,-7.7734,-7.8281,-7.8476,0.0,0.0,0.0,0.0,0.0,0.0,0.0,0.0,0.0,0.0,0.0,0.0,0.0,0.0,0.0,0.0,0.0,-8.2304,-8.2304,-8.2304,-8.2304,-8.2304,-8.3047,-8.4609,-8.4804,-8.5664,0.0,-8.7422,-8.75,-8.75,-8.75,-8.75,-8.75,-8.75,-8.75,-8.7617,-8.9101,-8.9844,-9.0156,-9.1719,-9.2422,-9.2617,-9.2617,-9.2577,-9.2495,0.0,0.0,0.0,0.0,0.0,0.0,0.0,0.0,-6.559,-6.4705,-6.3858,-6.3022,-6.2281,-6.1574,0.0,0.0,-6.1517,-6.1633,-6.1719,-6.2148,-6.2578,-6.2969,-6.3437,-6.3867,-6.4297,-6.4765,-6.4961,-6.4961,-6.5898,-6.6328,-6.6289,-6.6289,-6.6055,-6.5664,-6.6055,-6.6015,-6.5664,-6.5586,-6.582,-6.6289,-6.625,-6.6484,-6.6914,-6.6914,-6.6914,-6.6914,-6.6914,0.0,0.0,0.0,0.0,0.0,0.0,0.0,-6.7226,-6.8945,-7.0039,-7.1289,-7.3906,-7.3945,-7.332,-7.3359,-7.3984,-7.4609,-7.4609,-7.5937,-7.7187,-7.7187,-7.789,-7.8633,0.0,0.0,0.0,0.0,0.0,0.0,0.0,0.0,0.0,0.0,0.0,0.0,0.0,0.0,0.0,0.0,0.0,-8.2304,-8.2304,-8.2304,-8.2304,-8.2304,-8.2304,-8.3125,-8.4883,-8.4883,-8.5781,-8.75,-8.75,-8.75,-8.75,-8.75,-8.75,-8.75,-8.75,-8.7734,-8.8164,-8.9453,-9.0234,-9.0742,-9.207,-9.2617,-9.2617,-9.2617,-9.2617,-9.2617,0.0,0.0,0.0,0.0,0.0,0.0,0.0,0.0,0.0,-6.4936,-6.3935,-6.3107,-6.252,-6.1625,-6.1154,0.0,0.0,0.0,-6.168,-6.1719,-6.2031,-6.2734,-6.2773,-6.3125,-6.3828,-6.3984,-6.4062,-6.4062,-6.4062,-6.4531,-6.539,-6.539,-6.5,-6.4375,-6.5976,-6.5859,-6.4648,-6.6211,-6.6484,-6.5898,-6.6601,-6.6914,-6.6914,-6.6914,-6.6992,-6.7109,-6.6953,-6.6992,-6.6953,-6.5937,0.0,0.0,0.0,0.0,-6.7226,-6.8828,-6.9961,-7.1211,-7.3515,-7.3711,-7.3125,-7.2383,-7.3437,-7.4609,-7.4609,-7.5937,-7.7187,-7.7187,-7.8008,0.0,0.0,0.0,0.0,0.0,0.0,0.0,0.0,0.0,0.0,0.0,0.0,0.0,0.0,0.0,0.0,0.0,0.0,-8.2304,-8.2304,-8.2304,-8.2304,-8.2304,-8.2304,-8.3125,-8.4883,-8.4883,-8.5781,-8.75,-8.75,-8.75,-8.75,-8.75,-8.75,-8.75,-8.75,-8.7969,-8.8789,-8.9648,-9.0508,-9.1406,-9.2265,-9.2617,-9.2617,-9.2617,-9.2617,-9.2617,0.0,0.0,0.0,0.0,0.0,0.0,0.0,0.0,0.0,0.0,-6.432,-6.3255,-6.3176,-6.2017,-6.1271,-6.1312,-6.1525,-6.1679,-6.1719,0.0,0.0,-6.1875,-6.1875,-6.1914,-6.2031,-6.2773,-6.3164,-6.3164,-6.3164,-6.3633,-6.4453,-6.4453,-6.4414,-6.4336,-6.5312,-6.5625,-6.5508,-6.6484,-6.6836,-6.6758,-6.6836,-6.6914,-6.6914,-6.6914,-6.7383,-6.793,-6.7187,-6.7383,-6.7773,-6.6133,-6.6172,0.0,0.0,0.0,-6.7109,-6.8086,-6.9492,-7.0937,-7.2031,-7.2812,-7.3281,-7.3164,-7.3867,-7.4609,0.0,0.0,-7.7187,0.0,0.0,0.0,0.0,0.0,0.0,0.0,0.0,0.0,0.0,0.0,0.0,0.0,0.0,0.0,0.0,0.0,0.0,0.0,0.0,0.0,-8.2304,-8.2304,-8.2304,-8.2304,-8.2304,-8.3125,-8.4883,-8.4883,-8.5781,-8.75,-8.75,-8.75,-8.75,-8.75,-8.75,-8.75,-8.75,-8.7969,-8.8789,-8.9648,-9.0508,-9.1406,-9.2265,-9.2617,-9.2617,-9.2617,-9.2617,-9.2617,0.0,0.0,0.0,0.0,0.0,0.0,0.0,0.0,0.0,0.0,0.0,-6.3912,-6.363,-6.2624,-6.1855,-6.1549,-6.1633,-6.1719,-6.1719,-6.1719,-6.1719,-6.1719,-6.1719,-6.1719,-6.1719,-6.207,-6.2265,-6.2265,-6.2265,-6.2734,-6.3555,-6.3555,-6.3555,-6.3633,-6.5,-6.5312,-6.5,-6.6836,-6.7617,-6.7656,-6.8164,-6.8633,-6.8984,-6.8476,-6.8828,-6.9492,-6.8594,-6.8242,-6.8086,-6.7305,-6.6992,-6.6836,-6.6445,0.0,0.0,0.0,-6.8359,-6.9687,-7.1523,-7.2656,-7.3281,-7.3281,-7.3594,-7.3984,-7.4492,-7.5586,-7.6601,0.0,0.0,0.0,0.0,0.0,0.0,0.0,0.0,0.0,0.0,0.0,0.0,0.0,0.0,0.0,0.0,0.0,0.0,0.0,0.0,-8.2304,-8.2304,-8.2304,-8.2304,-8.2304,-8.2773,-8.3633,-8.4883,-8.539,-8.625,-8.75,-8.75,-8.75,-8.75,-8.75,-8.75,-8.75,-8.75,-8.8242,-8.9453,-8.9844,-9.0781,-9.207,-9.2461,-9.2617,-9.2617,-9.2617,-9.2617,-9.2617,0.0,0.0,0.0,0.0,0.0,0.0,0.0,0.0,0.0,0.0,0.0,-6.449,-6.4093,0.0,0.0,0.0,-6.1796,-6.1719,-6.1719,-6.1719,-6.1719,-6.1719,-6.1719,-6.1719,-6.1719,-6.1719,-6.1719,-6.1719,-6.1719,-6.2265,-6.332,-6.3086,-6.3125,-6.3398,-6.4922,-6.5117,-6.4453,-6.7109,-6.8203,-6.8281,-6.9375,-7.0156,-7.0664,-7.0234,-7.0586,-7.125,-7.0351,-6.9687,-6.9101,-6.8633,-6.793,-6.7187,-6.6953,-6.6914,0.0,0.0,0.0,-6.875,-7.1328,-7.2305,-7.2734,-7.3203,-7.3281,-7.3476,0.0,0.0,-7.6094,0.0,0.0,0.0,0.0,0.0,0.0,0.0,0.0,0.0,0.0,0.0,0.0,0.0,0.0,0.0,0.0,0.0,0.0,0.0,0.0,-8.2304,-8.2304,-8.2304,-8.2304,-8.2304,-8.3164,-8.4023,-8.4883,-8.5976,-8.6875,-8.75,-8.75,-8.75,-8.75,-8.75,-8.75,-8.75,-8.75,-8.8437,-9.0,-9.0,-9.1015,-9.2617,-9.2617,-9.2617,-9.2617,-9.2617,-9.2617,-9.2617,0.0,0.0,0.0,0.0,0.0,0.0,0.0,0.0,0.0,0.0,0.0,-6.4783,-6.4733,-6.3587,-6.2753,-6.2758,-6.2101,-6.1719,-6.1719,-6.1719,-6.1719,-6.1719,-6.1719,0.0,-6.1719,-6.1719,-6.1719,-6.1719,-6.1719,-6.2578,-6.4219,-6.3398,-6.3437,-6.4258,-6.5195,-6.5117,-6.4453,-6.7109,-6.8203,-6.8359,-6.9961,-7.0664,-7.0781,-7.1562,-7.2422,-7.3047,-7.2187,-7.1836,-7.1562,-6.9883,-6.8789,-6.8008,-6.7148,-6.6914,-6.6914,0.0,0.0,0.0,-7.1328,-7.1445,0.0,-7.289,-7.3281,-7.332,0.0,0.0,0.0,0.0,0.0,0.0,0.0,0.0,0.0,0.0,0.0,0.0,0.0,0.0,0.0,0.0,0.0,0.0,0.0,0.0,0.0,0.0,0.0,-8.2304,-8.2304,-8.2304,-8.2304,-8.2304,-8.3164,-8.4023,-8.4883,-8.6562,-8.7461,-8.75,-8.75,-8.75,-8.75,-8.75,-8.75,-8.75,-8.75,-8.8437,-9.0,-9.0,-9.1015,-9.2617,-9.2617,-9.2617,-9.2617,-9.2617,-9.2617,-9.2617,0.0,0.0,0.0,0.0,0.0,0.0,0.0,0.0,0.0,0.0,0.0,0.0,0.0,-6.47,-6.4216,-6.3819,-6.3007,-6.2305,-6.1758,-6.1719,-6.1719,-6.1719,-6.1719,-6.1719,-6.1719,-6.1719,-6.1719,-6.1719,-6.1133,-6.1484,-6.2617,-6.1758,-6.1797,-6.2734,-6.4726,-6.5117,-6.4492,-6.7656,-6.8984,-6.918,-7.1445,-7.2695,-7.3242,-7.3555,-7.4219,-7.4844,-7.3984,-7.2969,-7.1914,-7.1289,-7.0156,-6.8867,-6.8008,-6.7734,-6.7617,-6.707,-6.7539,-6.8515,0.0,0.0,0.0,-7.2187,-7.2461,-7.2617,-7.3164,-7.3789,0.0,0.0,0.0,0.0,0.0,0.0,0.0,0.0,0.0,0.0,0.0,0.0,0.0,0.0,0.0,0.0,0.0,0.0,0.0,0.0,0.0,0.0,-8.2304,-8.2304,-8.2304,-8.2304,-8.3672,-8.5117,-8.6562,-8.7187,-8.75,-8.75,-8.75,-8.75,-8.75,-8.75,-8.75,-8.7539,-8.8047,-8.8945,-9.0039,-9.0586,-9.1523,-9.2617,-9.2617,-9.2617,-9.2617,-9.2617,-9.2617,-9.2617,0.0,0.0,0.0,0.0,0.0,0.0,0.0,0.0,-6.6014,-6.6161,0.0,0.0,0.0,0.0,-6.4984,-6.3945,-6.332,-6.2617,-6.1758,-6.1719,-6.1719,-6.1719,-6.1719,-6.1719,-6.1719,-6.1406,-6.1406,-6.1719,-6.0547,-6.0586,-6.168,-6.0547,-6.0469,-6.1367,-6.3672,-6.457,-6.4531,-6.7969,-6.9414,-6.9687,-7.2578,-7.3906,-7.4219,-7.4805,-7.539,0.0,0.0,0.0,-7.3242,-7.2969,0.0,-7.0625,-6.9765,-6.9101,-6.8398,-6.7226,-6.7305,-6.7969,-6.8828,0.0,0.0,0.0,0.0,-7.1719,-7.2305,0.0,0.0,0.0,0.0,0.0,0.0,0.0,0.0,0.0,0.0,0.0,0.0,0.0,0.0,0.0,0.0,0.0,0.0,0.0,0.0,0.0,0.0,0.0,-8.2304,-8.2304,-8.2578,-8.3164,-8.4297,-8.5742,-8.7461,-8.75,-8.75,-8.75,-8.75,-8.75,-8.75,-8.75,-8.75,-8.7578,-8.8672,-8.9453,-9.0078,-9.0937,-9.1797,-9.2617,-9.2617,-9.2617,-9.2617,-9.2617,-9.2617,-9.2617,0.0,0.0,0.0,0.0,0.0,0.0,0.0,0.0,-6.617,-6.6374,0.0,0.0,0.0,0.0,0.0,-6.3242,-6.3086,-6.2695,-6.1797,-6.1758,-6.1719,-6.1719,-6.1719,-6.1719,-6.1719,-6.0859,-6.082,-6.164,-5.9961,-6.0,-6.1562,-5.9922,-5.9609,-6.043,-6.2226,-6.3515,-6.457,-6.8047,-6.9492,-6.9805,0.0,-7.4062,-7.3515,0.0,0.0,0.0,-7.5898,-7.5898,0.0,-7.4883,0.0,0.0,0.0,-7.0859,-6.914,-6.7422,-6.6914,-6.707,0.0,0.0,0.0,0.0,0.0,0.0,-7.0703,0.0,0.0,0.0,0.0,0.0,0.0,0.0,0.0,0.0,0.0,0.0,0.0,0.0,0.0,0.0,0.0,0.0,0.0,0.0,0.0,0.0,0.0,-8.2304,-8.2304,-8.2304,-8.3086,-8.4844,-8.4883,-8.5742,-8.7461,-8.75,-8.75,-8.75,-8.75,-8.75,-8.75,-8.75,-8.75,-8.7578,-8.9258,-9.0,-9.0078,-9.0976,-9.1836,-9.2617,-9.2617,-9.2617,-9.2617,-9.2617,-9.2617,-9.2617,0.0,0.0,0.0,0.0,0.0,-6.6129,-6.6283,-6.6312,-6.6381,0.0,0.0,0.0,-6.679,-6.664,-6.6094,-6.4961,-6.4883,-6.4258,-6.2734,-6.2656,-6.2344,-6.1719,-6.1719,-6.1719,-6.1719,-6.0859,-6.0508,-6.0742,-5.9062,-5.8515,-5.8945,-5.8476,-5.8711,-5.9648,-6.1953,-6.3828,-6.543,-6.8281,0.0,-6.9687,-7.2539,-7.3906,0.0,0.0,0.0,0.0,0.0,-7.5898,-7.5781,0.0,-7.4453,-7.3984,0.0,0.0,-6.9219,-6.8164,-6.7383,-6.6953,-6.7187,0.0,0.0,0.0,0.0,0.0,0.0,0.0,0.0,0.0,0.0,0.0,0.0,0.0,0.0,0.0,0.0,0.0,0.0,0.0,0.0,0.0,0.0,0.0,0.0,0.0,0.0,0.0,-8.2304,-8.2304,-8.2304,-8.2304,-8.3086,-8.4844,-8.4883,-8.5742,-8.7461,-8.75,-8.75,-8.75,-8.75,-8.75,-8.75,-8.75,-8.75,-8.7578,-8.9258,-9.0,-9.0117,-9.1601,-9.2383,-9.2617,-9.2617,-9.2617,-9.2617,-9.2617,-9.2617,-9.2617,0.0,0.0,-6.6003,-6.608,-6.6153,-6.629,-6.6463,-6.6483,-6.6525,0.0,0.0,0.0,-6.6875,-6.6914,-6.6562,-6.5664,-6.5586,-6.5,-6.3633,-6.3203,-6.2773,-6.2265,-6.1875,-6.1523,-6.1172,-6.0312,-5.9883,-5.9883,-5.8203,-5.7734,-5.8437,-5.7695,-5.8008,-5.9297,-6.1484,-6.3437,-6.5273,-6.8594,-6.9961,0.0,-7.2773,0.0,0.0,-7.543,-7.6211,0.0,0.0,0.0,-7.6367,-7.5859,-7.543,0.0,0.0,0.0,0.0,-6.8945,-6.7851,-6.6914,-6.6914,0.0,0.0,0.0,0.0,0.0,0.0,0.0,0.0,0.0,0.0,0.0,0.0,0.0,0.0,0.0,0.0,0.0,0.0,0.0,0.0,0.0,0.0,0.0,0.0,0.0,0.0,-8.1719,-8.2109,-8.2304,-8.2304,-8.2304,-8.3086,-8.4844,-8.4883,-8.5742,-8.7461,-8.75,-8.75,-8.75,-8.75,-8.75,-8.75,-8.75,-8.75,-8.7578,-8.9258,-9.0,-9.0156,-9.1875,-9.2617,-9.2617,-9.2617,-9.2617,-9.2617,-9.2617,-9.2617,-9.2617,0.0,0.0,-6.6117,-6.6144,-6.6312,-6.6468,-6.6616,-6.6631,-6.669,0.0,-6.6914,-6.6914,-6.6914,-6.6914,-6.6601,-6.582,-6.5742,-6.543,-6.4648,-6.3867,-6.3359,-6.3164,-6.2383,-6.1523,-6.0586,-5.9648,-5.9219,-5.9219,-5.7461,-5.7383,-5.8867,-5.7539,-5.7773,-5.9414,-6.1172,-6.3008,-6.5,-6.8906,-7.0703,-7.1211,-7.3633,-7.414,0.0,0.0,-7.5976,-7.6015,-7.5937,-7.6445,-7.7187,-7.7187,-7.668,0.0,0.0,0.0,0.0,0.0,-6.8281,0.0,0.0,0.0,0.0,0.0,0.0,0.0,0.0,0.0,0.0,0.0,0.0,0.0,0.0,0.0,0.0,0.0,0.0,0.0,0.0,0.0,0.0,0.0,0.0,0.0,0.0,-8.0273,-8.0781,-8.0976,-8.1797,-8.2304,-8.2304,-8.2304,-8.3086,-8.4844,-8.4883,-8.5742,-8.7461,-8.75,-8.75,-8.75,-8.75,-8.75,-8.75,-8.75,-8.75,-8.7578,-8.9258,-9.0,-9.0156,-9.1875,-9.2617,-9.2617,-9.2617,-9.2617,-9.2617,-9.2617,-9.2617,-9.2617,-6.6069,-6.6195,-6.6381,-6.6464,-6.6537,-6.6619,-6.6791,-6.6833,-6.6873,-6.6875,-6.6914,-6.6914,-6.6914,-6.6914,-6.6836,-6.664,-6.664,-6.6562,-6.6406,-6.6211,-6.5508,-6.4101,-6.3867,-6.3047,-6.1484,-5.9961,-5.9219,-5.9219,-5.7461,-5.6758,-5.7148,-5.8203,-5.9219,-6.0273,-6.2695,-6.5156,-6.7539,-6.9023,-7.0859,-7.289,-7.4101,0.0,-7.4453,-7.5508,-7.6328,-7.6836,-7.6133,-7.6445,-7.7187,-7.7187,-7.7109,-7.668,0.0,0.0,0.0,-7.0273,0.0,0.0,0.0,0.0,0.0,0.0,0.0,0.0,0.0,0.0,0.0,0.0,0.0,0.0,0.0,0.0,0.0,0.0,0.0,0.0,0.0,0.0,0.0,0.0,0.0,0.0,0.0,-7.8906,-7.9531,-8.0898,-8.1797,-8.2304,-8.2304,-8.2304,-8.3086,-8.4844,-8.4883,-8.5742,-8.7461,-8.75,-8.75,-8.75,-8.75,-8.75,-8.75,-8.75,-8.75,-8.7578,-8.9258,-9.0,-9.0156,-9.1875,-9.2617,-9.2617,-9.2617,-9.2617,-9.2617,-9.2617,-9.2617,-9.2617,-6.622,-6.6399,-6.6516,-6.661,-6.6685,-6.6788,-6.6875,-6.6914,-6.6914,-6.6914,-6.7265,-6.7383,-6.6953,-6.7305,-6.7383,-6.6953,-6.7305,-6.7539,-6.7539,-6.7539,-6.6953,-6.5664,-6.4765,-6.3476,-6.1758,-6.0078,-5.8984,-5.8555,-5.7226,-5.7031,-5.789,-5.8359,-6.0156,-6.3008,-6.3437,-6.582,-6.9492,-7.0351,-7.1953,-7.3984,-7.4414,0.0,-7.5351,-7.6211,-7.7109,-7.7773,-7.7344,-7.7461,-7.7773,-7.7344,-7.6914,0.0,0.0,-7.4648,-7.3515,0.0,-6.9805,-6.8555,0.0,0.0,0.0,-6.5508,0.0,0.0,0.0,0.0,0.0,0.0,0.0,0.0,0.0,0.0,0.0,0.0,0.0,0.0,0.0,0.0,0.0,0.0,0.0,0.0,0.0,-7.7617,-7.8711,-8.0859,-8.1406,-8.1836,-8.2265,-8.2304,-8.3086,-8.4844,-8.4883,-8.5742,-8.7461,-8.75,-8.75,-8.75,-8.75,-8.75,-8.75,-8.75,-8.7734,-8.8164,-8.8984,-8.9844,-9.0703,-9.1601,-9.2226,-9.2617,-9.2617,-9.2617,-9.2617,-9.2617,-9.2617,-9.2617,-6.6412,-6.6576,-6.6678,-6.6678,-6.6789,-6.6914,-6.6914,-6.6914,-6.6953,-6.7148,-6.8047,-6.8398,-6.7695,-6.8398,-6.8633,-6.793,-6.8359,-6.875,-6.8906,-6.8789,-6.8359,-6.7656,-6.6133,-6.4375,-6.25,-6.0781,-5.9414,-5.8398,-5.7539,-5.7812,-5.918,-5.8828,-6.0937,-6.5078,-6.4492,-6.6562,0.0,0.0,0.0,-7.4609,0.0,-7.5664,-7.6953,-7.7656,-7.8476,-7.918,-7.8867,-7.8711,-7.8633,-7.8125,-7.7344,-7.6601,-7.6445,-7.5312,0.0,0.0,0.0,0.0,0.0,0.0,0.0,0.0,0.0,-6.582,0.0,0.0,0.0,0.0,0.0,0.0,0.0,0.0,0.0,0.0,0.0,0.0,0.0,0.0,0.0,0.0,0.0,0.0,0.0,-7.6875,-7.8476,-8.039,-8.1133,-8.164,-8.2031,-8.2226,-8.3086,-8.4844,-8.4883,-8.5742,-8.7461,-8.75,-8.75,-8.75,-8.75,-8.75,-8.75,-8.75,-8.7851,-8.8476,-8.8828,-8.9765,-9.1094,-9.1406,-9.1953,-9.2617,-9.2617,-9.2617,-9.2617,-9.2617,-9.2617,-9.2617,-6.656,-6.6737,-6.6874,-6.6874,-6.6875,-6.6914,-6.6914,-6.6914,-6.7187,-6.7969,-6.9414,-7.039,-7.0273,-7.1055,-7.1523,-7.1445,-7.0781,0.0,-7.1523,-7.0859,-7.0351,-7.0273,-6.9336,-6.7656,-6.5195,-6.3476,-6.1758,-6.0117,-5.9297,-5.9023,-5.9219,-6.0625,-6.1992,-6.3437,-6.707,0.0,0.0,0.0,-7.4414,0.0,-7.543,-7.7617,0.0,-8.0547,-8.1094,-8.1679,-8.0117,-7.957,-7.9687,0.0,-8.0,-7.914,0.0,-7.7539,-7.6133,-7.293,0.0,0.0,0.0,0.0,0.0,0.0,-6.5039,0.0,0.0,0.0,0.0,0.0,0.0,0.0,0.0,0.0,0.0,0.0,0.0,0.0,0.0,0.0,0.0,0.0,0.0,0.0,0.0,0.0,-7.9258,-7.8828,-8.1601,-8.2656,-8.1211,-8.1875,-8.3086,-8.4844,-8.4883,-8.5742,-8.7461,-8.75,-8.75,-8.75,-8.75,-8.75,-8.75,-8.75,-8.7539,-8.7734,-8.9219,-8.9961,-9.0273,-9.1836,-9.25,-9.2617,-9.2617,-9.2617,-9.2617,-9.2617,-9.2617,-9.2617,-6.6785,-6.6833,-6.6914,-6.6914,-6.6914,-6.6914,-6.6914,-6.7344,-6.7969,-6.8828,-6.9961,-7.0508,-7.0039,-7.0742,-7.125,-7.125,0.0,-7.1836,0.0,0.0,-7.1211,-7.0703,-6.8945,-6.7226,-6.5625,-6.3906,-6.2656,-6.1914,-6.1055,-6.0898,0.0,0.0,-6.3711,-6.6094,-6.789,0.0,-7.1797,0.0,-7.5273,0.0,0.0,0.0,0.0,-8.0703,-8.039,-8.1445,-8.0703,-8.0469,-8.0429,0.0,-8.0351,0.0,0.0,0.0,0.0,0.0,0.0,0.0,0.0,0.0,0.0,0.0,0.0,0.0,-6.6953,0.0,-6.6914,0.0,0.0,0.0,0.0,0.0,0.0,0.0,0.0,0.0,0.0,0.0,0.0,0.0,0.0,0.0,0.0,0.0,0.0,0.0,0.0,-8.2304,-8.1054,-8.1836,-8.3086,-8.4844,-8.4883,-8.5742,-8.7461,-8.75,-8.75,-8.75,-8.75,-8.75,-8.75,-8.75,-8.7734,-8.8203,-8.8437,-8.9101,-9.0039,-9.0234,-9.0625,-9.1094,-9.1094,-9.1719,-9.2617,-9.2617,-9.2617,-9.2617,-6.6914,-6.6914,-6.6914,-6.6914,-6.6914,-6.6992,-6.7226,-6.7969,-6.8945,-7.0039,-7.1094,-7.164,-7.1289,-7.1992,0.0,0.0,-7.2851,-7.3359,0.0,0.0,-7.2539,-7.2148,-6.9687,-6.8008,-6.7383,-6.5195,-6.3945,-6.3711,-6.2851,-6.2734,0.0,0.0,-6.5078,-6.7539,-6.8711,-7.0508,-7.2695,0.0,-7.625,-7.8672,-7.8789,-8.1054,-8.4101,-8.1054,-8.0664,-8.164,-8.1172,-8.1133,-8.125,-8.0625,-8.0664,0.0,-7.8828,0.0,0.0,0.0,0.0,0.0,-7.2422,0.0,0.0,0.0,0.0,0.0,0.0,0.0,0.0,0.0,0.0,0.0,0.0,0.0,0.0,0.0,0.0,0.0,0.0,0.0,0.0,0.0,0.0,0.0,0.0,0.0,0.0,0.0,0.0,0.0,-8.0703,-8.1484,-8.2851,-8.4844,-8.4883,-8.5742,-8.7461,-8.75,-8.75,-8.75,-8.75,-8.75,-8.75,-8.75,-8.7812,-8.8359,-8.8008,-8.8515,-8.9609,-8.9219,-8.9414,-9.0,-9.0,-9.0781,-9.1914,-9.2148,-9.2383,-9.2617,-6.6914,-6.6914,-6.6914,-6.6914,-6.6914,-6.7187,-6.8047,-6.8828,-6.9961,-7.1719,0.0,0.0,0.0,0.0,0.0,0.0,0.0,-7.5781,-7.582,0.0,-7.4883,-7.5703,-7.3242,-7.1836,0.0,-6.8515,-6.6367,-6.5508,-6.4648,-6.4219,-6.4297,0.0,0.0,0.0,-7.0039,-7.1484,-7.1094,-7.6172,-7.7422,-7.6211,-7.8672,-7.9765,-8.0156,0.0,-8.3476,-8.3281,-8.1601,0.0,0.0,-8.2226,-8.1679,0.0,0.0,0.0,0.0,0.0,0.0,0.0,0.0,0.0,0.0,-7.0625,0.0,0.0,0.0,0.0,-6.6914,0.0,0.0,0.0,0.0,0.0,0.0,0.0,0.0,0.0,0.0,0.0,0.0,0.0,0.0,0.0,0.0,0.0,0.0,0.0,0.0,0.0,-7.9883,-8.0586,-8.2226,-8.4804,-8.4883,-8.5742,-8.7461,-8.75,-8.75,-8.75,-8.75,-8.75,-8.75,-8.75,-8.75,-8.7578,-8.832,-8.8672,-8.8789,-8.9609,-8.9961,-9.0,-9.0,-9.0039,-9.0195,-9.1015,-9.1875,-9.2734,-6.6914,-6.6914,-6.6914,-6.6914,-6.6914,-6.7383,-6.8828,-6.9726,-7.0898,0.0,-7.3359,0.0,0.0,-7.5312,-7.5703,0.0,0.0,-7.6758,-7.6758,-7.6484,0.0,0.0,0.0,-7.1133,0.0,0.0,-6.7617,-6.7305,-6.7031,-6.6601,-6.6015,0.0,0.0,0.0,0.0,-7.1601,0.0,0.0,0.0,0.0,0.0,-8.1758,-8.2304,0.0,0.0,-8.1875,-8.1875,-8.2031,0.0,-8.2304,-8.2109,-8.164,-8.0508,-8.0547,-8.0508,-7.7969,-7.6992,0.0,0.0,0.0,-7.3125,-7.2578,0.0,0.0,0.0,0.0,0.0,0.0,0.0,0.0,0.0,0.0,0.0,0.0,0.0,0.0,0.0,0.0,0.0,0.0,0.0,0.0,0.0,0.0,0.0,0.0,0.0,0.0,0.0,-8.0547,-8.1914,-8.3984,-8.4609,-8.5469,-8.664,-8.7226,-8.75,-8.75,-8.75,-8.75,-8.75,-8.75,-8.75,-8.7539,-8.7773,-8.789,-8.7929,-8.8203,-8.8359,-8.8359,-8.8359,-8.8672,-8.9258,-9.0117,-9.0976,-9.1953,-6.6914,-6.6914,-6.6914,-6.6914,-6.7148,-6.7851,-6.9258,0.0,0.0,0.0,-7.4023,0.0,-7.543,0.0,-7.5742,0.0,-7.6875,-7.7461,-7.8047,-7.7812,0.0,-7.6445,-7.3945,0.0,0.0,0.0,0.0,0.0,0.0,-6.789,0.0,0.0,0.0,0.0,0.0,-7.1562,-7.3828,-7.4687,-7.6875,0.0,0.0,-8.1914,0.0,0.0,-8.2265,-8.2773,0.0,-8.2031,-8.2265,-8.1953,-8.1836,-8.1601,-8.0156,-8.0469,-8.0898,-7.8398,-7.7851,-7.7734,-7.6289,-7.5508,0.0,-7.4375,-7.418,0.0,-7.3515,0.0,0.0,0.0,0.0,0.0,0.0,0.0,0.0,0.0,0.0,0.0,0.0,0.0,0.0,0.0,0.0,0.0,0.0,0.0,0.0,0.0,0.0,0.0,0.0,0.0,-8.1484,-8.3554,-8.4453,-8.5312,-8.6172,-8.707,-8.75,-8.75,-8.75,-8.75,-8.75,-8.75,-8.75,-8.75,-8.75,-8.75,-8.75,-8.75,-8.75,-8.7539,-8.7812,-8.8242,-8.8828,-8.9687,-9.0937,-9.2383,-6.6914,-6.6914,-6.6992,-6.7031,-6.7734,-6.8594,0.0,0.0,-7.2734,0.0,-7.543,-7.6289,-7.7187,-7.7305,-7.7305,-7.7305,-7.7344,-7.8047,-7.9531,-7.9023,0.0,0.0,-7.7265,-7.5976,-7.5976,0.0,0.0,0.0,0.0,0.0,0.0,0.0,0.0,0.0,-6.9101,0.0,-7.4648,-7.5469,-7.7344,-7.9687,-7.9765,-8.0351,-8.1172,-8.1094,-8.3164,-8.5703,-8.2265,-8.1601,-8.2187,-8.1328,-8.1054,-8.0859,-8.0039,-7.9726,-7.9531,-7.875,-7.789,-7.707,-7.6211,-7.5937,-7.5898,-7.5898,0.0,0.0,0.0,0.0,-6.9883,0.0,0.0,0.0,0.0,0.0,0.0,0.0,0.0,0.0,0.0,0.0,0.0,0.0,0.0,0.0,0.0,0.0,0.0,0.0,0.0,0.0,0.0,0.0,-8.0976,-8.3476,-8.4414,-8.5312,-8.6133,-8.7031,-8.75,-8.75,-8.75,-8.75,-8.75,-8.75,-8.75,-8.75,-8.75,-8.75,-8.75,-8.75,-8.7539,-8.7656,-8.8398,-8.875,-8.8945,-8.9765,-9.164,-9.3828,-6.7031,-6.7422,-6.8086,-6.8711,-6.9492,-7.0351,0.0,0.0,0.0,0.0,-7.6328,-7.7187,-7.8086,-7.8711,-7.9062,-7.9062,-7.9648,0.0,0.0,0.0,0.0,-7.8867,-7.7578,-7.6875,-7.6875,-7.3437,0.0,-7.1992,0.0,0.0,-6.9101,0.0,0.0,0.0,0.0,0.0,-7.4609,-7.4844,-7.6797,-7.9765,-8.039,-8.1953,0.0,0.0,-8.332,-8.4961,-8.2734,-8.2109,-8.2265,-8.2031,-8.1523,-8.0976,-8.0742,-8.0234,-7.9531,-7.875,-7.8359,-7.7969,-7.7109,-7.6406,-7.5898,-7.5898,-7.5547,-7.5351,0.0,0.0,0.0,0.0,0.0,0.0,0.0,0.0,0.0,0.0,0.0,0.0,0.0,0.0,0.0,0.0,0.0,0.0,0.0,0.0,0.0,0.0,0.0,0.0,0.0,0.0,0.0,-8.2617,-8.4101,-8.5,-8.5234,-8.6758,-8.75,-8.75,-8.75,-8.75,-8.75,-8.75,-8.75,-8.75,-8.75,-8.75,-8.75,-8.75,-8.7851,-8.8398,-8.8633,-8.9492,-9.0664,-9.0898,-9.1797,-9.2929,-6.8672,-6.8633,-6.9258,-7.0898,0.0,0.0,-7.1992,-7.4453,0.0,-7.6953,-7.7773,0.0,-7.9492,-7.9648,-7.9687,-7.9687,-8.0156,0.0,-8.0156,0.0,0.0,-8.0195,-7.8945,-7.8125,-7.7773,-7.5469,0.0,-7.3125,0.0,0.0,-6.9961,0.0,0.0,0.0,0.0,-7.2578,-7.582,-7.6914,-7.8515,-8.0312,-8.0781,0.0,0.0,-8.2109,-8.2578,-8.3633,-8.2656,-8.2304,-8.2304,-8.2304,-8.1953,-8.1484,-8.1133,-8.0664,-8.0117,-7.9258,-7.8789,-7.8398,-7.789,-7.7148,-7.6484,-7.6484,-7.5898,-7.5547,-7.6289,-7.4805,-7.3515,0.0,0.0,0.0,0.0,0.0,0.0,0.0,0.0,0.0,0.0,0.0,0.0,0.0,0.0,0.0,0.0,0.0,0.0,0.0,0.0,0.0,0.0,0.0,0.0,-8.2304,-8.4375,-8.5273,-8.4883,-8.6992,-8.7851,-8.75,-8.75,-8.75,-8.75,-8.75,-8.75,-8.75,-8.75,-8.75,-8.7539,-8.789,-8.8281,-8.8789,-8.9531,-9.0664,-9.1875,-9.1875,-9.2187,-9.2617,-7.0898,-7.043,-7.082,-7.3203,0.0,0.0,0.0,-7.6055,0.0,-7.8515,0.0,-8.0156,-8.0937,-8.0429,-8.0039,-8.0039,0.0,-8.0625,-8.2031,-8.082,-8.0625,-8.1914,-8.0625,-7.9492,-7.8672,-7.7695,0.0,0.0,0.0,0.0,0.0,0.0,0.0,0.0,0.0,0.0,0.0,-7.9844,-8.0898,-8.1015,-8.1015,-8.1054,-8.1172,-8.1172,-8.164,-8.2304,-8.2304,-8.2304,-8.2304,-8.2304,-8.2304,-8.2187,-8.1406,-8.1094,-8.0859,-8.0078,-7.9297,-7.8633,-7.8515,-7.7969,-7.7344,-7.7226,-7.6055,-7.5351,-7.6836,-7.5273,-7.3945,-7.5547,-7.4492,-7.3594,0.0,0.0,0.0,0.0,0.0,0.0,0.0,0.0,0.0,0.0,0.0,0.0,0.0,0.0,0.0,0.0,0.0,0.0,0.0,0.0,0.0,-8.2265,-8.4726,0.0,-8.5078,0.0,-8.8242,-8.7656,-8.7539,-8.75,-8.75,-8.75,-8.75,-8.75,-8.75,-8.7578,-8.7695,-8.8398,-8.8828,-8.9219,-9.082,-9.1914,-9.2617,-9.2617,-9.2617,-9.2617,-7.1914,-7.2812,-7.4062,-7.5234,0.0,-7.8281,-7.75,-7.8008,-7.8515,-7.8515,-7.9844,-8.082,-8.0976,-8.1523,-8.1836,-8.1836,-8.1836,0.0,0.0,0.0,0.0,-8.0195,-8.0547,-8.0351,-7.9492,-7.8008,-7.7383,0.0,0.0,0.0,0.0,0.0,0.0,0.0,0.0,0.0,-7.8359,-7.9453,0.0,-8.1015,-8.1015,-8.1445,-8.207,-8.207,-8.2187,-8.2304,-8.2304,-8.2304,-8.2304,-8.2304,-8.2304,-8.2265,-8.2109,-8.1562,-8.0976,-8.082,-8.0156,-7.9336,-7.8672,-7.8398,-7.8086,-7.7383,-7.6953,-7.6836,-7.7148,-7.5742,-7.4648,-7.5703,-7.4492,-7.3789,-7.539,0.0,0.0,0.0,0.0,0.0,0.0,0.0,0.0,0.0,0.0,0.0,0.0,0.0,0.0,0.0,0.0,0.0,0.0,0.0,0.0,0.0,0.0,0.0,0.0,0.0,-8.7969,-8.8476,-8.7812,-8.75,-8.75,-8.75,-8.75,-8.75,-8.75,-8.789,-8.8515,-8.8633,-8.9531,-9.0937,-9.1953,-9.2461,-9.2617,-9.2617,-9.2617,-9.2617,-7.3515,-7.4375,-7.5703,-7.7031,0.0,0.0,0.0,-7.9805,-7.9961,-8.039,-8.1172,-8.1836,-8.2304,-8.2304,-8.2304,-8.2304,-8.2304,-8.2109,-8.1719,-8.164,-8.1445,-8.1054,-8.0586,0.0,-8.0351,-7.914,-7.8515,-7.8515,0.0,0.0,-7.6562,0.0,0.0,0.0,0.0,-7.8594,0.0,0.0,0.0,-8.164,-8.1172,-8.125,-8.1679,-8.2148,-8.2304,-8.2304,-8.2304,-8.2304,-8.2304,-8.2304,-8.2304,-8.2304,-8.2304,-8.1992,-8.1679,-8.1679,-8.1054,-8.0273,-7.9883,-7.9453,-7.8906,-7.8086,-7.7539,-7.7187,-7.7187,-7.6211,-7.5508,-7.6406,-7.5195,-7.4219,-7.5078,-7.5976,0.0,0.0,0.0,0.0,0.0,0.0,0.0,0.0,0.0,0.0,0.0,0.0,0.0,0.0,0.0,0.0,0.0,0.0,0.0,0.0,0.0,0.0,0.0,0.0,0.0,-8.8086,-8.7695,-8.75,-8.75,-8.75,-8.75,-8.7539,-8.7929,-8.8359,-8.8789,-8.9687,-9.082,-9.2031,-9.2422,-9.2617,-9.2617,-9.2617,-9.2617,-9.2617,-7.5586,-7.6289,-7.7422,0.0,-7.918,-7.9765,-8.1054,-8.1289,-8.1445,-8.1953,-8.2187,-8.2578,-8.3242,-8.2695,-8.2304,-8.2304,-8.2304,-8.2304,-8.2304,-8.164,-8.1484,-8.1992,-8.0898,-8.0508,-8.0976,-8.0312,-7.9765,0.0,0.0,0.0,0.0,0.0,0.0,0.0,0.0,0.0,0.0,0.0,-8.0586,-8.1953,-8.1289,-8.1094,-8.1367,-8.2031,-8.2304,-8.2304,-8.2304,-8.2304,-8.2304,-8.2304,-8.2304,-8.2304,-8.2304,-8.2304,-8.2304,-8.2304,-8.1797,-8.125,-8.1054,-8.0508,-7.9765,-7.8945,-7.8242,-7.7695,-7.7539,-7.6797,-7.6367,-7.707,-7.6094,-7.5156,-7.5156,-7.668,0.0,0.0,0.0,0.0,0.0,0.0,0.0,0.0,0.0,0.0,0.0,0.0,0.0,0.0,0.0,0.0,0.0,0.0,0.0,0.0,0.0,-8.6367,-8.6719,0.0,-8.8203,0.0,-8.7578,-8.75,-8.75,-8.75,-8.7578,-8.7773,-8.8437,-8.8906,-8.9375,-9.0937,-9.1992,-9.2617,-9.2617,-9.2617,-9.2617,-9.2617,-9.2617,-9.2617,-7.8281,-7.9414,0.0,0.0,0.0,0.0,-8.2148,-8.2187,-8.1914,-8.1211,-8.1797,-8.2344,-8.2422,-8.2344,-8.2304,-8.2304,-8.2304,-8.2304,-8.2304,-8.2226,-8.1875,-8.1133,-8.1719,-8.1719,-8.1015,-8.0937,-8.1211,0.0,0.0,0.0,0.0,0.0,0.0,0.0,0.0,0.0,0.0,-8.0078,-8.0234,-8.1094,-8.1015,-8.1484,-8.2187,-8.2265,-8.2304,-8.2304,-8.2304,-8.2304,-8.2304,-8.2304,-8.2304,-8.2304,-8.2304,-8.2304,-8.2304,-8.2304,-8.2226,-8.1992,-8.1211,-8.0937,-8.0664,-7.9805,-7.9531,-7.9258,-7.8555,-7.7695,-7.7109,-7.7187,-7.707,-7.6953,-7.6953,-7.6523,-7.6367,0.0,0.0,0.0,0.0,0.0,0.0,0.0,0.0,0.0,0.0,0.0,0.0,0.0,0.0,0.0,0.0,0.0,0.0,-8.4765,0.0,-8.6914,-8.8437,-8.789,0.0,-8.8594,-8.7851,-8.75,-8.75,-8.75,-8.789,-8.8594,-8.8672,-8.9609,-9.1133,-9.2109,-9.2539,-9.2617,-9.2617,-9.2617,-9.2617,-9.2617,-9.2617,-9.2617,0.0,0.0,0.0,0.0,0.0,0.0,0.0,-8.2304,-8.2187,-8.1836,-8.207,-8.2304,-8.2304,-8.2304,-8.2304,-8.2304,-8.2304,-8.2304,-8.2304,-8.2304,-8.2148,-8.1797,-8.1601,-8.1601,-8.1797,-8.1289,-8.1172,0.0,0.0,0.0,0.0,0.0,0.0,0.0,0.0,-8.1172,-8.0976,-8.0625,-8.0976,-8.1719,-8.1211,-8.1523,-8.2304,-8.2304,-8.2304,-8.2304,-8.2304,-8.2304,-8.2304,-8.2304,-8.2304,-8.2304,-8.2304,-8.2304,-8.2304,-8.2304,-8.2304,-8.2226,-8.1875,-8.1797,-8.1562,-8.0703,-8.0469,-8.0273,-7.9414,-7.8945,-7.8711,-7.8711,-7.832,-7.7656,-7.6601,-7.7383,-7.8125,0.0,0.0,0.0,0.0,0.0,0.0,0.0,0.0,0.0,0.0,0.0,0.0,0.0,0.0,0.0,0.0,0.0,0.0,-8.6445,0.0,-8.6992,-8.8672,-8.789,-8.7656,-8.7969,-8.7656,-8.75,-8.7539,-8.8008,-8.8984,-9.0273,-9.0273,-9.0937,-9.2109,-9.2461,-9.2617,-9.2617,-9.2617,-9.2617,-9.2617,-9.2617,-9.2929,-9.3398,-8.0469,0.0,-8.1367,0.0,-8.1875,-8.2304,-8.2304,-8.2304,-8.2304,-8.2304,-8.2304,-8.2304,-8.2304,-8.2304,-8.2304,-8.2304,-8.2304,-8.2304,-8.2304,-8.2304,-8.2304,-8.2304,-8.1719,0.0,-8.2304,-8.1719,-8.1367,-8.1367,-8.2617,0.0,0.0,-8.0664,0.0,0.0,-8.1758,-8.1562,-8.1015,-8.1015,-8.1367,-8.1875,-8.1523,-8.1758,-8.2304,-8.2304,-8.2304,-8.2304,-8.2304,-8.2304,-8.2304,-8.2304,-8.2304,-8.2304,-8.2304,-8.2304,-8.2304,-8.2304,-8.2304,-8.2304,-8.2304,-8.2304,-8.2148,-8.1523,-8.1367,-8.1133,-8.0273,-8.0078,-8.0,-7.9765,-7.9258,-7.8398,-7.6914,-7.8125,-7.914,-7.8594,0.0,0.0,0.0,0.0,0.0,0.0,0.0,-7.8594,0.0,0.0,0.0,0.0,0.0,0.0,0.0,0.0,0.0,0.0,0.0,0.0,0.0,-8.789,-8.75,-8.75,-8.75,-8.7617,-8.789,-8.8984,-9.0156,-9.1328,-9.1562,-9.2031,-9.2617,-9.2617,-9.2617,-9.2617,-9.2617,-9.2617,-9.2617,-9.289,-9.3359,-9.3945,-8.2265,-8.2265,-8.2265,-8.2265,-8.2304,-8.2304,-8.2304,-8.2304,-8.2304,-8.2304,-8.2304,-8.2304,-8.2304,-8.2304,-8.2304,-8.2304,-8.2304,-8.2304,-8.2304,-8.2304,-8.2304,0.0,0.0,-8.2304,-8.2304,-8.2304,-8.2265,-8.2265,0.0,0.0,-7.4687,-7.4687,-7.7422,-8.2265,-8.1406,-8.1015,-8.1015,-8.1015,-8.1015,-8.1094,-8.1953,-8.2304,-8.2304,-8.2304,-8.2304,-8.2304,-8.2304,-8.2304,-8.2304,-8.2304,-8.2304,-8.2304,-8.2304,-8.2304,-8.2304,-8.2304,-8.2304,-8.2304,-8.2304,-8.2304,-8.2304,-8.2304,-8.2265,-8.207,-8.1172,-8.0976,-8.0742,-7.9883,-7.9687,-7.9453,-7.8633,-7.8476,-7.8515,-7.8515,0.0,0.0,0.0,0.0,0.0,0.0,-8.3203,-8.4101,-8.2383,0.0,0.0,0.0,0.0,0.0,0.0,0.0,0.0,-8.625,-8.7031,0.0,-8.8672,-8.789,-8.75,-8.75,-8.75,-8.7929,-8.875,-9.0469,-9.1289,-9.1367,-9.2226,-9.2578,-9.2617,-9.2617,-9.2617,-9.2617,-9.2617,-9.2617,-9.2695,-9.3554,-9.3906,-9.4023,-8.2304,-8.2304,-8.2304,-8.2304,-8.2304,-8.2304,-8.2304,-8.2304,-8.2304,-8.2304,-8.2304,-8.2304,-8.2304,-8.2304,-8.2304,0.0,-8.2304,-8.2304,0.0,-8.2304,-8.2304,-8.2304,-8.2304,-8.2304,-8.2304,-8.2304,-8.1992,-8.1406,0.0,0.0,0.0,-8.0742,-8.0976,-8.1445,-8.1758,-8.1562,-8.1054,-8.164,-8.1875,-8.1914,-8.2187,-8.2304,-8.2304,-8.2304,-8.2304,-8.2304,-8.2304,-8.2304,-8.2304,-8.2304,-8.2304,-8.2304,-8.2304,-8.2304,-8.2304,-8.2304,-8.2304,-8.2304,-8.2304,-8.2304,-8.2304,-8.2304,-8.2304,-8.2226,-8.1953,-8.1875,-8.164,-8.0781,-8.0586,-8.0312,-7.9453,-7.9336,-7.9492,-8.0117,-7.9961,0.0,0.0,0.0,0.0,0.0,0.0,-8.1015,0.0,-8.3594,0.0,0.0,0.0,0.0,0.0,0.0,0.0,0.0,-8.7656,0.0,-8.8672,-8.789,-8.75,-8.75,-8.8047,-8.9062,-9.0508,-9.1054,-9.1601,-9.2187,-9.2461,-9.2617,-9.2617,-9.2617,-9.2617,-9.2617,-9.2617,-9.2969,-9.3515,-9.3789,-9.4648,-9.5703,-8.2304,-8.2304,-8.2304,-8.2304,-8.2304,-8.2304,-8.2304,-8.2304,-8.2304,-8.2304,-8.2304,-8.2304,-8.2304,-8.2304,0.0,-8.2304,-8.2304,-8.2304,-8.2304,-8.2304,-8.2304,-8.2304,-8.2304,-8.2304,-8.2304,0.0,0.0,-8.1484,-8.2578,-8.3125,-8.3125,-8.3125,-8.2539,-8.1523,-8.207,-8.1992,-8.1523,-8.207,-8.2304,-8.2304,-8.2304,-8.2304,-8.2304,-8.2304,-8.2304,-8.2304,-8.2304,-8.2304,-8.2304,-8.2304,-8.2304,-8.2304,-8.2304,-8.2304,-8.2304,-8.2304,-8.2304,-8.2304,-8.2304,-8.2304,-8.2304,-8.2304,-8.2304,-8.2304,-8.2304,-8.2304,-8.2148,-8.1601,-8.1484,-8.1211,-8.0351,-8.0195,-8.0273,-8.0469,-8.0508,-8.0703,-8.125,0.0,0.0,0.0,0.0,0.0,0.0,-8.4062,0.0,0.0,0.0,0.0,0.0,0.0,0.0,-8.7773,-8.7578,0.0,-8.8242,-8.7734,-8.75,-8.75,-8.8633,-8.9922,-9.1328,-9.164,-9.2109,-9.2617,-9.2617,-9.2617,-9.2617,-9.2617,-9.2617,-9.2617,-9.2969,-9.3437,-9.3984,-9.4648,-9.5586,-9.6523,-8.2304,-8.2304,-8.2304,0.0,-8.2304,0.0,-8.2304,-8.2304,-8.2304,-8.2304,-8.2304,-8.2304,-8.2304,-8.2304,-8.2304,-8.2304,0.0,0.0,0.0,-8.2304,-8.2304,-8.2304,-8.2304,-8.2304,-8.2304,-8.2304,-8.2304,-8.2304,-8.2304,-8.2304,-8.2304,-8.2304,-8.2304,-8.2304,-8.2304,-8.2304,-8.2304,-8.2304,-8.2304,-8.2304,-8.2304,-8.2304,-8.2304,-8.2304,-8.2304,-8.2304,-8.2304,-8.2304,-8.2304,-8.2304,-8.2304,-8.2304,-8.2304,-8.2304,-8.2304,-8.2304,-8.2304,-8.2304,-8.2304,-8.2304,-8.2304,-8.2304,-8.2304,-8.2304,-8.2304,-8.2304,-8.2304,-8.2304,-8.2304,-8.2031,-8.125,-8.1094,-8.082,-8.0,-7.9883,-7.9883,-7.9883,0.0,0.0,0.0,0.0,0.0,0.0,-8.5547,-8.5429,0.0,0.0,0.0,0.0,0.0,-8.875,-8.6367,-8.707,-8.75,-8.75,-8.75,-8.7578,-8.7695,-8.9336,-9.0547,-9.1406,-9.2226,-9.2617,-9.2617,-9.2617,-9.2617,-9.2617,-9.2656,-9.2695,-9.2773,-9.3633,-9.4023,-9.4297,-9.5898,-9.6523,-9.6679,0.0,0.0,-8.2304,-8.2304,-8.2304,-8.2304,-8.2304,-8.2304,-8.2304,-8.2304,-8.2304,-8.2304,-8.2304,-8.2304,-8.2304,-8.2304,-8.2304,-8.2304,-8.2304,-8.2304,-8.2304,-8.2304,-8.2304,-8.2304,-8.2304,-8.2304,-8.2304,-8.2304,-8.2304,-8.2304,-8.2304,-8.2304,-8.2304,-8.2304,-8.2304,-8.2304,-8.2304,-8.2304,-8.2304,-8.2304,-8.2304,-8.2304,-8.2304,-8.2304,-8.2304,-8.2304,-8.2304,-8.2304,-8.2304,-8.2304,-8.2304,-8.2304,-8.2304,-8.2304,-8.2304,-8.2304,-8.2304,-8.2304,-8.2304,-8.2304,-8.2304,-8.2304,-8.2304,-8.2304,-8.2304,-8.2304,-8.2304,-8.2304,-8.2304,-8.2226,-8.2031,-8.1992,-8.1914,-8.1719,-8.1679,-8.1679,-8.1679,-8.1289,0.0,0.0,-8.2187,-8.2461,-8.3789,-8.4101,-8.4883,0.0,0.0,0.0,0.0,-8.8086,-8.7812,-8.7226,-8.7383,-8.75,-8.75,-8.75,-8.8125,-8.9414,-9.0469,-9.1445,-9.2304,-9.25,-9.2617,-9.2617,-9.2617,-9.2617,-9.2656,-9.332,-9.3594,-9.3672,-9.4531,-9.5312,-9.5937,-9.6367,-9.6875,-9.7422,-8.2304,-8.2304,-8.2304,-8.2304,-8.2304,-8.2304,-8.2304,-8.2304,-8.2304,-8.2304,-8.2304,-8.2304,-8.2304,-8.2304,-8.2304,-8.2304,-8.2304,-8.2304,-8.2304,-8.2304,-8.2304,-8.2304,-8.2304,-8.2304,-8.2304,-8.2304,-8.2304,-8.2304,-8.2304,-8.2304,-8.2304,-8.2304,-8.2304,-8.2304,-8.2304,-8.2304,-8.2304,-8.2304,-8.2304,-8.2304,-8.2304,-8.2304,-8.2304,-8.2304,-8.2304,-8.2304,-8.2304,-8.2304,-8.2304,-8.2304,-8.2304,-8.2304,-8.2304,-8.2304,-8.2304,-8.2304,-8.2304,-8.2304,-8.2304,-8.2304,-8.2304,-8.2304,-8.2304,-8.2304,-8.2304,-8.2304,-8.2304,-8.2304,-8.2304,-8.2304,-8.2304,-8.2304,-8.2304,-8.2304,-8.2304,-8.2304,-8.2304,-8.1875,0.0,-8.2226,-8.1875,-8.1953,-8.289,-8.3359,-8.4179,-8.5625,0.0,0.0,-8.6914,-8.6562,-8.6679,-8.7461,-8.75,-8.75,-8.75,-8.7851,-8.8906,-9.0586,-9.1054,-9.1758,-9.2617,-9.2617,-9.2617,-9.2617,-9.2617,-9.2812,-9.3242,-9.3711,-9.414,-9.457,-9.5469,-9.6094,-9.6523,-9.6914,-9.7304,-9.7695,-8.2304,-8.2304,-8.2304,-8.2304,-8.2304,-8.2304,-8.2304,-8.2304,-8.2304,-8.2304,-8.2304,-8.2304,-8.2304,-8.2304,-8.2304,-8.2304,-8.2304,-8.2304,-8.2304,-8.2304,-8.2304,-8.2304,-8.2304,-8.2304,-8.2304,-8.2304,-8.2304,-8.2304,-8.2304,-8.2304,-8.2304,-8.2304,-8.2304,-8.2304,-8.2304,-8.2304,-8.2304,-8.2304,-8.2304,-8.2304,-8.2304,-8.2304,-8.2304,-8.2304,-8.2304,-8.2304,-8.2304,-8.2304,-8.2304,-8.2304,-8.2304,-8.2304,-8.2304,-8.2304,-8.2304,-8.2304,-8.2304,-8.2304,-8.2304,-8.2304,-8.2304,-8.2304,-8.2304,-8.2304,-8.2304,-8.2304,-8.2304,-8.2304,-8.2304,-8.2304,-8.2304,-8.2304,-8.2422,-8.2812,-8.2578,-8.2422,-8.2812,0.0,-8.2304,-8.2304,-8.2304,-8.2304,-8.2304,-8.2969,-8.3398,-8.3398,-8.4101,-8.457,0.0,-8.4687,-8.5508,-8.7265,-8.7422,-8.7617,-8.7851,-8.8672,-8.9844,-9.1289,-9.1445,-9.1875,-9.2617,-9.2617,-9.2617,-9.2617,-9.2734,-9.3203,-9.3906,-9.4179,-9.4726,-9.5469,-9.6328,-9.6679,-9.6758,-9.7461,-9.7695,-9.7695,-8.2304,-8.2304,-8.2304,-8.2304,-8.2304,-8.2304,-8.2304,-8.2304,-8.2304,-8.2304,-8.2304,-8.2304,-8.2304,-8.2304,-8.2304,-8.2304,-8.2304,-8.2304,-8.2304,-8.2304,-8.2304,-8.2304,-8.2304,-8.2304,-8.2304,-8.2304,-8.2304,-8.2304,-8.2304,-8.2304,-8.2304,-8.2304,-8.2304,-8.2304,-8.2304,-8.2304,-8.2304,-8.2304,-8.2304,-8.2304,-8.2304,-8.2304,-8.2304,-8.2304,-8.2304,-8.2304,-8.2304,-8.2304,-8.2304,-8.2304,-8.2304,-8.2304,-8.2304,-8.2304,-8.2304,-8.2304,-8.2304,-8.2304,-8.2304,-8.2304,-8.2304,-8.2304,-8.2304,-8.2304,-8.2304,-8.2304,-8.2304,-8.2304,-8.2304,-8.2304,-8.2304,-8.2304,-8.3008,-8.5234,-8.375,-8.3086,-8.5273,0.0,-8.2304,-8.2304,-8.2304,-8.2304,-8.2304,-8.2422,-8.25,-8.25,-8.2617,-8.3008,-8.375,-8.3789,-8.4609,-8.6367,-8.7109,-8.8164,-8.9609,-9.0469,-9.1015,-9.1328,-9.2031,-9.2461,-9.2617,-9.2617,-9.2617,-9.2656,-9.3398,-9.3789,-9.4023,-9.5508,-9.6172,-9.6367,-9.7187,-9.75,-9.7539,-9.7656,-9.7695,-9.7695,-8.3711,-8.3711,-8.3711,-8.3711,-8.3711,-8.3711,-8.3711,-8.3711,-8.3515,-8.3047,-8.3008,-8.2812,-8.2344,-8.2304,-8.2304,-8.2304,-8.2304,-8.2304,-8.2304,-8.2304,-8.2304,-8.2304,-8.2304,-8.2304,-8.2304,-8.2304,-8.2304,-8.2304,-8.2304,-8.2304,-8.2304,-8.2304,-8.2304,-8.2304,-8.2304,-8.2304,-8.2304,-8.2304,-8.2304,-8.2304,-8.2304,-8.2304,-8.2304,-8.2304,-8.2304,-8.2304,-8.2304,-8.2304,-8.2304,-8.2304,-8.2304,-8.2304,-8.2304,-8.2304,-8.2304,-8.2304,-8.2304,-8.2304,-8.2304,-8.2304,-8.2304,-8.2304,-8.2304,-8.2304,-8.2304,-8.2304,-8.2304,-8.2304,-8.2304,-8.2304,-8.2304,-8.2304,-8.2695,-8.3906,-8.3086,-8.2734,-8.3945,-8.3047,-8.2304,-8.2304,-8.2304,-8.2304,-8.2304,-8.2304,-8.2304,-8.2304,-8.2304,-8.2695,-8.3554,-8.3594,-8.4179,-8.5469,-8.6797,-8.8086,-8.9297,-8.9687,-9.0351,-9.1289,-9.1719,-9.2148,-9.2617,-9.2617,-9.2851,-9.332,-9.3711,-9.4414,-9.5351,-9.6172,-9.6758,-9.7187,-9.7578,-9.7695,-9.7695,-9.7695,-9.7695,-9.7695,-8.4883,-8.4883,-8.4883,-8.4883,-8.4883,-8.4883,-8.4883,-8.4883,-8.4648,-8.3984,-8.3906,-8.3633,-8.2969,-8.289,-8.2812,-8.2617,-8.2617,-8.2539,-8.2304,-8.2304,-8.2304,-8.2304,-8.2304,-8.2304,-8.2304,-8.2304,-8.2304,-8.2304,-8.2304,-8.2304,-8.2304,-8.2304,-8.2304,-8.2304,-8.2304,-8.2304,-8.2304,-8.2304,-8.2304,-8.2304,-8.2304,-8.2304,-8.2304,-8.2304,-8.2304,-8.2304,-8.2304,-8.2304,-8.2304,-8.2304,-8.2304,-8.2304,-8.2304,-8.2304,-8.2304,-8.2304,-8.2304,-8.2304,-8.2304,-8.2304,-8.2304,-8.2304,-8.2304,-8.2304,-8.2304,-8.2304,-8.2304,-8.2304,-8.2304,-8.2304,-8.2304,-8.2304,-8.25,-8.3125,0.0,-8.25,-8.3125,-8.2695,-8.2304,-8.2304,-8.2304,-8.2304,-8.2304,-8.2304,-8.2383,-8.2578,-8.2617,-8.2969,-8.3867,-8.3906,-8.4297,-8.5156,-8.6719,-8.7969,-8.8984,-8.9219,-8.9883,-9.1015,-9.1406,-9.1836,-9.2304,-9.2734,-9.3281,-9.3906,-9.4336,-9.5273,-9.6523,-9.6719,-9.7148,-9.7695,-9.7695,-9.7695,-9.7695,-9.7695,-9.7695,-9.7695,-8.4883,-8.4883,-8.4883,-8.4883,-8.4883,-8.4883,-8.4883,-8.4883,-8.4883,-8.4804,-8.4804,-8.4765,-8.4726,-8.4726,-8.4375,-8.3554,-8.3515,-8.3164,-8.2344,-8.2304,-8.2304,-8.2304,-8.2304,-8.2304,-8.2304,-8.2304,-8.2304,-8.2304,-8.2304,-8.2304,-8.2304,-8.2304,-8.2304,-8.2304,-8.2304,-8.2304,-8.2304,-8.2304,-8.2304,-8.2304,-8.2304,-8.2304,-8.2304,-8.2304,-8.2304,-8.2304,-8.2304,-8.2304,-8.2304,-8.2304,-8.2304,-8.2304,-8.2304,-8.2304,-8.2304,-8.2304,-8.2304,-8.2304,-8.2304,-8.2304,-8.2304,-8.2304,-8.2304,-8.2304,-8.2304,-8.2304,-8.2304,-8.2304,-8.2304,-8.2304,-8.2304,-8.2304,-8.3086,-8.5508,0.0,0.0,-8.5586,-8.3828,-8.2304,-8.2304,-8.2304,-8.2304,-8.2304,-8.2304,-8.2617,-8.3437,-8.3515,-8.3867,-8.4765,-8.4804,-8.5195,-8.6094,-8.6992,-8.8281,-8.9883,-9.0703,-9.0781,-9.0117,-9.1719,-9.2109,-9.1445,-9.3086,-9.3828,-9.3984,-9.5625,-9.6367,-9.6562,-9.7304,-9.7656,-9.7695,-9.7695,-9.7695,-9.7695,-9.7695,-9.7695,-9.7695,-8.6523,-8.6523,-8.6523,-8.6523,-8.6523,-8.6523,-8.6523,-8.6523,-8.6328,-8.5781,-8.5703,-8.5508,-8.4961,-8.4883,-8.4765,-8.4453,-8.4414,-8.4023,-8.3164,-8.3125,-8.2851,-8.2304,-8.2304,-8.2304,-8.2304,-8.2304,-8.2304,-8.2304,-8.2304,-8.2304,-8.2304,-8.2304,-8.2304,-8.2304,-8.2304,-8.2304,-8.2304,-8.2304,-8.2304,-8.2304,-8.2304,-8.2304,-8.2304,-8.2304,-8.2304,-8.2304,-8.2304,-8.2304,-8.2304,-8.2304,-8.2304,-8.2304,-8.2304,-8.2304,-8.2304,-8.2304,-8.2304,-8.2304,-8.2304,-8.2304,-8.2304,-8.2304,-8.2304,-8.2304,-8.2304,-8.2304,-8.2304,-8.2304,-8.2304,-8.2304,-8.2304,-8.2304,-8.2617,-8.3633,0.0,-8.2656,-8.3633,-8.2929,-8.2304,-8.2304,-8.2304,-8.2304,-8.2304,-8.2773,-8.3242,-8.3594,-8.4101,-8.4804,-8.5664,-8.6211,-8.664,-8.6992,-8.7344,-8.7812,-8.8437,-8.8789,-8.9297,-9.0,-9.1211,-9.2187,-9.2969,-9.414,-9.5,-9.5547,-9.6211,-9.6797,-9.7265,-9.7578,-9.7695,-9.7695,-9.7695,-9.7695,-9.7695,-9.7695,-9.7695,-9.7695,-8.75,-8.75,-8.75,-8.75,-8.75,-8.75,-8.75,-8.75,-8.7304,-8.6679,-8.6601,-8.6367,-8.5781,-8.5703,-8.5625,-8.5312,-8.5312,-8.4922,-8.4062,-8.375,-8.3203,-8.2344,-8.2304,-8.2304,-8.2304,-8.2304,-8.2304,-8.2304,-8.2304,-8.2304,-8.2304,-8.2304,-8.2304,-8.2304,-8.2304,-8.2304,-8.2304,-8.2304,-8.2304,-8.2304,-8.2304,-8.2304,-8.2304,-8.2304,-8.2304,-8.2304,-8.2304,-8.2304,-8.2304,-8.2304,-8.2304,-8.2304,-8.2304,-8.2304,-8.2304,-8.2304,-8.2304,-8.2304,-8.2304,-8.2304,-8.2304,-8.2304,-8.2304,-8.2304,-8.2304,-8.2304,-8.2304,-8.2304,-8.2304,-8.2304,-8.2304,-8.2304,-8.2304,-8.2304,-8.2304,-8.2304,-8.2304,-8.2304,-8.2304,-8.2304,-8.2539,-8.2695,-8.2695,-8.3515,-8.4101,-8.4414,-8.4961,-8.5703,-8.6562,-8.7187,-8.75,-8.75,-8.75,-8.75,-8.75,-8.7734,-8.8437,-8.9609,-9.1015,-9.2344,-9.3554,-9.4961,-9.5937,-9.6523,-9.6758,-9.7187,-9.7695,-9.7695,-9.7695,-9.7695,-9.7695,-9.7695,-9.7695,-9.7695,-9.7695,-9.7695,-8.75,-8.75,-8.75,-8.75,-8.75,-8.75,-8.75,-8.75,-8.75,-8.75,-8.75,-8.75,-8.75,-8.75,-8.7148,-8.6289,-8.6211,-8.5859,-8.4961,-8.4101,-8.3203,-8.2344,-8.2304,-8.2304,-8.2304,-8.2304,-8.2304,-8.2304,-8.2304,-8.2304,-8.2304,-8.2304,-8.2304,-8.2304,-8.2304,-8.2304,-8.2304,-8.2304,-8.2304,-8.2304,-8.2304,-8.2304,-8.2304,-8.2304,-8.2304,-8.2304,-8.2304,-8.2304,-8.2304,-8.2304,-8.2304,-8.2304,-8.2304,-8.2304,-8.2304,-8.2304,-8.2304,-8.2304,-8.2304,-8.2304,-8.2304,-8.2304,-8.2304,-8.2304,-8.2304,-8.2304,-8.2304,-8.2304,-8.2304,-8.2304,-8.2304,-8.2304,-8.2304,-8.2304,-8.2304,-8.2304,-8.2304,-8.2304,-8.2304,-8.2304,-8.3086,-8.3594,-8.3594,-8.4414,-8.5273,-8.6133,-8.6211,-8.6601,-8.7461,-8.75,-8.75,-8.75,-8.75,-8.75,-8.75,-8.8281,-8.8711,-8.875,-9.1367,-9.2617,-9.2695,-9.5312,-9.6523,-9.6562,-9.7344,-9.7695,-9.7695,-9.7695,-9.7695,-9.7695,-9.7695,-9.7695,-9.7695,-9.7695,-9.7695,-9.7695,-8.75,-8.75,-8.75,-8.75,-8.75,-8.75,-8.75,-8.75,-8.75,-8.75,-8.75,-8.75,-8.75,-8.75,-8.7383,-8.7148,-8.7109,-8.6758,-8.5859,-8.4414,-8.3476,-8.3203,-8.2617,-8.2304,-8.2304,-8.2304,-8.2304,-8.2304,-8.2304,-8.2304,-8.2304,-8.2304,-8.2304,-8.2304,-8.2304,-8.2304,-8.2304,-8.2304,-8.2304,-8.2304,-8.2304,-8.2304,-8.2304,-8.2304,-8.2304,-8.2304,-8.2304,-8.2304,-8.2304,-8.2304,-8.2304,-8.2304,-8.2304,-8.2304,-8.2304,-8.2304,-8.2304,-8.2304,-8.2304,-8.2304,-8.2304,-8.2304,-8.2304,-8.2304,-8.2304,-8.2304,-8.2304,-8.2304,-8.2304,-8.2304,-8.2304,-8.2304,-8.2304,-8.2304,-8.2304,-8.2304,-8.2304,-8.2304,-8.2539,-8.3125,-8.3437,-8.3828,-8.4453,-8.5312,-8.5937,-8.6172,-8.6758,-8.7226,-8.75,-8.75,-8.75,-8.75,-8.75,-8.7773,-8.8359,-8.8594,-8.9023,-8.9648,-9.2265,-9.3828,-9.4492,-9.6445,-9.7344,-9.7344,-9.7617,-9.7695,-9.7695,-9.7695,-9.7695,-9.7695,-9.7695,-9.7695,-9.7695,-9.7695,-9.7695,-9.7695,-8.75,-8.75,-8.75,-8.75,-8.75,-8.75,-8.75,-8.75,-8.75,-8.75,-8.75,-8.75,-8.75,-8.75,-8.75,-8.75,-8.75,-8.7148,-8.625,-8.5195,-8.4336,-8.3633,-8.3086,-8.2656,-8.2304,-8.2304,-8.2304,-8.2304,-8.2304,-8.2304,-8.2304,-8.2304,-8.2304,-8.2304,-8.2304,-8.2304,-8.2304,-8.2304,-8.2304,-8.2304,-8.2304,-8.2304,-8.2304,-8.2304,-8.2304,-8.2304,-8.2304,-8.2304,-8.2304,-8.2304,-8.2304,-8.2304,-8.2304,-8.2304,-8.2304,-8.2304,-8.2304,-8.2304,-8.2304,-8.2304,-8.2304,-8.2304,-8.2304,-8.2304,-8.2304,-8.2304,-8.2304,-8.2304,-8.2304,-8.2304,-8.2304,-8.2304,-8.2304,-8.2304,-8.2304,-8.2304,-8.2304,-8.2617,-8.3008,-8.3554,-8.4219,-8.4844,-8.5351,-8.6211,-8.6719,-8.6719,-8.7187,-8.75,-8.75,-8.75,-8.7656,-8.7969,-8.7969,-8.8359,-8.9219,-8.957,-9.0156,-9.1054,-9.2969,-9.4531,-9.5742,-9.7109,-9.7695,-9.7695,-9.7695,-9.7695,-9.7695,-9.7695,-9.7695,-9.7695,-9.7695,-9.7695,-9.7695,-9.7695,-9.75,-9.7226,-8.75,-8.75,-8.75,-8.75,-8.75,-8.75,-8.75,-8.75,-8.75,-8.75,-8.75,-8.75,-8.75,-8.75,-8.75,-8.75,-8.75,-8.7148,-8.6367,-8.625,-8.5469,-8.3789,-8.3633,-8.3203,-8.2304,-8.2304,-8.2304,-8.2304,-8.2304,-8.2304,-8.2304,-8.2304,-8.2304,-8.2304,-8.2304,-8.2304,-8.2304,-8.2304,-8.2304,-8.2304,-8.2304,-8.2304,-8.2304,-8.2304,-8.2304,-8.2304,-8.2304,-8.2304,-8.2304,-8.2304,-8.2304,-8.2304,-8.2304,-8.2304,-8.2304,-8.2304,-8.2304,-8.2304,-8.2304,-8.2304,-8.2304,-8.2304,-8.2304,-8.2304,-8.2304,-8.2304,-8.2304,-8.2304,-8.2304,-8.2304,-8.2304,-8.2304,-8.2304,-8.2304,-8.2304,-8.2344,-8.2422,-8.3086,-8.3672,-8.3828,-8.5234,-8.6211,-8.6328,-8.7031,-8.75,-8.75,-8.75,-8.75,-8.75,-8.7578,-8.7929,-8.8672,-8.8789,-8.9219,-9.0117,-9.0898,-9.1719,-9.25,-9.3515,-9.4844,-9.6406,-9.7304,-9.7695,-9.7695,-9.7695,-9.7695,-9.7695,-9.7695,-9.7695,-9.7695,-9.7695,-9.7656,-9.7578,-9.7578,-9.707,-9.6367,-8.75,-8.75,-8.75,-8.75,-8.75,-8.75,-8.75,-8.75,-8.75,-8.75,-8.75,-8.75,-8.75,-8.75,-8.75,-8.75,-8.75,-8.7422,-8.7226,-8.6562,-8.5742,-8.4648,-8.3945,-8.3203,-8.2304,-8.2304,-8.2304,-8.2304,-8.2304,-8.2304,-8.2304,-8.2304,-8.2304,-8.2304,-8.2304,-8.2304,-8.2304,-8.2304,-8.2304,-8.2304,-8.2304,-8.2304,-8.2304,-8.2304,-8.2304,-8.2304,-8.2304,-8.2304,-8.2304,-8.2304,-8.2304,-8.2304,-8.2304,-8.2304,-8.2304,-8.2304,-8.2304,-8.2304,-8.2304,-8.2304,-8.2304,-8.2304,-8.2304,-8.2304,-8.2304,-8.2304,-8.2304,-8.2304,-8.2304,-8.2304,-8.2304,-8.2304,-8.2304,-8.2304,-8.2304,-8.2539,-8.3203,-8.3476,-8.4101,-8.5469,-8.5976,-8.6484,-8.7148,-8.7383,-8.75,-8.75,-8.75,-8.75,-8.75,-8.8086,-8.8515,-8.8672,-8.9375,-9.0156,-9.1015,-9.1211,-9.1406,-9.1601,-9.3867,-9.5117,-9.5547,-9.7031,-9.7695,-9.7695,-9.7695,-9.7695,-9.7695,-9.7695,-9.7695,-9.7695,-9.7695,-9.7304,-9.6758,-9.6758,-9.6211,-9.5469,-8.75,-8.75,-8.75,-8.75,-8.75,-8.75,-8.75,-8.75,-8.75,-8.75,-8.75,-8.75,-8.75,-8.75,-8.75,-8.75,-8.75,-8.75,-8.75,-8.707,-8.6445,-8.5547,-8.4687,-8.3828,-8.2929,-8.25,-8.2304,-8.2304,-8.2304,-8.2304,-8.2304,-8.2304,-8.2304,-8.2304,-8.2304,-8.2304,-8.2304,-8.2304,-8.2304,-8.2304,-8.2304,-8.2304,-8.2304,-8.2304,-8.2304,-8.2304,-8.2304,-8.2304,-8.2304,-8.2304,-8.2304,-8.2304,-8.2304,-8.2304,-8.2304,-8.2304,-8.2304,-8.2304,-8.2304,-8.2304,-8.2304,-8.2304,-8.2304,-8.2304,-8.2304,-8.2304,-8.2304,-8.2304,-8.2304,-8.2304,-8.2304,-8.2304,-8.2304,-8.2304,-8.2656,-8.3086,-8.3554,-8.4336,-8.5195,-8.6094,-8.6562,-8.6992,-8.7461,-8.75,-8.75,-8.75,-8.75,-8.7656,-8.8047,-8.8476,-8.9062,-8.9922,-9.039,-9.1054,-9.1914,-9.1914,-9.1914,-9.1953,-9.3711,-9.5039,-9.5859,-9.6719,-9.7344,-9.7695,-9.7695,-9.7695,-9.7695,-9.7695,-9.7461,-9.7148,-9.7148,-9.6601,-9.5898,-9.5898,-9.5312,-9.4531,-8.75,-8.75,-8.75,-8.75,-8.75,-8.75,-8.75,-8.75,-8.75,-8.75,-8.75,-8.75,-8.75,-8.75,-8.75,-8.75,-8.75,-8.75,-8.75,-8.75,-8.7109,-8.625,-8.5351,-8.4492,-8.3633,-8.2734,-8.2304,-8.2304,-8.2304,-8.2304,-8.2304,-8.2304,-8.2304,-8.2304,-8.2304,-8.2304,-8.2304,-8.2304,-8.2304,-8.2304,-8.2304,-8.2304,-8.2304,-8.2304,-8.2304,-8.2304,-8.2304,-8.2304,-8.2304,-8.2304,-8.2304,-8.2304,-8.2304,-8.2304,-8.2304,-8.2304,-8.2304,-8.2304,-8.2304,-8.2304,-8.2304,-8.2304,-8.2304,-8.2304,-8.2304,-8.2304,-8.2304,-8.2304,-8.2304,-8.2304,-8.2304,-8.2422,-8.2539,-8.2539,-8.3242,-8.3867,-8.4023,-8.5273,-8.625,-8.6406,-8.707,-8.75,-8.75,-8.75,-8.75,-8.75,-8.7617,-8.8008,-8.8672,-8.8984,-8.9804,-9.125,-9.1445,-9.1875,-9.2578,-9.2617,-9.2617,-9.2617,-9.332,-9.4492,-9.6054,-9.6367,-9.6875,-9.75,-9.7656,-9.7617,-9.75,-9.75,-9.6992,-9.6289,-9.6289,-9.5742,-9.4961,-9.4804,-9.4297,-9.3554,-8.75,-8.75,-8.75,-8.75,-8.75,-8.75,-8.75,-8.75,-8.75,-8.75,-8.75,-8.75,-8.75,-8.75,-8.75,-8.75,-8.75,-8.75,-8.75,-8.75,-8.7109,-8.625,-8.5351,-8.4492,-8.3633,-8.2734,-8.2304,-8.2304,-8.2304,-8.2304,-8.2304,-8.2304,-8.2304,-8.2304,-8.2304,-8.2304,-8.2304,-8.2304,-8.2304,-8.2304,-8.2304,-8.2304,-8.2304,-8.2304,-8.2304,-8.2304,-8.2304,-8.2304,-8.2304,-8.2304,-8.2304,-8.2304,-8.2304,-8.2304,-8.2304,-8.2304,-8.2304,-8.2304,-8.2304,-8.2304,-8.2304,-8.2304,-8.2304,-8.2304,-8.2304,-8.2304,-8.2304,-8.2304,-8.2304,-8.2304,-8.2304,-8.2929,-8.3437,-8.3437,-8.414,-8.5,-8.5742,-8.6054,-8.6484,-8.7226,-8.7422,-8.75,-8.75,-8.75,-8.75,-8.75,-8.8125,-8.8594,-8.8672,-9.0117,-9.1054,-9.1289,-9.2031,-9.2461,-9.2617,-9.2617,-9.2617,-9.2617,-9.2734,-9.3281,-9.4297,-9.582,-9.6562,-9.6719,-9.7383,-9.7304,-9.664,-9.664,-9.6133,-9.539,-9.539,-9.4844,-9.3984,-9.3242,-9.289,-9.2734,-8.75,-8.75,-8.75,-8.75,-8.75,-8.75,-8.75,-8.75,-8.75,-8.75,-8.75,-8.75,-8.75,-8.75,-8.75,-8.75,-8.75,-8.75,-8.75,-8.75,-8.7344,-8.6953,-8.5625,-8.4726,-8.4336,-8.3008,-8.2304,-8.2304,-8.2304,-8.2304,-8.2304,-8.2304,-8.2304,-8.2304,-8.2304,-8.2304,-8.2304,-8.2304,-8.2304,-8.2304,-8.2304,-8.2304,-8.2304,-8.2304,-8.2304,-8.2304,-8.2304,-8.2304,-8.2304,-8.2304,-8.2304,-8.2304,-8.2304,-8.2304,-8.2304,-8.2304,-8.2304,-8.2304,-8.2304,-8.2304,-8.2304,-8.2304,-8.2304,-8.2304,-8.2304,-8.2304,-8.2304,-8.2304,-8.2304,-8.2461,-8.2929,-8.3359,-8.375,-8.4258,-8.5078,-8.5742,-8.6133,-8.6601,-8.707,-8.7461,-8.75,-8.75,-8.75,-8.75,-8.7695,-8.8125,-8.8515,-8.914,-9.0117,-9.0898,-9.1523,-9.1992,-9.2383,-9.2617,-9.2617,-9.2617,-9.2617,-9.2617,-9.2617,-9.332,-9.4648,-9.5429,-9.6289,-9.7187,-9.7539,-9.7226,-9.6484,-9.6484,-9.5703,-9.4453,-9.4453,-9.3945,-9.3125,-9.2562,-9.2395,-9.2345]},{"header":{"parameterUnit":"m.s-1","parameterCategory":1,"la1":30.6,"la2":28.766,"lo1":-90.7593,"lo2":-88.6598,"dx":0.0162,"dy":0.0183,"nx":116,"ny":114,"refTime":"2023-01-07T18:00:00:Z","depth":0,"parameterNumber":3,"parameterNumberName":"V-component_of_WINDS"},"data":[0.0,0.0,0.0,0.0,0.0,0.0,0.0,0.0,0.0,0.0,0.0,0.0,0.0,0.0,0.0,0.0,0.0,0.0,0.0,0.0,0.0,0.0,0.0,0.0,0.0,0.0,0.0,0.0,0.0,0.0,0.0,0.0,0.0,0.0,0.0,0.0,0.0,0.0,0.0,0.0,0.0,0.0,0.0,0.0,0.0,0.0,0.0,0.0,0.0,0.0,0.0,0.0,0.0,0.0,0.0,0.0,0.0,0.0,0.0,0.0,0.0,0.0,0.0,0.0,0.0,0.0,0.0,0.0,0.0,0.0,0.0,0.0,0.0,0.0,0.0,0.0,0.0,0.0,0.0,0.0,0.0,0.0,0.0,0.0,0.0,0.0,0.0,0.0,0.0,0.0,0.0,0.0,0.0,0.0,0.0,0.0,0.0,0.0,0.0,0.0,0.0,0.0,0.0,0.0,0.0,0.0,0.0,0.0,0.0,0.0,0.0,0.0,0.0,0.0,0.0,0.0,0.0,0.0,0.0,0.0,0.0,0.0,0.0,0.0,0.0,0.0,0.0,0.0,0.0,0.0,0.0,0.0,0.0,0.0,0.0,0.0,0.0,0.0,0.0,0.0,0.0,0.0,0.0,0.0,0.0,0.0,0.0,0.0,0.0,0.0,0.0,0.0,0.0,0.0,0.0,0.0,0.0,0.0,0.0,0.0,0.0,0.0,0.0,0.0,0.0,0.0,0.0,0.0,0.0,0.0,0.0,0.0,0.0,0.0,0.0,0.0,0.0,0.0,0.0,0.0,0.0,0.0,0.0,0.0,0.0,0.0,0.0,0.0,0.0,0.0,0.0,0.0,0.0,0.0,0.0,0.0,0.0,0.0,0.0,0.0,0.0,0.0,0.0,0.0,0.0,0.0,0.0,0.0,0.0,0.0,0.0,0.0,0.0,0.0,0.0,0.0,0.0,0.0,0.0,0.0,0.0,0.0,0.0,0.0,0.0,0.0,0.0,0.0,0.0,0.0,0.0,0.0,0.0,0.0,0.0,0.0,0.0,0.0,0.0,0.0,0.0,0.0,0.0,0.0,0.0,0.0,0.0,0.0,0.0,0.0,0.0,0.0,0.0,0.0,0.0,0.0,0.0,0.0,0.0,0.0,0.0,0.0,0.0,0.0,0.0,0.0,0.0,0.0,0.0,0.0,0.0,0.0,0.0,0.0,0.0,0.0,0.0,0.0,0.0,0.0,0.0,0.0,0.0,0.0,0.0,0.0,0.0,0.0,0.0,0.0,0.0,0.0,0.0,0.0,0.0,0.0,0.0,0.0,0.0,0.0,0.0,0.0,0.0,0.0,0.0,0.0,0.0,0.0,0.0,0.0,0.0,0.0,0.0,0.0,0.0,0.0,0.0,0.0,0.0,0.0,0.0,0.0,0.0,0.0,0.0,0.0,0.0,0.0,0.0,0.0,0.0,0.0,0.0,0.0,0.0,0.0,0.0,0.0,0.0,0.0,0.0,0.0,0.0,0.0,0.0,0.0,0.0,0.0,0.0,0.0,0.0,0.0,0.0,0.0,0.0,0.0,0.0,0.0,0.0,0.0,0.0,0.0,0.0,0.0,0.0,0.0,0.0,0.0,0.0,0.0,0.0,0.0,0.0,0.0,0.0,0.0,0.0,0.0,0.0,0.0,0.0,0.0,0.0,0.0,0.0,0.0,0.0,0.0,0.0,0.0,0.0,0.0,0.0,0.0,0.0,0.0,0.0,0.0,0.0,0.0,0.0,0.0,0.0,0.0,0.0,0.0,0.0,0.0,0.0,0.0,0.0,0.0,0.0,0.0,0.0,0.0,0.0,0.0,0.0,0.0,0.0,0.0,0.0,0.0,0.0,0.0,0.0,0.0,0.0,0.0,0.0,0.0,0.0,0.0,0.0,0.0,0.0,0.0,0.0,0.0,0.0,0.0,0.0,0.0,0.0,0.0,0.0,0.0,0.0,0.0,0.0,0.0,0.0,0.0,0.0,0.0,0.0,0.0,0.0,0.0,0.0,0.0,0.0,0.0,0.0,0.0,0.0,0.0,0.0,0.0,0.0,0.0,0.0,0.0,0.0,0.0,0.0,0.0,0.0,0.0,0.0,0.0,0.0,0.0,0.0,0.0,0.0,0.0,0.0,0.0,0.0,0.0,0.0,0.0,0.0,0.0,0.0,0.0,0.0,0.0,0.0,0.0,0.0,0.0,0.0,0.0,0.0,0.0,0.0,0.0,0.0,0.0,0.0,0.0,0.0,0.0,0.0,0.0,0.0,0.0,0.0,0.0,0.0,0.0,0.0,0.0,0.0,0.0,0.0,0.0,0.0,0.0,0.0,0.0,0.0,0.0,0.0,0.0,0.0,0.0,0.0,0.0,0.0,0.0,0.0,0.0,0.0,0.0,0.0,0.0,0.0,0.0,0.0,0.0,0.0,0.0,0.0,0.0,0.0,0.0,0.0,0.0,0.0,0.0,0.0,0.0,0.0,0.0,0.0,0.0,0.0,0.0,0.0,0.0,0.0,0.0,0.0,0.0,0.0,0.0,0.0,0.0,0.0,0.0,0.0,0.0,0.0,0.0,0.0,0.0,0.0,0.0,0.0,0.0,0.0,0.0,0.0,0.0,0.0,0.0,0.0,0.0,0.0,0.0,0.0,0.0,0.0,0.0,0.0,0.0,0.0,0.0,0.0,0.0,0.0,0.0,0.0,0.0,0.0,0.0,0.0,0.0,0.0,0.0,0.0,0.0,0.0,0.0,0.0,0.0,0.0,0.0,0.0,0.0,0.0,0.0,0.0,0.0,0.0,0.0,0.0,0.0,0.0,0.0,0.0,0.0,0.0,0.0,0.0,0.0,0.0,0.0,0.0,0.0,0.0,0.0,0.0,0.0,0.0,0.0,0.0,0.0,0.0,0.0,0.0,0.0,0.0,0.0,0.0,0.0,0.0,0.0,0.0,0.0,0.0,0.0,0.0,0.0,0.0,0.0,0.0,0.0,0.0,0.0,0.0,0.0,0.0,0.0,0.0,0.0,0.0,0.0,0.0,0.0,0.0,0.0,0.0,0.0,0.0,0.0,0.0,0.0,0.0,0.0,0.0,0.0,0.0,0.0,0.0,0.0,0.0,0.0,0.0,0.0,0.0,0.0,0.0,0.0,0.0,0.0,0.0,0.0,0.0,0.0,0.0,0.0,0.0,0.0,0.0,0.0,0.0,0.0,0.0,0.0,0.0,0.0,0.0,0.0,0.0,0.0,0.0,0.0,0.0,0.0,0.0,0.0,0.0,0.0,0.0,0.0,0.0,0.0,0.0,0.0,0.0,0.0,0.0,0.0,0.0,0.0,0.0,0.0,0.0,0.0,0.0,0.0,0.0,0.0,0.0,0.0,0.0,0.0,0.0,0.0,0.0,0.0,0.0,0.0,0.0,0.0,0.0,0.0,0.0,0.0,0.0,0.0,0.0,0.0,0.0,0.0,0.0,0.0,0.0,0.0,0.0,0.0,0.0,0.0,0.0,0.0,0.0,0.0,0.0,0.0,0.0,0.0,0.0,0.0,0.0,0.0,0.0,0.0,0.0,0.0,0.0,0.0,0.0,0.0,0.0,0.0,0.0,0.0,0.0,0.0,0.0,0.0,0.0,0.0,0.0,0.0,0.0,0.0,0.0,0.0,0.0,0.0,0.0,0.0,0.0,0.0,0.0,0.0,0.0,0.0,0.0,0.0,0.0,0.0,0.0,0.0,0.0,0.0,0.0,0.0,0.0,0.0,0.0,0.0,0.0,0.0,0.0,0.0,0.0,0.0,0.0,0.0,0.0,0.0,0.0,0.0,0.0,0.0,0.0,0.0,0.0,0.0,0.0,0.0,0.0,0.0,0.0,0.0,0.0,0.0,0.0,0.0,0.0,0.0,0.0,0.0,0.0,0.0,0.0,0.0,0.0,0.0,0.0,0.0,0.0,0.0,0.0,0.0,0.0,0.0,0.0,0.0,0.0,0.0,0.0,0.0,0.0,0.0,0.0,0.0,0.0,0.0,0.0,0.0,0.0,0.0,0.0,0.0,0.0,0.0,0.0,0.0,0.0,0.0,0.0,0.0,0.0,0.0,0.0,0.0,0.0,0.0,0.0,0.0,0.0,0.0,0.0,0.0,0.0,0.0,0.0,0.0,0.0,0.0,0.0,0.0,0.0,0.0,0.0,0.0,0.0,0.0,0.0,0.0,0.0,0.0,0.0,0.0,0.0,0.0,0.0,0.0,0.0,0.0,0.0,0.0,0.0,0.0,0.0,0.0,0.0,0.0,0.0,0.0,0.0,0.0,0.0,0.0,0.0,0.0,0.0,0.0,0.0,0.0,0.0,0.0,0.0,0.0,0.0,0.0,0.0,0.0,0.0,0.0,0.0,0.0,0.0,0.0,0.0,0.0,0.0,0.0,0.0,0.0,0.0,0.0,0.0,0.0,0.0,0.0,0.0,0.0,0.0,0.0,0.0,0.0,0.0,0.0,0.0,0.0,0.0,0.0,0.0,0.0,0.0,0.0,0.0,0.0,0.0,0.0,0.0,0.0,0.0,0.0,0.0,0.0,0.0,0.0,0.0,0.0,0.0,0.0,0.0,0.0,0.0,0.0,0.0,0.0,0.0,0.0,0.0,0.0,0.0,0.0,0.0,0.0,0.0,0.0,0.0,0.0,0.0,0.0,0.0,0.0,0.0,0.0,0.0,0.0,0.0,0.0,0.0,0.0,0.0,0.0,0.0,0.0,0.0,0.0,0.0,0.0,0.0,0.0,0.0,0.0,0.0,0.0,0.0,0.0,0.0,0.0,0.0,0.0,0.0,0.0,0.0,0.0,0.0,0.0,0.0,0.0,0.0,0.0,0.0,0.0,0.0,0.0,0.0,0.0,0.0,0.0,0.0,0.0,0.0,0.0,0.0,0.0,0.0,0.0,0.0,0.0,0.0,0.0,0.0,0.0,0.0,0.0,0.0,0.0,0.0,0.0,0.0,0.0,0.0,0.0,0.0,0.0,0.0,0.0,0.0,0.0,0.0,0.0,0.0,0.0,0.0,0.0,0.0,0.0,0.0,0.0,0.0,0.0,0.0,0.0,0.0,0.0,0.0,0.0,0.0,0.0,0.0,0.0,0.0,0.0,0.0,0.0,0.0,0.0,0.0,0.0,0.0,0.0,0.0,0.0,0.0,0.0,0.0,0.0,0.0,0.0,0.0,0.0,0.0,0.0,0.0,0.0,0.0,0.0,0.0,0.0,0.0,0.0,0.0,0.0,0.0,0.0,0.0,0.0,0.0,0.0,0.0,0.0,0.0,0.0,0.0,0.0,0.0,0.0,0.0,0.0,0.0,0.0,0.0,0.0,0.0,0.0,0.0,0.0,0.0,0.0,0.0,0.0,0.0,0.0,0.0,0.0,0.0,0.0,0.0,0.0,0.0,0.0,0.0,0.0,0.0,0.0,0.0,0.0,0.0,0.0,0.0,0.0,0.0,0.0,0.0,0.0,0.0,0.0,0.0,0.0,0.0,0.0,0.0,0.0,0.0,0.0,0.0,0.0,0.0,0.0,0.0,0.0,0.0,0.0,0.0,0.0,0.0,0.0,0.0,0.0,0.0,0.0,0.0,0.0,0.0,0.0,0.0,0.0,0.0,0.0,0.0,0.0,0.0,0.0,0.0,0.0,0.0,0.0,0.0,0.0,0.0,0.0,0.0,0.0,0.0,0.0,0.0,0.0,0.0,0.0,0.0,0.0,0.0,0.0,0.0,0.0,0.0,0.0,0.0,0.0,0.0,0.0,0.0,0.0,0.0,0.0,0.0,0.0,0.0,0.0,0.0,0.0,0.0,0.0,0.0,0.0,0.0,0.0,0.0,0.0,0.0,0.0,0.0,0.0,0.0,0.0,0.0,0.0,0.0,0.0,0.0,0.0,0.0,0.0,0.0,0.0,0.0,0.0,0.0,0.0,0.0,0.0,0.0,0.0,0.0,0.0,0.0,0.0,0.0,0.0,0.0,0.0,0.0,0.0,0.0,0.0,0.0,0.0,0.0,0.0,0.0,0.0,0.0,0.0,0.0,0.0,0.9544,0.0,0.0,0.0,0.0,0.0,0.0,0.0,0.0,0.0,0.0,0.0,0.0,0.0,0.0,0.0,0.0,0.0,0.0,0.0,0.0,0.0,0.0,0.0,0.0,0.0,0.0,0.0,0.0,0.0,0.0,0.0,0.0,0.0,0.0,0.0,0.0,0.0,0.0,0.0,0.0,0.0,0.0,0.0,0.0,0.0,0.0,0.0,0.0,0.0,0.0,0.0,0.0,0.0,0.0,0.0,0.0,0.0,0.0,0.0,0.0,0.0,0.0,0.0,0.0,0.0,0.0,0.0,0.0,0.0,0.0,0.0,0.0,0.0,0.0,0.0,0.0,0.0,0.0,0.0,0.0,0.0,0.0,0.0,0.0,0.0,0.0,0.0,0.0,0.0,0.0,0.0,0.0,0.0,0.0,0.0,0.0,0.0,0.0,0.0,0.0,0.0,0.0,0.0,0.0,0.0,0.0,0.0,0.0,0.0,0.0,0.0,0.0,0.0,0.0,0.0,0.0,0.9612,0.0,0.0,0.0,0.0,0.0,0.0,0.0,0.0,0.0,0.0,0.0,0.0,0.0,0.0,0.0,0.0,0.0,0.0,0.0,0.0,0.0,0.0,0.0,0.0,0.0,0.0,0.0,0.0,0.0,0.0,0.0,0.0,0.0,0.0,0.0,0.0,0.0,0.0,0.0,0.0,0.0,0.0344,0.0284,0.0,0.0,0.0,0.0,0.0,0.0,0.0,0.0,0.0,0.0,0.0,0.0,0.0,0.0,0.0,0.0,0.0,0.0,0.0,0.0,0.0,0.0,0.0,0.0,0.0,0.0,0.0,0.0,0.0,0.0,0.0,0.0,0.0,0.0,0.0,0.0,0.0,0.0,0.0,0.0,0.0,0.0,0.0,0.0,0.0,0.0,0.0,0.0,0.0,0.0,0.0,0.0,0.0,0.0,0.0,0.0,0.0,0.0,0.0,0.0,0.0,0.0,0.0,0.0,0.0,0.9918,1.0643,1.0643,1.0643,1.0643,1.0609,0.9992,0.9754,0.9802,0.9747,0.0,0.0,0.0,0.0,0.0,0.0,0.0,0.0,0.0,0.0,0.0,0.0,0.0,0.0,0.0,0.0,0.0,0.0,0.0,0.0,0.0,0.0,0.0,0.0,0.0,0.0,0.0,0.0,0.0,0.0,0.0,0.0,0.0,0.0,0.0,0.0,0.0,0.0,0.0062,0.1613,0.1488,0.0,0.0,0.0,0.0,0.0,0.0,0.0,0.0,0.0,0.0,0.0,0.0,0.0,0.0,0.0,0.0,0.0,0.0,0.0,0.0,0.0,0.0,0.0,0.0,0.0,0.0,0.0,0.0,0.0,0.0,0.0,0.0,0.0,0.0,0.0,0.0,0.0,0.0,0.0,0.0,0.0,0.0,0.0,0.0,0.0,0.0543,0.2003,0.0,0.0,0.0,0.0,0.0,0.0,0.0,0.0,0.0,0.0,0.0,0.0,0.0,0.8381,0.9965,1.0078,1.0169,1.0188,1.0263,1.0337,1.0337,1.0337,1.0337,1.0331,1.0236,0.0,1.0555,1.0297,0.0,0.0,0.0,0.0,0.0,0.0,0.0,0.0,0.0,0.0,0.0,0.0,0.0,0.0,0.0,0.0,0.0,0.0,0.0,0.0,0.0,0.0,0.0,0.0,0.0,0.0,0.0,0.0,0.0,0.0,0.0,0.0,0.0,0.0,0.0,0.0,0.0,0.0,0.0,0.083,0.1271,0.1385,0.14,0.1424,0.1515,0.1435,0.0,0.0,0.0,0.0,0.0,0.0,0.0,0.0,0.0,0.0,0.0,0.0,0.0,0.0,0.0,0.0,0.0,0.0,0.0,0.0,0.0,0.0,0.0,0.0,0.0,0.0,0.0,0.0,0.0,0.0,0.0,0.0,0.0,0.0,0.0,0.0,0.0,0.0,0.0,0.0862,0.1437,0.1129,0.1343,0.1825,0.0,0.0,0.0,0.0,0.0,0.0,0.0,0.0,0.0,0.9443,0.9582,1.0028,1.0779,1.086,1.0867,1.0867,1.0806,1.0845,1.0845,1.0845,1.0845,1.0845,1.0845,1.0853,1.0941,1.0555,1.0473,1.0595,0.0,0.0,0.0,0.0,1.0582,1.0643,0.0,0.0,0.0,0.0,0.0,0.0,0.0,0.0,0.0,0.0,0.0,0.0,0.0,0.0,0.0,0.0,0.0,0.0,0.0,0.0,0.0,0.0,0.0,0.0,0.0,0.0,0.0,0.0,0.0,0.0262,0.0721,0.118,0.2014,0.3265,0.371,0.3698,0.3263,0.3164,0.3206,0.3221,0.0,0.0,0.0,0.0,0.0,0.0,0.0,0.0,0.0,0.0,0.0,0.0,0.0,0.0,0.0,0.0,0.0,0.0,0.0,0.0,0.0,0.0,0.0,0.0,0.0,0.0,0.0,0.0,0.0,0.0,0.0,0.0,0.0,0.0,0.0,0.0,0.0,0.1592,0.2397,0.1518,0.2618,0.3679,0.0,0.0,0.0,0.0,0.0,0.0,0.8777,0.9029,0.9644,1.0772,1.0941,1.1023,1.1063,1.1131,1.1199,1.128,1.1199,1.1255,1.1219,1.1248,1.1234,1.1234,1.1234,1.1234,1.1138,1.0799,1.0683,1.0731,1.0846,1.0894,1.0887,1.0846,1.0907,1.1002,0.0,0.0,0.0,0.0,0.0,0.0,0.0,0.0,0.0,0.0,0.0,0.0,0.0,0.0,0.0,0.0,0.0,0.0,0.0,0.0,0.0,0.0,0.0,0.0,0.0,0.0,0.0,0.0,0.0,0.089,0.2596,0.4302,0.515,0.5345,0.7009,0.6601,0.4787,0.4902,0.4874,0.4674,0.3279,0.0,0.0,0.0,0.0,0.0,0.0,0.0,0.0,0.0,0.0,0.0,0.0,0.0,0.0,0.0,0.0,0.0,0.0,0.0,0.0,0.0,0.0,0.0,0.0,0.0,0.0,0.0,0.0,0.0,0.0,0.0,0.0,0.0,0.0,0.0,0.0,0.0,0.0,0.4964,0.5416,0.0,0.0,0.0,0.0,0.8367,1.0207,1.1304,1.1221,1.1362,1.1379,1.1151,1.1151,1.1219,1.1369,1.1233,1.1307,1.1592,1.1301,1.124,1.1375,1.1226,1.1234,1.1234,1.1234,1.1234,1.1227,1.1138,1.1212,1.1348,1.1355,1.1355,1.1341,1.1192,1.1214,1.1151,0.0,0.0,0.0,0.0,0.0,0.0,0.0,0.0,0.0,0.0,0.0,0.0,0.0,0.0,0.0,0.0,0.0,0.0,0.0,0.0,0.0,0.0,0.0,0.0,0.0,0.0,0.0,0.0,0.0,0.0342,0.1016,0.2798,0.4195,0.5291,0.7069,0.8059,0.8283,0.72,0.6745,0.6729,0.6026,0.4402,0.0,0.0,0.0,0.0,0.0,0.0,0.0,0.0,0.0,0.0,0.0,0.0,0.0,0.0,0.0,0.0,0.0,0.0,0.0,0.0,0.0,0.0,0.0,0.0,0.0,0.0,0.0,0.0,0.0,0.0,0.0,0.0,0.0,0.0,0.0,0.0,0.0,0.5494,0.6623,0.0,0.8282,0.8494,0.916,1.038,1.128,1.1694,1.1545,1.1674,1.1708,1.1599,1.1592,1.1667,1.1823,1.1769,1.1796,1.1904,1.1796,1.1769,1.1823,1.1769,1.1687,1.1592,1.1592,1.1538,1.1457,1.1457,1.1375,1.1246,1.1246,1.1246,1.124,1.1255,1.1226,1.1307,0.0,0.0,0.0,0.0,0.0,0.0,0.0,0.0,0.0,0.0,0.0,0.0,0.0,0.0,0.0,0.0,0.0,0.0,0.0,0.0,0.0,0.0,0.0,0.0,0.0,0.0,0.0,0.0,0.0,0.0347,0.0962,0.2836,0.4592,0.6231,0.8066,0.9467,1.0435,0.9156,0.8591,0.8586,0.7822,0.5881,0.3337,0.0,0.0,0.0,0.0,0.0,0.0,0.0,0.0,0.0,0.0,0.0,0.0,0.0,0.0,0.0,0.0,0.0,0.0,0.0,0.0,0.0,0.0,0.0,0.0,0.0,0.0,0.0,0.0,0.0,0.0,0.0,0.0,0.0,0.0,0.0,0.7791,0.6611,0.8228,0.942,0.9454,0.9612,1.0275,1.1476,1.185,1.1925,1.1775,1.1904,1.1959,1.1911,1.1911,1.1986,1.2135,1.2088,1.219,1.221,1.2108,1.2088,1.2135,1.2088,1.2006,1.1911,1.1911,1.1823,1.1687,1.1687,1.1572,1.1382,1.1335,1.1314,1.1314,1.1314,1.1382,1.1484,0.0,0.0,0.0,0.0,0.0,0.0,0.0,0.0,0.0,0.0,0.0,0.0,0.0,0.0,0.0,0.0,0.0,0.0,0.0,0.0,0.0,0.0,0.0,0.0,0.0,0.0,0.0,0.0,0.0,0.0929,0.264,0.463,0.643,0.8228,0.9986,1.0819,1.0799,1.057,1.0426,1.0156,0.8534,0.6788,0.5025,0.0,0.0,0.0,0.0,0.0,0.0,0.0,0.0,0.0,0.0,0.0,0.0,0.0,0.0,0.0,0.0,0.0,0.0,0.0,0.0,0.0,0.0,0.0,0.0,0.0,0.0,0.0,0.0,0.0,0.0,0.0,0.0,0.0,0.5921,0.7326,0.8664,0.874,1.0443,1.1552,1.1402,1.166,1.1782,1.1647,1.2047,1.223,1.2081,1.2216,1.223,1.2155,1.2074,1.2149,1.2298,1.2149,1.2216,1.2501,1.221,1.2155,1.2291,1.2142,1.2149,1.2142,1.2142,1.1979,1.1837,1.1837,1.1837,1.1823,1.1674,1.1626,1.1633,1.1626,1.1626,1.1674,-0.0203,0.0,0.0,0.0,0.0,0.0,0.0,0.0,0.0,0.0,0.0,0.0,0.0,0.0,0.0,0.0,0.0,0.0,0.0,0.0,0.0,0.0,0.0,0.0,0.0,0.0,0.0,0.0,0.0,0.0285,0.0775,0.2629,0.3751,0.4402,0.7576,0.9021,0.9079,1.0287,1.0799,1.0664,0.9909,0.8592,0.689,0.0,0.0,0.0,0.0,0.0,0.0,0.0,0.0,0.0,0.0,0.0,0.0,0.0,0.0,0.0,0.0,0.0,0.0,0.0,0.0,0.0,0.0,0.0,0.0,0.0,0.0,0.0,0.0,0.0,0.0,0.0,0.0,0.8214,0.7608,0.9209,1.0493,1.0499,1.11,1.1436,1.1396,1.1762,1.1979,1.1945,1.225,1.2427,1.2386,1.242,1.2427,1.2379,1.2379,1.24,1.244,1.24,1.242,1.2501,1.242,1.2406,1.244,1.24,1.2325,1.223,1.223,1.2142,1.1999,1.1999,1.1999,1.1972,1.1721,1.1748,1.1925,1.1816,1.1843,1.1952,-0.1177,-0.0862,-0.0658,-0.0102,0.0,0.0,0.0,0.0,0.0,0.0,0.0,0.0,0.0,0.0,0.0,0.0,0.0,0.0,0.0,0.0,0.0,0.0,0.0,0.0,0.0,0.0,0.0,0.0,0.0,0.0,0.0072,0.1942,0.2794,0.2915,0.67,0.7949,0.731,0.9916,1.0067,0.8665,0.9215,0.8838,0.7686,0.5804,0.4071,0.244,0.0678,0.0,0.0,0.0,0.0,0.0,0.0,0.0,0.0,0.0,0.0,0.0,0.0,0.0,0.0,0.0,0.0,0.0,0.0,0.0,0.0,0.0,0.0,0.0,0.0,0.0,0.0,0.0,0.8419,0.9718,0.9579,1.0556,1.128,1.1348,1.1436,1.1484,1.1484,1.1837,1.2135,1.2135,1.2332,1.2501,1.2501,1.2562,1.2596,1.2596,1.2657,1.2691,1.2691,1.2691,1.2691,1.2691,1.2691,1.2691,1.2691,1.2691,1.2651,1.2569,1.2569,1.2488,1.2338,1.2338,1.2338,0.0,0.0,0.0,0.0,0.0,1.1986,1.2149,-0.2758,-0.2202,-0.1629,-0.0467,-0.0106,0.0,0.0,0.0,0.0,0.0,0.0,0.0,0.0,0.0,0.0,0.0,0.0,0.0,0.0,0.0,0.0,0.0,0.0,0.0,0.0,0.0,0.0,0.0,0.0,0.0,0.0074,0.1761,0.255,0.2762,0.6305,0.6914,0.556,0.9067,0.8596,0.5587,0.7506,0.8092,0.7491,0.5566,0.3927,0.2449,0.0646,0.0,0.0,0.0,0.0,0.0,0.0,0.0,0.0,0.0,0.0,0.0,0.0,0.0,0.0,0.0,0.0,0.0,0.0,0.0,0.0,0.0,0.0,0.0,0.0,0.0,0.0,0.0,1.0125,1.1416,1.1416,1.1204,1.1251,1.1534,1.1633,1.1647,1.1647,1.1911,1.2094,1.2108,1.2372,1.2535,1.2556,0.0,0.0,0.0,0.0,1.2963,1.2963,1.2963,1.2963,1.2963,1.2963,1.2963,1.2963,1.2963,1.2963,1.2963,1.2963,1.2881,1.2759,1.2759,1.2759,1.2718,1.2318,1.2155,1.2142,1.2155,1.2162,1.2182,-0.4556,-0.3055,-0.2055,-0.1797,-0.0807,0.0,0.0,0.0,0.0,0.0,0.0,0.0,0.0,0.0,0.0,0.0,0.0,0.0,0.0,0.0,0.0,0.0,0.0,0.0,0.0,0.0,0.0,0.0,0.0,0.0,0.0,0.0371,0.0589,0.0656,0.2972,0.3763,0.3544,0.5777,0.6237,0.5736,0.7543,0.7365,0.5687,0.3897,0.2944,0.2483,0.0648,0.0,0.0,0.0,0.0,0.0,0.0,0.0,0.0,0.0,0.0,0.0,0.0,0.0,0.0,0.0,0.0,0.0,0.0,0.0,0.0,0.0,0.0,0.0,0.0,0.0,0.0,0.8601,1.0263,1.1572,1.1572,1.0191,0.9839,1.1397,1.1721,1.1789,1.1789,1.2067,1.2291,1.2406,1.2583,1.2739,1.2868,1.2901,1.2915,1.2915,1.2942,1.2963,1.2963,1.2963,1.2963,1.2963,0.0,0.0,1.2963,1.2963,1.2963,1.2963,1.2963,1.2942,1.2915,1.2915,1.2915,1.2908,1.282,1.2712,1.2617,1.2739,1.2865,1.2793,-0.698,-0.542,-0.3884,-0.2473,-0.1575,-0.0877,-0.0111,0.0,0.0,0.0,0.0,0.0,0.0,0.0,0.0,0.0,0.0,0.0,0.0,0.0,0.0,0.0,0.0,0.0,0.0,0.0,0.0,0.0,0.0,0.0,0.0,0.0,0.0,0.0073,0.2037,0.2328,0.1601,0.4472,0.4605,0.295,0.482,0.4426,0.2789,0.3794,0.3555,0.2479,0.0662,0.0,0.0,0.0,0.0,0.0,0.0,0.0,0.0,0.0,0.0,0.0,0.0,0.0,0.0,0.0,0.0,0.0,0.0,0.0,0.0,0.0,0.0,0.6071,0.0,0.0,0.8988,1.0023,1.0155,1.0155,1.0155,0.8487,0.8343,1.1253,1.0919,1.0891,1.1871,1.2291,1.2542,1.261,1.2759,1.2881,1.2956,1.303,1.3064,1.3064,1.3139,1.318,1.318,1.318,1.318,1.318,1.318,1.318,1.318,1.318,1.318,1.318,1.318,1.318,1.318,1.318,1.318,1.318,1.318,1.3044,1.2854,1.2935,1.2963,1.2963,-0.8885,-0.7864,-0.6134,-0.3551,-0.2576,-0.1818,-0.0615,-0.0171,0.0,0.0,0.0,0.0,0.0,0.0,0.0,0.0,0.0,0.0,0.0,0.0,0.0,0.0,0.0,0.0,0.0,0.0,0.0,0.0,0.0,0.0,0.0,0.0,0.0,0.0073,0.1602,0.1456,0.0219,0.3344,0.2838,0.0146,0.2086,0.172,0.0358,0.376,0.3851,0.1985,0.0543,0.0,0.0,0.0,0.0,0.0,0.0,0.0,0.0,0.0,0.0,0.0,0.0,0.0,0.0,0.0,0.0,0.0,0.0,0.4263,0.4556,0.6524,0.6942,0.7275,0.8502,0.8702,0.9102,1.0251,0.9141,0.8131,0.815,0.6497,0.6735,1.0638,1.0008,0.9994,1.2032,1.2549,1.2786,1.2813,1.2935,1.3017,1.3044,1.3152,1.3214,1.3214,1.3336,1.3403,1.3403,1.3403,1.3403,1.3403,1.3403,1.3403,1.3403,1.3403,1.3403,1.3403,1.3403,1.3403,1.3403,1.3403,1.3403,1.3403,1.3403,1.3254,1.3051,1.3051,1.3051,1.3051,-0.8885,-0.8748,-0.8115,-0.6458,-0.3953,-0.2119,-0.1956,-0.0863,0.0,0.0,0.0,0.0,0.0,0.0,0.0,0.0,0.0,0.0,0.0,0.0,0.0,0.0,0.0,0.0,0.0,0.0,0.0,0.0,0.0,0.0,0.0,0.0,0.0,0.0,0.0219,0.0219,0.0,0.0438,0.0365,0.0146,0.2107,0.1743,0.0218,0.2356,0.203,0.0275,0.0069,0.0,0.0,0.0,0.0,0.0,0.0,0.0,0.0,0.0,0.0,0.0,0.0,0.1399,0.3293,0.4855,0.5358,0.6267,0.0,0.915,0.8544,1.0367,1.0882,1.0468,0.8997,0.8714,0.8208,0.668,0.6242,0.6123,0.6121,0.4476,0.475,0.8985,0.94,1.0267,1.2389,1.2827,1.299,1.3112,1.3139,1.3207,1.3342,1.337,1.3376,1.3376,1.339,1.3403,1.3403,1.3403,1.3403,1.3403,1.3403,1.3403,1.3403,1.3403,1.3403,1.3403,1.3403,1.3403,1.3403,1.3403,1.3403,1.3403,1.3403,1.3383,1.3349,1.3349,1.3349,1.3349,-0.8898,-0.8885,-0.8712,-0.8097,-0.6251,-0.4536,-0.3791,-0.2314,-0.1301,-0.1442,-0.0614,0.0,0.0,0.0,0.0,0.0,0.0,0.0,0.0,0.0,0.0,0.0,0.0,0.0,0.0,0.0,0.0,0.0,0.0,0.0,0.0,0.0,0.0,0.0,0.0,0.0,0.0,0.0,0.0,0.0073,0.0874,0.0729,0.0073,0.0869,0.0715,0.0,0.0,0.0,0.0,0.0,0.0,0.0,0.0,0.0,0.0,0.0,0.0,0.0446,0.2647,0.3882,0.4906,0.6893,0.7409,0.7929,0.9657,0.8553,0.7695,0.959,0.9013,0.7993,0.7129,0.7043,0.6751,0.0,0.4878,0.4103,0.4082,0.2451,0.2333,0.5376,0.5862,0.7711,1.245,1.3078,1.3241,1.3302,1.3308,1.3336,1.3397,1.3403,1.3403,1.3403,1.3403,1.3403,1.3403,1.3403,1.3403,1.3403,1.3403,1.3403,1.3403,1.3403,1.3403,1.3403,1.3403,1.3403,1.3403,1.3403,1.3403,1.3403,1.3403,1.3403,1.3403,1.3403,1.3403,1.3403,-0.9028,-0.8994,-0.8988,-0.8892,-0.8072,-0.6939,-0.5536,-0.3946,-0.2951,-0.312,-0.1708,-0.0494,-0.0062,0.0,0.0,0.0,0.0,0.0,0.0,0.0,0.0,0.0,0.0,0.0,0.0,0.0,0.0,0.0,0.0,0.0,0.0,0.0,0.0,0.0,0.0,0.0,0.0,0.0,0.0,0.0,0.0,0.0,0.0,0.0,0.0,0.0,0.0,0.0,0.0,0.0,0.0,0.0,0.0,0.0,0.0,0.0,0.0,0.0606,0.3339,0.4427,0.525,0.6712,0.7525,0.7988,0.8209,0.7021,0.6322,0.7774,0.6856,0.5637,0.5069,0.4986,0.4843,0.4265,0.3019,0.2063,0.2095,0.0865,0.0799,0.3009,0.3351,0.5479,1.0784,1.2029,1.2727,1.3314,1.3403,1.3403,1.3403,1.3403,1.3417,1.3464,1.3464,1.3485,1.3519,1.3519,1.3519,1.3519,1.3519,1.3519,1.3519,1.3485,1.3464,1.3464,1.3417,1.3403,1.3403,1.3403,1.3403,1.3403,1.3403,1.3403,1.3403,1.3403,1.3403,1.3403,-0.9234,-0.92,-0.9103,-0.8905,-0.8999,-0.8628,-0.7085,-0.5565,-0.466,-0.4794,-0.3413,-0.1787,-0.0185,0.0,0.0,0.0,0.0,0.0,0.0,0.0,0.0,0.0,0.0,0.0,0.0,0.0,0.0,0.0,0.0,0.0,0.0,0.0,0.0,0.0,0.0,0.0,0.0,0.0,0.0,0.0,0.0,0.0,0.0,0.0,0.0,0.0,0.0,0.0,0.0,0.0,0.0,0.0,0.0,0.0,0.0,0.0,0.0,0.0,0.0154,0.1537,0.2995,0.3074,0.4487,0.5876,0.5879,0.5879,0.5804,0.5876,0.5876,0.5199,0.3321,0.3019,0.2349,0.0461,0.0154,0.0078,0.008,0.0,0.0816,0.3048,0.3331,0.4275,0.0,0.8874,1.1053,1.3231,1.3403,1.3403,1.3403,1.3403,1.3471,1.3614,1.362,1.3688,1.3824,1.3824,1.3824,1.3824,1.3824,1.3824,1.3824,1.3688,1.362,1.3614,1.3464,1.3403,1.3403,1.3403,1.3403,1.3403,1.3403,1.3403,1.3403,1.3403,1.3403,1.3403,-0.9334,-0.9364,-0.9293,-0.9239,-0.9273,-0.916,-0.8728,-0.73,-0.6345,-0.6566,-0.5143,0.0,0.0,0.0,0.0,0.0,0.0,0.0,0.0,0.0,0.0,0.0,0.0,0.0,0.0,0.0,0.0,0.0,0.0,0.0,0.0,0.0,0.0,0.0,0.0,0.0,0.0,0.0,0.0,0.0,0.0,0.0,0.0,0.0,0.0,0.0,0.0,0.0,0.0,0.0,0.0,0.0,0.0,0.0,0.0,0.0,0.0,0.0312,0.1544,0.2386,0.3231,0.4609,0.5434,0.5962,0.6089,0.502,0.4017,0.4017,0.294,0.1782,0.1085,0.1001,0.0771,0.0079,0.0,0.0,0.0,0.0,0.025,0.1003,0.1091,0.0,0.0,0.0,0.0,1.1048,1.1294,1.1939,1.3469,1.3641,1.3715,1.377,1.377,1.3705,1.3838,1.3838,1.3838,1.3838,1.3838,1.3838,1.3838,1.379,1.377,1.377,1.3715,1.3695,1.3695,1.3695,1.3695,1.3695,1.3695,1.3695,1.3695,1.3695,1.3695,1.3682,0.0,0.0,0.0,-0.9388,-0.9429,0.0,0.0,0.0,0.0,0.0,0.0,0.0,0.0,0.0,0.0,0.0,0.0,-0.0644,-0.0065,0.0,0.0,0.0,0.0,0.0,0.0,0.0,0.0,0.0,0.0,0.0,0.0,0.0,0.0,0.0,0.0,0.0,0.0,0.0,0.0,0.0,0.0,0.0,0.0,0.0,0.0,0.0,0.0,0.0,0.0,0.0,0.0,0.0,0.0,0.0,0.0,0.0,0.0,0.0235,0.1553,0.186,0.2169,0.356,0.3867,0.3876,0.3986,0.2975,0.1959,0.1959,0.0941,0.0,0.0,0.0,0.0,0.0,0.0,0.0,0.0,0.0,0.0,0.0,0.0,0.059,0.0,0.0,0.0,0.8676,0.8938,1.0018,1.2331,1.2496,1.2993,1.3919,1.3926,1.3946,1.4007,1.4007,1.4007,1.4007,1.4007,1.4007,1.4,1.3946,1.3926,1.3919,1.3865,1.3838,1.3838,1.3838,1.3838,1.3838,1.3838,1.3838,1.3838,1.3838,1.3878,1.3905,0.0,0.0,0.0,0.0,0.0,0.0,0.0,0.0,0.0,0.0,0.0,0.0,0.0,0.0,0.0,0.0,0.0,0.0,-0.0258,-0.0065,0.0,0.0,0.0,0.0,0.0,0.0,0.0,0.0,0.0,0.0,0.0,0.0,0.0,0.0,0.0,0.0,0.0,0.0,0.0,0.0,0.0,0.0,0.0,0.0,0.0,0.0,0.0,0.0,0.0,0.0,0.0,0.0,0.0,0.0,0.0,0.0,0.0,0.0,0.0,0.0,0.0,0.0,0.0,0.0,0.0,0.0,0.0,0.0,0.0,0.0,0.0,0.0,0.0,0.0,0.0,0.0,0.0,0.0,0.0,0.0,0.0,0.0,0.0,0.0,0.0,0.606,0.0,0.7623,1.0037,1.0214,1.1399,1.3814,1.4082,1.415,1.4299,1.4299,1.4299,1.4299,1.4299,1.4299,1.4292,1.415,1.4082,1.4075,1.3926,1.3865,1.3865,1.3865,1.3865,1.3865,1.3865,1.3865,1.3865,1.3865,1.396,1.4061,0.0,0.0,0.0,0.0,0.0,0.0,0.0,0.0,0.0,0.0,0.0,0.0,0.0,0.0,0.0,0.0,0.0,0.0,-0.1899,-0.07,0.0,0.0,0.0,0.0,0.0,0.0,0.0,0.0,0.0,0.0,0.0,0.0,0.0,0.0,0.0,0.0,0.0,0.0,0.0,0.0,0.0,0.0,0.0,0.0,0.0,0.0,0.0,0.0,0.0,0.0,0.0,0.0,0.0,0.0,0.0,0.0,0.0,0.0,0.0,0.0,0.0,0.0,0.0,0.0,0.0,0.0,0.0,0.0,0.0,0.0,0.0,0.0,0.0,0.0,0.0,0.0,0.0,0.0,0.0,0.0,0.0,0.0,0.0,0.0,0.0,0.0,0.3417,0.5345,0.7614,0.9527,1.0911,1.1561,1.335,1.4265,1.4299,1.4299,1.4299,1.4299,1.4299,1.4299,1.4299,1.4258,1.4245,1.4238,1.4197,1.4183,1.4183,1.4183,1.4183,1.4183,1.4183,1.4183,1.4183,1.4183,1.4211,1.4238,0.0,0.0,0.0,0.0,0.0,0.0,0.0,0.0,0.0,0.0,0.0,0.0,0.0,0.0,0.0,0.0,0.0,0.0,0.0,-0.1633,-0.0763,0.0,0.0,0.0,0.0,0.0,0.0,0.0,0.0,0.0,0.0,0.0,0.0,0.0,0.0,0.0,0.0,0.0,0.0,0.0,0.0,0.0,0.0,0.0,0.0,0.0,0.0,0.0,0.0,0.0,0.0,0.0,0.0,0.0,0.0,0.0,0.0,0.0,0.0,0.0,0.0,0.0,0.0,0.0,0.0,0.0,0.0,0.0,0.0,0.0,0.0,0.0,0.0,0.0,0.0,0.0,0.0,0.0,0.0,0.0,0.0,0.0,0.0,0.0,0.0,0.0,0.1244,0.3017,0.5317,0.677,0.8575,1.0629,1.1971,1.3224,1.4299,1.4299,1.4299,1.4299,1.4299,1.4299,1.4299,1.4299,1.4299,1.4299,0.0,1.4299,1.4299,1.4299,1.4299,1.4299,1.4299,1.4299,1.4299,1.4299,1.4299,1.4299,0.0,0.0,0.0,0.0,0.0,0.0,0.0,0.0,0.0,0.0,-0.9822,-0.9822,-0.9822,-0.9822,0.0,0.0,0.0,0.0,0.0,0.0,-0.1761,-0.0063,0.0,0.0,0.0,0.0,0.0,0.0,0.0,0.0,0.0,0.0,0.0,0.0,0.0,0.0,0.0,0.0,0.0,0.0,0.0,0.0,0.0,0.0,0.0,0.0,0.0,0.0,0.0,0.0,0.0,0.0,0.0,0.0,0.0,0.0,0.0,0.0,0.0,0.0,0.0,0.0,0.0,0.0,0.0,0.0,0.0,0.0,0.0,0.0,0.0,0.0,0.0,0.0,0.0,0.0,0.0,0.0,0.0,0.0,0.0,0.0,0.0,0.0,0.0,0.0,0.0,0.0897,0.3045,0.3401,0.5633,1.0091,1.0535,1.1699,1.3761,1.4122,1.4299,1.4299,1.4299,1.4299,1.4299,1.4299,1.4299,1.4299,1.4299,0.0,1.4299,1.4299,1.4299,1.4299,1.4299,1.4299,1.4299,1.4299,1.4299,1.4306,0.0,0.0,0.0,0.0,0.0,0.0,0.0,0.0,0.0,0.0,-0.9822,-0.9822,0.0,0.0,0.0,0.0,0.0,0.0,0.0,0.0,0.0,-0.0063,0.0,0.0,0.0,0.0,0.0,0.0,0.0,0.0,0.0,0.0,0.0,0.0,0.0,0.0,0.0,0.0,0.0,0.0,0.0,0.0,0.0,0.0,0.0,0.0,0.0,0.0,0.0,0.0,0.0,0.0,0.0,0.0,0.0,0.0,0.0,0.0,0.0,0.0,0.0,0.0,0.0,0.0,0.0,0.0,0.0,0.0,0.0,0.0,0.0,0.0,0.0,0.0,0.0,0.0,0.0,0.0,0.0,0.0,0.0,0.0,0.0,0.0,0.0,0.0,0.0,0.0179,0.0628,0.2507,0.4829,0.7595,0.9646,1.0895,1.1344,1.3312,1.4299,1.4299,1.4299,1.4299,1.4299,1.4299,1.4299,1.4299,1.4299,0.0,1.4299,1.4299,1.4299,1.4299,1.4299,1.4299,1.4299,1.4299,1.4299,1.4319,0.0,0.0,0.0,0.0,0.0,0.0,0.0,-1.0059,-1.0114,-1.027,-1.029,-1.0202,-0.9903,-0.9876,-0.9876,0.0,0.0,0.0,0.0,0.0,0.0,-0.137,-0.044,0.0,0.0,0.0,0.0,0.0,0.0,0.0,0.0,0.0,0.0,0.0,0.0,0.0,0.0,0.0,0.0,0.0,0.0,0.0,0.0,0.0,0.0,0.0,0.0,0.0,0.0,0.0,0.0,0.0,0.0,0.0,0.0,0.0,0.0,0.0,0.0,0.0,0.0,0.0,0.0,0.0,0.0,0.0,0.0,0.0,0.0,0.0,0.0,0.0,0.0,0.0,0.0,0.0,0.0,0.0,0.0,0.0,0.0,0.0,0.0,0.0,0.0,0.0,0.0,0.0,0.0,0.233,0.4116,0.5276,0.7591,0.8842,0.8842,1.1255,1.2414,1.2414,1.3673,1.4299,1.4299,1.4299,1.4299,1.4299,1.4299,0.0,1.4299,1.4299,1.4299,1.4299,1.4299,1.4299,1.4299,1.4299,1.4346,1.4421,0.0,0.0,0.0,0.0,0.0,0.0,-1.0236,-1.0304,-1.0419,-1.0683,-1.0751,-1.0622,-1.0172,-1.0098,-1.0071,0.0,0.0,0.0,0.0,0.0,0.0,0.0,0.0,0.0,0.0,0.0,0.0,0.0,0.0,0.0,0.0,0.0,0.0,0.0,0.0,0.0,0.0,0.0,0.0,0.0,0.0,0.0,0.0,0.0,0.0,0.0,0.0,0.0,0.0,0.0,0.0,0.0,0.0,0.0,0.0,0.0,0.0,0.0,0.0,0.0,0.0,0.0,0.0,0.0,0.0,0.0,0.0,0.0,0.0,0.0,0.0,0.0,0.0,0.0,0.0,0.0,0.0,0.0,0.0,0.0,0.0,0.0,0.0,0.0,0.0,0.0,0.0,0.0,0.0,0.1793,0.2866,0.2866,0.5097,0.6344,0.6344,0.8753,0.9913,1.0002,1.2414,1.3489,1.3578,1.4033,1.4299,1.4299,1.4299,0.0,0.0,1.4299,1.4299,1.4299,1.4299,1.4299,1.4306,1.4333,1.4414,1.4523,0.0,0.0,0.0,0.0,0.0,0.0,-1.0256,-1.0392,-1.0534,-1.0697,-1.0839,-1.0793,-1.0677,-1.0534,-1.0399,0.0,0.0,0.0,0.0,0.0,0.0,0.0,0.0,0.0,0.0,0.0,0.0,0.0,0.0,0.0,0.0,0.0,0.0,0.0,0.0,0.0,0.0,0.0,0.0,0.0,0.0,0.0,0.0,0.0,0.0,0.0,0.0,0.0,0.0,0.0,0.0,0.0,0.0,0.0,0.0,0.0,0.0,0.0,0.0,0.0,0.0,0.0,0.0,0.0,0.0,0.0,0.0,0.0,0.0,0.0,0.0,0.0,0.0,0.0,0.0,0.0,0.0,0.0,0.0,0.0,0.0,0.0,0.0,0.0,0.0,0.0,0.0,0.0,0.0,0.0179,0.0359,0.0359,0.2687,0.3938,0.3938,0.6255,0.7413,0.7502,0.9913,1.1072,1.1072,1.3312,1.4299,1.4299,1.4299,0.0,0.0,1.4299,1.4299,1.4299,1.4299,1.4299,1.4319,1.4441,1.4502,1.455,0.0,0.0,0.0,0.0,0.0,0.0,-1.0493,-1.0595,-1.0751,-1.1084,-1.1097,-1.1056,-1.0995,-1.0853,-1.067,-1.0426,0.0,0.0,0.0,0.0,0.0,0.0,0.0,0.0,0.0,0.0,-0.1086,0.0,0.0,0.0,0.0,0.0,0.0,0.0,0.0,0.0,0.0,0.0,0.0,0.0,0.0,0.0,0.0,0.0,0.0,0.0,0.0,0.0,0.0,0.0,0.0,0.0,0.0,0.0,0.0,0.0,0.0,0.0,0.0,0.0,0.0,0.0,0.0,0.0,0.0,0.0,0.0,0.0,0.0,0.0,0.0,0.0,0.0,0.0,0.0,0.0,0.0,0.0,0.0,0.0,0.0,0.0,0.0,0.0,0.0,0.0,0.0,0.0,0.0,0.0,0.0,0.0,0.0897,0.1434,0.1434,0.3759,0.5008,0.5008,0.7417,0.8575,0.8575,1.1072,1.2148,1.2237,1.3673,0.0,0.0,1.4299,1.4299,1.4306,1.4394,1.4428,1.4441,1.459,1.4706,1.4808,0.0,0.0,0.0,0.0,0.0,-1.0256,-1.0656,-1.0758,-1.0914,-1.1274,-1.1226,-1.1145,-1.1104,-1.1009,-1.0846,-1.0582,-1.0426,0.0,0.0,0.0,0.0,0.0,0.0,0.0,0.0,0.0,-0.206,-0.0774,-0.0258,0.0,0.0,0.0,0.0,0.0,0.0,0.0,0.0,0.0,0.0,0.0,0.0,0.0,0.0,0.0,0.0,0.0,0.0,0.0,0.0,0.0,0.0,0.0,0.0,0.0,0.0,0.0,0.0,0.0,0.0,0.0,0.0,0.0,0.0,0.0,0.0,0.0,0.0,0.0,0.0,0.0,0.0,0.0,0.0,0.0,0.0,0.0,0.0,0.0,0.0,0.0,0.0,0.0,0.0,0.0,0.0,0.0,0.0,0.0,0.0,0.0,0.0,0.0,0.0,0.0,0.0,0.1703,0.2509,0.2598,0.4919,0.6079,0.6165,0.8575,0.9646,0.9735,1.2148,0.0,0.0,1.4073,1.436,1.438,1.4523,1.4577,1.4597,1.4753,1.4875,1.4977,0.0,0.0,0.0,0.0,0.0,0.0,-1.0677,-1.0779,-1.0995,-1.1145,-1.1234,-1.1111,-1.09,-1.088,-1.082,-1.0731,-1.0575,0.0,0.0,0.0,0.0,0.0,0.0,0.0,0.0,0.0,-0.27,-0.27,-0.0903,0.0,0.0,0.0,0.0,0.0,0.0,0.0,0.0,0.0,0.0,0.0,0.0,0.0,0.0,0.0,0.0,0.0,0.0,0.0,0.0,0.0,0.0,0.0,0.0,0.0,0.0,0.0,0.0,0.0,0.0,0.0,0.0,0.0,0.0,0.0,0.0,0.0,0.0,0.0,0.0,0.0,0.0,0.0,0.0,0.0,0.0,0.0,0.0,0.0,0.0,0.0,0.0,0.0,0.0,0.0,0.0,0.0,0.0,0.0,0.0,0.0,0.0,0.0,0.0,0.0,0.0,0.0,0.0,0.009,0.2507,0.3669,0.3759,0.6079,0.7146,0.0,0.0,0.0,0.0,1.3451,1.4509,1.4523,1.4679,1.474,1.4753,1.4909,1.497,1.4991,0.0,0.0,0.0,0.0,0.0,0.0,0.0,-1.0758,-1.0846,-1.0995,-1.0928,-1.088,-1.0873,-1.0786,-1.0772,-1.0724,-1.0677,0.0,0.0,0.0,0.0,0.0,0.0,0.0,0.0,-0.487,-0.397,-0.2716,-0.0862,0.0,0.0,0.0,0.0,0.0,0.0,0.0,0.0,0.0,0.0,0.0,0.0,0.0,0.0,0.0,0.0,0.0,0.0,0.0,0.0,0.0,0.0,0.0,0.0,0.0,0.0,0.0,0.0,0.0,0.0,0.0,0.0,0.0,0.0,0.0,0.0,0.0,0.0,0.0,0.0,0.0,0.0,0.0,0.0,0.0,0.0,0.0,0.0,0.0,0.0,0.0,0.0,0.0,0.0,0.0,0.0,0.0,0.0,0.0,0.0,0.0,0.0,0.0,0.0,0.0,0.0,0.0,0.0,0.0,0.0807,0.1166,0.1256,0.358,0.474,0.0,0.0,0.0,0.0,1.1642,1.3052,1.4536,1.4801,1.4896,1.4916,1.5065,1.5113,1.512,0.0,0.0,0.0,0.0,0.0,0.0,0.0,-1.0717,-1.0751,-1.0786,-1.0778,-1.0758,-1.0853,-1.0778,-1.0717,-1.0717,-1.0717,0.0,0.0,0.0,0.0,0.0,0.0,0.0,-0.7468,-0.607,-0.4839,-0.3719,-0.1226,0.0,0.0,0.0,0.0,0.0,0.0,0.0,0.0,0.0,0.0,0.0,0.0,0.0,0.0,0.0,0.0,0.0,0.0,0.0,0.0,0.0,0.0,0.0,0.0,0.0,0.0,0.0,0.0,0.0,0.0,0.0,0.0,0.0,0.0,0.0,0.0,0.0,0.0,0.0,0.0,0.0,0.0,0.0,0.0,0.0,0.0,0.0,0.0,0.0,0.0,0.0,0.0,0.0,0.0,0.0,0.0,0.0,0.0,0.0,0.0,0.0,0.0,0.0,0.0,0.0,0.0,0.0,0.0,0.0,0.0,0.0,0.009,0.1524,0.224,0.0,0.0,0.0,0.0,1.0154,1.1944,1.3344,1.456,1.5052,1.5065,1.5215,1.5269,1.5276,0.0,0.0,0.0,0.0,0.0,0.0,0.0,-1.0717,-1.0717,-1.0717,-1.0717,-1.0717,-1.0717,-1.0717,-1.0717,-1.0717,0.0,0.0,0.0,0.0,0.0,0.0,0.0,0.0,-1.0738,-0.7245,-0.541,-0.5416,-0.1809,0.0,0.0,0.0,0.0,0.0,0.0,0.0,0.0,0.0,0.0,0.0,0.0,0.0,0.0,0.0,0.0,0.0,0.0,0.0,0.0,0.0,0.0,0.0,0.0,0.0,0.0,0.0,0.0,0.0,0.0,0.0,0.0,0.0,0.0,0.0,0.0,0.0,0.0,0.0,0.0,0.0,0.0,0.0,0.0,0.0,0.0,0.0,0.0,0.0,0.0,0.0,0.0,0.0,0.0,0.0,0.0,0.0,0.0,0.0,0.0,0.0,0.0,0.0,0.0,0.0,0.0,0.0,0.0,0.0,0.0,0.0,0.0,0.0,0.0,0.0,0.0,0.0,0.0,0.8953,1.1059,1.1462,1.4139,1.5208,1.5228,1.5371,1.5425,1.5445,0.0,0.0,0.0,0.0,0.0,0.0,0.0,0.0,0.0,0.0,-1.0717,-1.0717,-1.0717,-1.0717,-1.0717,0.0,0.0,0.0,0.0,0.0,0.0,0.0,0.0,0.0,-1.0826,-0.7283,-0.5416,-0.5556,-0.1817,0.0,0.0,0.0,0.0,0.0,0.0,0.0,0.0,0.0,0.0,0.0,0.0,0.0,0.0,0.0,0.0,0.0,0.0,0.0,0.0,0.0,0.0,0.0,0.0,0.0,0.0,0.0,0.0,0.0,0.0,0.0,0.0,0.0,0.0,0.0,0.0,0.0,0.0,0.0,0.0,0.0,0.0,0.0,0.0,0.0,0.0,0.0,0.0,0.0,0.0,0.0,0.0,0.0,0.0,0.0,0.0,0.0,0.0,0.0,0.0,0.0,0.0,0.0,0.0,0.0,0.0,0.0,0.0,0.0,0.0,0.0,0.0,0.0,0.0,0.0,0.0,0.0,0.3807,0.7147,0.957,1.1606,1.433,1.5432,1.5533,1.5574,1.5588,1.5588,0.0,0.0,0.0,0.0,0.0,0.0,0.0,0.0,0.0,0.0,0.0,-1.0717,-1.0717,-1.0717,0.0,0.0,0.0,0.0,0.0,0.0,0.0,0.0,0.0,-1.0799,-1.088,-0.736,-0.556,-0.5634,-0.1848,0.0,0.0,0.0,0.0,0.0,0.0,0.0,0.0,0.0,0.0,0.0,0.0,0.0,0.0,0.0,0.0,0.0,0.0,0.0,0.0,0.0,0.0,0.0,0.0,0.0,0.0,0.0,0.0,0.0,0.0,0.0,0.0,0.0,0.0,0.0,0.0,0.0,0.0,0.0,0.0,0.0,0.0,0.0,0.0,0.0,0.0,0.0,0.0,0.0,0.0,0.0,0.0,0.0,0.0,0.0,0.0,0.0,0.0,0.0,0.0,0.0,0.0,0.0,0.0,0.0,0.0,0.0,0.0,0.0,0.0,0.0,0.0,0.0,0.0,0.0,0.0,0.0,0.2111,0.4739,0.7427,0.9978,1.2622,1.4488,1.5649,1.571,1.5737,1.575,0.0,0.0,0.0,0.0,0.0,0.0,0.0,0.0,0.0,0.0,0.0,0.0,0.0,0.0,0.0,0.0,0.0,0.0,0.0,0.0,0.0,0.0,-1.0678,-1.09,-1.0948,-0.7442,-0.5638,-0.5642,-0.1814,0.0,0.0,0.0,0.0,0.0,0.0,0.0,0.0,0.0,0.0,0.0,0.0,0.0,0.0,0.0,0.0,0.0,0.0,0.0,0.0,0.0,0.0,0.0,0.0,0.0,0.0,0.0,0.0,0.0,0.0,0.0,0.0,0.0,0.0,0.0,0.0,0.0,0.0,0.0,0.0,0.0,0.0,0.0,0.0,0.0,0.0,0.0,0.0,0.0,0.0,0.0,0.0,0.0,0.0,0.0,0.0,0.0,0.0,0.0,0.0,0.0,0.0,0.0,0.0,0.0,0.0,0.0,0.0,0.0,0.0,0.0,0.0,0.0,0.0,0.0,0.0,0.0,0.0186,0.2739,0.514,0.7453,1.0012,1.2634,1.5126,1.5244,1.5584,1.5906,0.0,0.0,0.0,0.0,0.0,0.0,0.0,0.0,0.0,0.0,0.0,0.0,0.0,0.0,0.0,0.0,0.0,0.0,0.0,0.0,0.0,-0.8444,-1.0041,-1.0995,-1.1321,-0.7583,-0.5645,-0.5791,-0.1912,0.0,0.0,0.0,0.0,0.0,0.0,0.0,0.0,0.0,0.0,0.0,0.0,0.0,0.0,0.0,0.0,0.0,0.0,0.0,0.0,0.0,0.0,0.0,0.0,0.0,0.0,0.0,0.0,0.0,0.0,0.0,0.0,0.0,0.0,0.0,0.0,0.0,0.0,0.0,0.0,0.0,0.0,0.0,0.0,0.0,0.0,0.0,0.0,0.0,0.0,0.0,0.0,0.0,0.0,0.0,0.0,0.0,0.0,0.0,0.0,0.0,0.0,0.0,0.0,0.0,0.0,0.0,0.0,0.0,0.0,0.0,0.0,0.0,0.0,0.0,0.0,0.0,0.0188,0.2747,0.4128,0.4876,0.7387,1.0128,1.2599,1.2714,1.4129,1.6049,0.0,0.0,0.0,0.0,0.0,0.0,0.0,0.0,0.0,0.0,0.0,0.0,0.0,0.0,0.0,0.0,0.0,0.0,0.0,0.0,-0.6627,-0.6696,-0.7534,-0.809,-0.8247,-0.559,-0.4204,-0.4258,-0.1407,0.0,0.0,0.0,0.0,0.0,0.0,0.0,0.0,0.0,0.0,0.0,0.0,0.0,0.0,0.0,0.0,0.0,0.0,0.0,0.0,0.0,0.0,0.0,0.0,0.0,0.0,0.0,0.0,0.0,0.0,0.0,0.0,0.0,0.0,0.0,0.0,0.0,0.0,0.0,0.0,0.0,0.0,0.0,0.0,0.0,0.0,0.0,0.0,0.0,0.0,0.0,0.0,0.0,0.0,0.0,0.0,0.0,0.0,0.0,0.0,0.0,0.0,0.0,0.0,0.0,0.0,0.0,0.0,0.0,0.0,0.0,0.0,0.0,0.0,0.0,0.0,0.0,0.0095,0.1244,0.2611,0.4117,0.5337,0.8371,1.2248,1.376,1.5068,1.6083,0.0,0.0,0.0,0.0,0.0,0.0,0.0,0.0,0.0,0.0,0.0,0.0,0.0,0.0,0.0,0.0,0.0,0.0,0.0,-0.5028,-0.4821,-0.4881,-0.4538,-0.4715,-0.5648,-0.3842,-0.2936,-0.2891,-0.0972,0.0,0.0,0.0,0.0,0.0,0.0,0.0,0.0,0.0,0.0,0.0,0.0,0.0,0.0,0.0,0.0,0.0,0.0,0.0,0.0,0.0,0.0,0.0,0.0,0.0,0.0,0.0,0.0,0.0,0.0,0.0,0.0,0.0,0.0,0.0,0.0,0.0,0.0,0.0,0.0,0.0,0.0,0.0,0.0,0.0,0.0,0.0,0.0,0.0,0.0,0.0,0.0,0.0,0.0,0.0,0.0,0.0,0.0,0.0,0.0,0.0,0.0,0.0,0.0,0.0,0.0,0.0,0.0,0.0,0.0,0.0,0.0,0.0,0.0,0.0,0.0,0.0,0.0,0.0,0.1167,0.304,0.3069,0.6382,1.1544,1.4869,1.6083,1.6083,0.0,0.0,0.0,0.0,0.0,0.0,0.0,0.0,0.0,0.0,0.0,0.0,0.0,0.0,0.0,0.0,0.0,0.0,0.0,-0.3823,-0.2923,-0.2934,-0.1331,-0.2125,-0.5726,-0.3896,-0.2887,-0.2891,-0.0988,0.0,0.0,0.0,0.0,0.0,0.0,0.0,0.0,0.0,0.0,0.0,0.0,0.0,0.0,0.0,0.0,0.0,0.0,0.0,0.0,0.0,0.0,0.0,0.0,0.0,0.0,0.0,0.0,0.0,0.0,0.0,0.0,0.0,0.0,0.0,0.0,0.0,0.0,0.0,0.0,0.0,0.0,0.0,0.0,0.0,0.0,0.0,0.0,0.0,0.0,0.0,0.0,0.0,0.0,0.0,0.0,0.0,0.0,0.0,0.0,0.0,0.0,0.0,0.0,0.0,0.0,0.0,0.0,0.0,0.0,0.0,0.0,0.0,0.0,0.0,0.0,0.0,0.0,0.0,0.0097,0.0295,0.0298,0.3596,0.8943,1.4165,1.6083,1.6083,0.0,0.0,0.0,0.0,0.0,0.0,0.0,0.0,0.0,0.0,0.0,0.0,0.0,0.0,0.0,0.0,0.0,0.0,0.0,-0.1423,-0.103,-0.105,-0.0353,-0.0716,-0.2183,-0.1475,-0.1118,-0.1127,-0.0382,0.0,0.0,0.0,0.0,0.0,0.0,0.0,0.0,0.0,0.0,0.0,0.0,0.0,0.0,0.0,0.0,0.0,0.0,0.0,0.0,0.0,0.0,0.0,0.0,0.0,0.0,0.0,0.0,0.0,0.0,0.0,0.0,0.0,0.0,0.0,0.0,0.0,0.0,0.0,0.0,0.0,0.0,0.0,0.0,0.0,0.0,0.0,0.0,0.0,0.0,0.0,0.0,0.0,0.0,0.0,0.0,0.0,0.0,0.0,0.0,0.0,0.0,0.0,0.0,0.0,0.0,0.0,0.0,0.0,0.0,0.0,0.0,0.0,0.0,0.0,0.0,0.0,0.0,0.0,0.0,0.0195,0.1878,0.3696,0.6132,1.1649,1.3655,1.386,0.0,0.0,0.0,0.0,0.0,0.0,0.0,0.0,0.0,0.0,0.0,0.0,0.0,0.0,0.0,0.0,0.0,0.0,-0.0269,0.0,0.0,0.0,0.0,0.0,0.0,0.0,0.0,0.0,0.0,0.0,0.0,0.0,0.0,0.0,0.0,0.0,0.0,0.0,0.0,0.0,0.0,0.0,0.0,0.0,0.0,0.0,0.0,0.0,0.0,0.0,0.0,0.0,0.0,0.0,0.0,0.0,0.0,0.0,0.0,0.0,0.0,0.0,0.0,0.0,0.0,0.0,0.0,0.0,0.0,0.0,0.0,0.0,0.0,0.0,0.0,0.0,0.0,0.0,0.0,0.0,0.0,0.0,0.0,0.0,0.0,0.0,0.0,0.0,0.0,0.0,0.0,0.0,0.0,0.0,0.0,0.0,0.0,0.0,0.0,0.0,0.0,0.0,0.0,0.0,0.0,0.0,0.0,0.0,0.0,0.0292,0.2963,0.3994,0.4527,0.914,1.1344,1.2348,0.0,0.0,0.0,0.0,0.0,0.0,0.0,0.0,-1.0724,-1.0724,-1.0724,0.0,0.0,0.0,0.0,0.0,0.0,0.0,-0.0269,0.0,0.0,0.0,0.0,0.0,0.0,0.0,0.0,0.0,0.0,0.0,0.0,0.0,0.0,0.0,0.0,0.0,0.0,0.0,0.0,0.0,0.0,0.0,0.0,0.0,0.0,0.0,0.0,0.0,0.0,0.0,0.0,0.0,0.0,0.0,0.0,0.0,0.0,0.0,0.0,0.0,0.0,0.0,0.0,0.0,0.0,0.0,0.0,0.0,0.0,0.0,0.0,0.0,0.0,0.0,0.0,0.0,0.0,0.0,0.0,0.0,0.0,0.0,0.0,0.0,0.0,0.0,0.0,0.0,0.0,0.0,0.0,0.0,0.0,0.0,0.0,0.0,0.0,0.0,0.0,0.0,0.0,0.0,0.0,0.0,0.0,0.0,0.0,0.0,0.0,0.0295,0.297,0.3994,0.4326,0.6935,0.964,1.2048,0.0,0.0,0.0,0.0,0.0,0.0,0.0,0.0,-1.0995,-1.0826,-1.0813,0.0,0.0,0.0,0.0,0.0,0.0,0.0,-0.0135,0.0,0.0,0.0,0.0,0.0,0.0,0.0,0.0,0.0,0.0,0.0,0.0,0.0,0.0,0.0,0.0,0.0,0.0,0.0,0.0,0.0,0.0,0.0,0.0,0.0,0.0,0.0,0.0,0.0,0.0,0.0,0.0,0.0,0.0,0.0,0.0,0.0,0.0,0.0,0.0,0.0,0.0,0.0,0.0,0.0,0.0,0.0,0.0,0.0,0.0,0.0,0.0,0.0,0.0,0.0,0.0,0.0,0.0,0.0,0.0,0.0,0.0,0.0,0.0,0.0,0.0,0.0,0.0,0.0,0.0,0.0,0.0,0.0,0.0,0.0,0.0,0.0,0.0,0.0,0.0,0.0,0.0,0.0,0.0,0.0,0.0,0.0,0.0,0.0,0.0,0.0098,0.0892,0.1201,0.1513,0.4227,0.5731,0.6634,0.0,0.0,0.0,0.0,0.0,0.0,-1.1151,-1.1234,-1.1111,-1.09,-1.088,-1.0826,0.0,0.0,0.0,-0.5629,-0.4426,-0.2685,-0.0135,0.0,0.0,0.0,0.0,0.0,0.0,0.0,0.0,0.0,0.0,0.0,0.0,0.0,0.0,0.0,0.0,0.0,0.0,0.0,0.0,0.0,0.0,0.0,0.0,0.0,0.0,0.0,0.0,0.0,0.0,0.0,0.0,0.0,0.0,0.0,0.0,0.0,0.0,0.0,0.0,0.0,0.0,0.0,0.0,0.0,0.0,0.0,0.0,0.0,0.0,0.0,0.0,0.0,0.0,0.0,0.0,0.0,0.0,0.0,0.0,0.0,0.0,0.0,0.0,0.0,0.0,0.0,0.0,0.0,0.0,0.0,0.0,0.0,0.0,0.0,0.0,0.0,0.0,0.0,0.0,0.0,0.0,0.0,0.0,0.0,0.0,0.0,0.0,0.0,0.0,0.0,0.0,0.0,0.0202,0.1815,0.3122,0.4226,0.0,0.0,0.0,0.0,0.0,0.0,-1.1199,-1.1275,-1.1151,-1.0941,-1.0907,-1.084,0.0,0.0,0.0,-0.5696,-0.5095,-0.3488,-0.0202,0.0,0.0,0.0,0.0,0.0,0.0,0.0,0.0,0.0,0.0,0.0,0.0,0.0,0.0,0.0,0.0,0.0,0.0,0.0,0.0,0.0,0.0,0.0,0.0,0.0,0.0,0.0,0.0,0.0,0.0,0.0,0.0,0.0,0.0,0.0,0.0,0.0,0.0,0.0,0.0,0.0,0.0,0.0,0.0,0.0,0.0,0.0,0.0,0.0,0.0,0.0,0.0,0.0,0.0,0.0,0.0,0.0,0.0,0.0,0.0,0.0,0.0,0.0,0.0,0.0,0.0,0.0,0.0,0.0,0.0,0.0,0.0,0.0,0.0,0.0,0.0,0.0,0.0,0.0,0.0,0.0,0.0,0.0,0.0,0.0,0.0,0.0,0.0,0.0,0.0,0.0,0.0,0.0,0.0,0.0,0.1513,0.3624,0.0,0.0,0.0,0.0,0.0,0.0,-1.1504,-1.1518,-1.1463,-1.1314,-1.1192,-1.1063,-1.0847,-0.8293,0.0,-0.5496,-0.2819,-0.0807,-0.0067,0.0,0.0,0.0,0.0,0.0,0.0,0.0,0.0,0.0,0.0,0.0,0.0,0.0,0.0,0.0,0.0,0.0,0.0,0.0,0.0,0.0,0.0,0.0,0.0,0.0,0.0,0.0,0.0,0.0,0.0,0.0,0.0,0.0,0.0,0.0,0.0,0.0,0.0,0.0,0.0,0.0,0.0,0.0,0.0,0.0,0.0,0.0,0.0,0.0,0.0,0.0,0.0,0.0,0.0,0.0,0.0,0.0,0.0,0.0,0.0,0.0,0.0,0.0,0.0,0.0,0.0,0.0,0.0,0.0,0.0,0.0,0.0,0.0,0.0,0.0,0.0,0.0,0.0,0.0,0.0,0.0,0.0,0.0,0.0,0.0,0.0,0.0,0.0,0.0,0.0,0.0,0.0,0.0,0.0,0.0,0.0404,0.0908,0.0,0.0,0.0,0.0,0.0,0.0,0.0,0.0,-1.1565,-1.1409,-1.126,-1.0829,-0.9795,-0.7833,0.0,0.0,-0.235,-0.0941,-0.0067,0.0,0.0,0.0,0.0,0.0,0.0,0.0,0.0,0.0,0.0,0.0,0.0,0.0,0.0,0.0,0.0,0.0,0.0,0.0,0.0,0.0,0.0,0.0,0.0,0.0,0.0,0.0,0.0,0.0,0.0,0.0,0.0,0.0,0.0,0.0,0.0,0.0,0.0,0.0,0.0,0.0,0.0,0.0,0.0,0.0,0.0,0.0,0.0,0.0,0.0,0.0,0.0,0.0,0.0,0.0,0.0,0.0,0.0,0.0,0.0,0.0,0.0,0.0,0.0,0.0,0.0,0.0,0.0,0.0,0.0,0.0,0.0,0.0,0.0,0.0,0.0,0.0,0.0,0.0,0.0,0.0,0.0,0.0,0.0,0.0,0.0,0.0,0.0,0.0,0.0,0.0,0.0,0.0,0.0,0.0,0.0,0.0,0.0,0.0,0.0,0.0,0.0,0.0,0.0,0.0,0.0,-1.145,-1.1274,-1.056,-0.8995,-0.8045,-0.636,0.0,0.0,0.0,-0.0067,0.0,0.0,0.0,0.0,0.0,0.0,0.0,0.0,0.0,0.0,0.0,0.0,0.0,0.0,0.0,0.0,0.0,0.0,0.0,0.0,0.0,0.0,0.0,0.0,0.0,0.0,0.0,0.0,0.0,0.0,0.0,0.0,0.0,0.0,0.0,0.0,0.0,0.0,0.0,0.0,0.0,0.0,0.0,0.0,0.0,0.0,0.0,0.0,0.0,0.0,0.0,0.0,0.0,0.0,0.0,0.0,0.0,0.0,0.0,0.0,0.0,0.0,0.0,0.0,0.0,0.0,0.0,0.0,0.0,0.0,0.0,0.0,0.0,0.0,0.0,0.0,0.0,0.0,0.0,0.0,0.0,0.0,0.0,0.0,0.0,0.0,0.0,0.0,0.0,0.0,0.0,0.0,0.0,0.0,0.0,0.0,0.0,0.0,0.0,0.0,0.0,0.0,0.0,0.0,0.0,0.0,0.0,-1.1341,-1.1082,-1.0856,-0.7752,-0.5563,-0.5095,-0.2148,-0.0269,0.0,0.0,0.0,0.0,0.0,0.0,0.0,0.0,0.0,0.0,0.0,0.0,0.0,0.0,0.0,0.0,0.0,0.0,0.0,0.0,0.0,0.0,0.0,0.0,0.0,0.0,0.0,0.0,0.0,0.0,0.0,0.0,0.0,0.0,0.0,0.0,0.0,0.0,0.0,0.0,0.0,0.0,0.0,0.0,0.0,0.0,0.0,0.0,0.0,0.0,0.0,0.0,0.0,0.0,0.0,0.0,0.0,0.0,0.0,0.0,0.0,0.0,0.0,0.0,0.0,0.0,0.0,0.0,0.0,0.0,0.0,0.0,0.0,0.0,0.0,0.0,0.0,0.0,0.0,0.0,0.0,0.0,0.0,0.0,0.0,0.0,0.0,0.0,0.0,0.0,0.0,0.0,0.0,0.0,0.0,0.0,0.0,0.0,0.0,0.0,0.0,0.0,0.0,0.0,0.0,0.0,0.0,0.0,0.0,-1.048,-0.8377,-0.6582,-0.4665,-0.2553,-0.0941,0.0,0.0,0.0,0.0,0.0,0.0,0.0,0.0,0.0,0.0,0.0,0.0,0.0,0.0,0.0,0.0,0.0,0.0,0.0,0.0,0.0,0.0,0.0,0.0,0.0,0.0,0.0,0.0,0.0,0.0,0.0,0.0,0.0,0.0,0.0,0.0,0.0,0.0,0.0,0.0,0.0,0.0,0.0,0.0,0.0,0.0,0.0,0.0,0.0,0.0,0.0,0.0,0.0,0.0,0.0,0.0,0.0,0.0,0.0,0.0,0.0,0.0,0.0,0.0,0.0,0.0,0.0,0.0,0.0,0.0,0.0,0.0,0.0,0.0,0.0,0.0,0.0,0.0,0.0,0.0,0.0,0.0,0.0,0.0,0.0,0.0,0.0,0.0,0.0,0.0,0.0,0.0,0.0,0.0,0.0,0.0,0.0,0.0,0.0,0.0,0.0,0.0,0.0,0.0,0.0,0.0,0.0,0.0,0.0,0.0,-0.9566,-0.6807,0.0,0.0,0.0,-0.027,0.0,0.0,0.0,0.0,0.0,0.0,0.0,0.0,0.0,0.0,0.0,0.0,0.0,0.0,0.0,0.0,0.0,0.0,0.0,0.0,0.0,0.0,0.0,0.0,0.0,0.0,0.0,0.0,0.0,0.0,0.0,0.0,0.0,0.0,0.0,0.0,0.0,0.0,0.0,0.0,0.0,0.0,0.0,0.0,0.0,0.0,0.0,0.0,0.0,0.0,0.0,0.0,0.0,0.0,0.0,0.0,0.0,0.0,0.0,0.0,0.0,0.0,0.0,0.0,0.0,0.0,0.0,0.0,0.0,0.0,0.0,0.0,0.0,0.0,0.0,0.0,0.0,0.0,0.0,0.0,0.0,0.0,0.0,0.0,0.0,0.0,0.0,0.0,0.0,0.0,0.0,0.0,0.0,0.0,0.0,0.0,0.0,0.0,0.0,0.0,0.0,0.0,0.0,0.0,0.0,0.0,0.0,0.0,0.0,0.0,-0.8601,-0.8379,-0.5074,-0.274,-0.2603,-0.1016,0.0,0.0,0.0,0.0,0.0,0.0,0.0,0.0,0.0,0.0,0.0,0.0,0.0,0.0,0.0,0.0,0.0,0.0,0.0,0.0,0.0,0.0,0.0,0.0,0.0,0.0,0.0,0.0,0.0,0.0,0.0,0.0,0.0,0.0,0.0,0.0,0.0,0.0,0.0,0.0,0.0,0.0,0.0,0.0,0.0,0.0,0.0,0.0,0.0,0.0,0.0,0.0,0.0,0.0,0.0,0.0,0.0,0.0,0.0,0.0,0.0,0.0,0.0,0.0,0.0,0.0,0.0,0.0,0.0,0.0,0.0,0.0,0.0,0.0,0.0,0.0,0.0,0.0,0.0,0.0,0.0,0.0,0.0,0.0,0.0,0.0,0.0,0.0,0.0,0.0,0.0,0.0,0.0,0.0,0.0,0.0,0.0,0.0,0.0,0.0,0.0,0.0,0.0,0.0,0.0,0.0,0.0,0.0,0.0,0.0,0.0,0.0,-0.3674,-0.2313,-0.1044,-0.0344,0.0,0.0,0.0,0.0,0.0,0.0,0.0,0.0,0.0,0.0,0.0,0.0,0.0,0.0,0.0,0.0,0.0,0.0,0.0,0.0,0.0,0.0,0.0,0.0,0.0,0.0,0.0,0.0,0.0,0.0,0.0,0.0,0.0,0.0,0.0,0.0,0.0,0.0,0.0,0.0,0.0,0.0,0.0,0.0,0.0,0.0,0.0,0.0,0.0,0.0,0.0,0.0,0.0,0.0,0.0,0.0,0.0,0.0,0.0,0.0,0.0,0.0,0.0,0.0,0.0,0.0,0.0,0.0,0.0,0.0,0.0,0.0,0.0,0.0,0.0,0.0,0.0,0.0,0.0,0.0,0.0,0.0,0.0,0.0,0.0,0.0,0.0,0.0,0.0,0.0,0.0,0.0,0.0,0.0,0.0,0.0,0.0,0.0,0.0,0.0,0.0,0.0,0.0,0.0,0.0,0.0,0.0,-0.9939,-0.7977,0.0,0.0,0.0,0.0,-0.1418,-0.014,0.0,0.0,0.0,0.0,0.0,0.0,0.0,0.0,0.0,0.0,0.0,0.0,0.0,0.0,0.0,0.0,0.0,0.0,0.0,0.0,0.0,0.0,0.0,0.0,0.0,0.0,0.0,0.0,0.0,0.0,0.0,0.0,0.0,0.0,0.0,0.0,0.0,0.0,0.0,0.0,0.0,0.0,0.0,0.0,0.0,0.0,0.0,0.0,0.0,0.0,0.0,0.0,0.0,0.0,0.0,0.0,0.0,0.0,0.0,0.0,0.0,0.0,0.0,0.0,0.0,0.0,0.0,0.0,0.0,0.0,0.0,0.0,0.0,0.0,0.0,0.0,0.0,0.0,0.0,0.0,0.0,0.0,0.0,0.0,0.0,0.0,0.0,0.0,0.0,0.0,0.0,0.0,0.0,0.0,0.0,0.0,0.0,0.0,0.0,0.0,0.0,0.0,0.0,0.0,0.0,0.0,0.0,0.0,-0.7905,-0.5953,0.0,0.0,0.0,0.0,0.0,0.0,0.0,0.0,0.0,0.0,0.0,0.0,0.0,0.0,0.0,0.0,0.0,0.0,0.0,0.0,0.0,0.0,0.0,0.0,0.0,0.0,0.0,0.0,0.0,0.0,0.0,0.0,0.0,0.0,0.0,0.0,0.0,0.0,0.0,0.0,0.0,0.0,0.0,0.0,0.0,0.0,0.0,0.0,0.0,0.0,0.0,0.0,0.0,0.0,0.0,0.0,0.0,0.0,0.0,0.0,0.0,0.0,0.0,0.0,0.0,0.0,0.0,0.0,0.0,0.0,0.0,0.0,0.0,0.0,0.0,0.0,0.0,0.0,0.0,0.0,0.0,0.0,0.0,0.0,0.0,0.0,0.0,0.0,0.0,0.0,0.0,0.0,0.0,0.0,0.0,0.0,0.0,0.0,0.0,0.0,0.0,0.0,0.0,0.0,0.0,0.0,0.0,0.0,0.0,0.0,0.0,-0.8853,-0.6894,-0.6604,-0.5881,0.0,0.0,0.0,-0.0947,-0.0291,0.0,0.0,0.0,0.0,0.0,0.0,0.0,0.0,0.0,0.0,0.0,0.0,0.0,0.0,0.0,0.0,0.0,0.0,0.0,0.0,0.0,0.0,0.0,0.0,0.0,0.0,0.0,0.0,0.0,0.0,0.0,0.0,0.0,0.0,0.0,0.0,0.0,0.0,0.0,0.0,0.0,0.0,0.0,0.0,0.0,0.0,0.0,0.0,0.0,0.0,0.0,0.0,0.0,0.0,0.0,0.0,0.0,0.0,0.0,0.0,0.0,0.0,0.0,0.0,0.0,0.0,0.0,0.0,0.0,0.0,0.0,0.0,0.0,0.0,0.0,0.0,0.0,0.0,0.0,0.0,0.0,0.0,0.0,0.0,0.0,0.0,0.0,0.0,0.0,0.0,0.0,0.0,0.0,0.0,0.0,0.0,0.0,0.0,0.0,0.0,0.0,0.0,0.0,0.0,-1.0011,-0.892,-0.8049,-0.6821,-0.4866,-0.4576,-0.3923,0.0,0.0,0.0,-0.0146,0.0,0.0,0.0,0.0,0.0,0.0,0.0,0.0,0.0,0.0,0.0,0.0,0.0,0.0,0.0,0.0,0.0,0.0,0.0,0.0,0.0,0.0,0.0,0.0,0.0,0.0,0.0,0.0,0.0,0.0,0.0,0.0,0.0,0.0,0.0,0.0,0.0,0.0,0.0,0.0,0.0,0.0,0.0,0.0,0.0,0.0,0.0,0.0,0.0,0.0,0.0,0.0,0.0,0.0,0.0,0.0,0.0,0.0,0.0,0.0,0.0,0.0,0.0,0.0,0.0,0.0,0.0,0.0,0.0,0.0,0.0,0.0,0.0,0.0,0.0,0.0,0.0,0.0,0.0,0.0,0.0,0.0,0.0,0.0,0.0,0.0,0.0,0.0,0.0,0.0,0.0,0.0,0.0,0.0,0.0,0.0,0.0,0.0,0.0,0.0,0.0,0.0,0.0,0.0,0.0,-0.8338,-0.8121,-0.6604,-0.4794,-0.2909,-0.2545,-0.1965,0.0,0.0,0.0,0.0,0.0,0.0,0.0,0.0,0.0,0.0,0.0,0.0,0.0,0.0,0.0,0.0,0.0,0.0,0.0,0.0,0.0,0.0,0.0,0.0,0.0,0.0,0.0,0.0,0.0,0.0,0.0,0.0,0.0,0.0,0.0,0.0,0.0,0.0,0.0,0.0,0.0,0.0,0.0,0.0,0.0,0.0,0.0,0.0,0.0,0.0,0.0,0.0,0.0,0.0,0.0,0.0,0.0,0.0,0.0,0.0,0.0,0.0,0.0,0.0,0.0,0.0,0.0,0.0,0.0,0.0,0.0,0.0,0.0,0.0,0.0,0.0,0.0,0.0,0.0,0.0,0.0,0.0,0.0,0.0,0.0,0.0,0.0,0.0,0.0,0.0,0.0,0.0,0.0,0.0,0.0,0.0,0.0,0.0,0.0,0.0,0.0,0.0,0.0,0.0,0.0,0.0,0.0,-0.9285,-0.7688,-0.5881,-0.4283,-0.3705,-0.2836,-0.0874,-0.0583,-0.0438,-0.0073,0.0,0.0,0.0,0.0,0.0,0.0,0.0,0.0,0.0,0.0,0.0,0.0,0.0,0.0,0.0,0.0,0.0,0.0,0.0,0.0,0.0,0.0,0.0,0.0,0.0,0.0,0.0,0.0,0.0,0.0,0.0,0.0,0.0,0.0,0.0,0.0,0.0,0.0,0.0,0.0,0.0,0.0,0.0,0.0,0.0,0.0,0.0,0.0,0.0,0.0,0.0,0.0,0.0,0.0,0.0,0.0,0.0,0.0,0.0,0.0,0.0,0.0,0.0,0.0,0.0,0.0,0.0,0.0,0.0,0.0,0.0,0.0,0.0,0.0,0.0,0.0,0.0,0.0,0.0,0.0,0.0,0.0,0.0,0.0,0.0,0.0,0.0,0.0,0.0,0.0,0.0,0.0,0.0,0.0,0.0,0.0,0.0,0.0,0.0,0.0,0.0,0.0,0.0,0.0,0.0,0.0,-0.7472,-0.5663,-0.4068,-0.3054,-0.211,-0.1093,-0.0146,0.0,0.0,0.0,0.0,0.0,0.0,0.0,0.0,0.0,0.0,0.0,0.0,0.0,0.0,0.0,0.0,0.0,0.0,0.0,0.0,0.0,0.0,0.0,0.0,0.0,0.0,0.0,0.0,0.0,0.0,0.0,0.0,0.0,0.0,0.0,0.0,0.0,0.0,0.0,0.0,0.0,0.0,0.0,0.0,0.0,0.0,0.0,0.0,0.0,0.0,0.0,0.0,0.0,0.0,0.0,0.0,0.0,0.0,0.0,0.0,0.0,0.0,0.0,0.0,0.0,0.0,0.0,0.0,0.0,0.0,0.0,0.0,0.0,0.0,0.0,0.0,0.0,0.0,0.0,0.0,0.0,0.0,0.0,0.0,0.0,0.0,0.0,0.0,0.0,0.0,0.0,0.0,0.0,0.0,0.0,0.0,0.0,0.0,0.0,0.0,0.0,0.0,0.0,0.0,0.0,0.0,0.0,0.0,0.0,-0.5518,-0.3708,-0.2328,-0.2328,-0.102,0.0,0.0,0.0,0.0,0.0,0.0,0.0,0.0,0.0,0.0,0.0,0.0,0.0,0.0,0.0,0.0,0.0,0.0,0.0,0.0,0.0,0.0,0.0,0.0,0.0,0.0,0.0,0.0,0.0,0.0,0.0,0.0,0.0,0.0,0.0,0.0,0.0,0.0,0.0,0.0,0.0,0.0,0.0,0.0,0.0,0.0,0.0,0.0,0.0,0.0,0.0,0.0,0.0,0.0,0.0,0.0,0.0,0.0,0.0,0.0,0.0,0.0,0.0,0.0,0.0,0.0,0.0,0.0,0.0,0.0,0.0,0.0,0.0,0.0,0.0,0.0,0.0,0.0,0.0,0.0,0.0,0.0,0.0,0.0,0.0,0.0,0.0,0.0,0.0,0.0,0.0,0.0,0.0,0.0,0.0,0.0,0.0,0.0,0.0,0.0,0.0,0.0,0.0,0.0,0.0,0.0,0.0,0.0,0.0,0.0,0.0,-0.327,-0.1675,-0.0365,-0.0365,-0.0146,0.0,0.0,0.0,0.0,0.0,0.0,0.0,0.0,0.0,0.0,0.0,0.0,0.0,0.0,0.0,0.0,0.0,0.0,0.0,0.0,0.0,0.0,0.0,0.0,0.0,0.0,0.0,0.0,0.0,0.0,0.0,0.0,0.0,0.0,0.0,0.0,0.0,0.0,0.0,0.0,0.0,0.0,0.0,0.0,0.0,0.0,0.0,0.0,0.0,0.0,0.0,0.0,0.0,0.0,0.0,0.0,0.0,0.0,0.0,0.0,0.0,0.0,0.0,0.0,0.0,0.0,0.0,0.0,0.0,0.0,0.0,0.0,0.0,0.0,0.0,0.0,0.0,0.0,0.0,0.0,0.0,0.0,0.0,0.0,0.0,0.0,0.0,0.0,0.0,0.0,0.0,0.0,0.0,0.0,0.0,0.0,0.0,0.0,0.0,0.0,0.0,0.0,0.0,0.0,0.0,0.0,0.0,0.0,0.0,0.0,0.0,-0.1239,-0.0583,0.0,0.0,0.0,0.0,0.0,0.0,0.0,0.0,0.0,0.0,0.0,0.0,0.0,0.0,0.0,0.0,0.0,0.0,0.0,0.0,0.0,0.0,0.0,0.0,0.0,0.0,0.0,0.0,0.0,0.0,0.0,0.0,0.0,0.0,0.0,0.0,0.0,0.0,0.0,0.0,0.0,0.0,0.0,0.0,0.0,0.0,0.0,0.0,0.0,0.0,0.0,0.0,0.0,0.0,0.0,0.0,0.0,0.0,0.0,0.0,0.0,0.0,0.0,0.0,0.0,0.0,0.0,0.0,0.0,0.0,0.0,0.0,0.0,0.0,0.0,0.0,0.0,0.0,0.0,0.0,0.0,0.0,0.0,0.0,0.0,0.0,0.0,0.0,0.0,0.0,0.0,0.0,0.0,0.0,0.0,0.0,0.0,0.0,0.0,0.0,0.0,0.0,0.0,0.0,0.0,0.0,0.0,0.0,0.0,0.0,0.0,0.0,0.0,0.0,0.0,0.0,0.0,0.0,0.0,0.0,0.0,0.0,0.0,0.0,0.0,0.0,0.0,0.0,0.0,0.0,0.0,0.0,0.0,0.0,0.0,0.0,0.0,0.0,0.0,0.0,0.0,0.0,0.0,0.0,0.0,0.0,0.0,0.0,0.0,0.0,0.0,0.0,0.0,0.0,0.0,0.0,0.0,0.0,0.0,0.0,0.0,0.0,0.0,0.0,0.0,0.0,0.0,0.0,0.0,0.0,0.0,0.0,0.0,0.0,0.0,0.0,0.0,0.0,0.0,0.0,0.0,0.0,0.0,0.0,0.0,0.0,0.0,0.0,0.0,0.0,0.0,0.0,0.0,0.0,0.0,0.0,0.0,0.0,0.0,0.0,0.0,0.0,0.0,0.0,0.0,0.0,0.0,0.0,0.0,0.0,0.0,0.0,0.0,0.0,0.0,0.0,0.0,0.0,0.0,0.0,0.0,0.0,0.0,0.0,0.0,0.0,0.0,0.0,0.0,0.0,0.0,0.0,0.0,0.0,0.0,0.0,0.0,0.0,0.0,0.0,0.0,0.0,0.0,0.0,0.0,0.0,0.0,0.0,0.0,0.0,0.0,0.0,0.0,0.0,0.0,0.0,0.0,0.0,0.0,0.0,0.0,0.0,0.0,0.0,0.0,0.0,0.0,0.0,0.0,0.0,0.0,0.0,0.0,0.0,0.0,0.0,0.0,0.0,0.0,0.0,0.0,0.0,0.0,0.0,0.0,0.0,0.0,0.0,0.0,0.0,0.0,0.0,0.0,0.0,0.0,0.0,0.0,0.0,0.0,0.0,0.0,0.0,0.0,0.0,0.0,0.0,0.0,0.0,0.0,0.0,0.0,0.0,0.0,0.0,0.0,0.0,0.0,0.0,0.0,0.0,0.0,0.0,0.0,0.0,0.0,0.0,0.0,0.0,0.0,0.0,0.0,0.0,0.0,0.0,0.0,0.0,0.0,0.0,0.0,0.0,0.0,0.0,0.0,0.0,0.0,0.0,0.0,0.0,0.0,0.0,0.0,0.0,0.0,0.0,0.0,0.0,0.0,0.0,0.0,0.0,0.0,0.0,0.0,0.0,0.0,0.0,0.0,0.0,0.0,0.0,0.0,0.0,0.0,0.0,0.0,0.0,0.0,0.0,0.0,0.0,0.0,0.0,0.0,0.0,0.0,0.0,0.0,0.0,0.0,0.0,0.0,0.0,0.0,0.0,0.0,0.0,0.0,0.0,0.0,0.0,0.0,0.0,0.0,0.0,0.0,0.0,0.0,0.0,0.0,0.0,0.0,0.0,0.0,0.0,0.0,0.0,0.0,0.0,0.0,0.0,0.0,0.0,0.0,0.0,0.0,0.0,0.0,0.0,0.0,0.0,0.0,0.0,0.0,0.0,0.0,0.0,0.0,0.0,0.0,0.0,0.0,0.0,0.0,0.0,0.0,0.0,0.0,0.0,0.0,0.0,0.0,0.0,0.0,0.0,0.0,0.0,0.0,0.0,0.0,0.0,0.0,0.0,0.0,0.0,0.0,0.0,0.0,0.0,0.0,0.0,0.0,0.0,0.0,0.0,0.0,0.0,0.0,0.0,0.0,0.0,0.0,0.0,0.0,0.0,0.0,0.0,0.0,0.0,0.0,0.0,0.0,0.0,0.0,0.0,0.0,0.0,0.0,0.0,0.0,0.0,0.0,0.0,0.0,0.0,0.0,0.0,0.0,0.0,0.0,0.0,0.0,0.0,0.0,0.0,0.0,0.0,0.0,0.0,0.0,0.0,0.0,0.0,0.0,0.0,0.0,0.0,0.0,0.0,0.0,0.0,0.0,0.0,0.0,0.0,0.0,0.0,0.0,0.0,0.0,0.0,0.0,0.0,0.0,0.0,0.0,0.0,0.0,0.0,0.0,0.0,0.0,0.0,0.0,0.0,0.0,0.0,0.0,0.0,0.0,0.0,0.0,0.0,0.0,0.0,0.0,0.0,0.0,0.0,0.0,0.0,0.0,0.0,0.0,0.0,0.0,0.0,0.0,0.0,0.0,0.0,0.0,0.0,0.0,0.0,0.0,0.0,0.0,0.0,0.0,0.0,0.0,0.0,0.0,0.0,0.0,0.0,0.0,0.0,0.0,0.0,0.0,0.0,0.0,0.0,0.0,0.0,0.0,0.0,0.0,0.0,0.0,0.0,0.0,0.0,0.0,0.0,0.0,0.0,0.0,0.0,0.0,0.0,0.0,0.0,0.0,0.0,0.0,0.0,0.0,0.0,0.0,0.0,0.0,0.0,0.0,0.0,0.0,0.0,0.0,0.0,0.0,0.0,0.0,0.0,0.0,0.0,0.0,0.0,0.0,0.0,0.0,0.0,0.0,0.0,0.0,0.0,0.0,0.0,0.0,0.0,0.0,0.0,0.0,0.0,0.0,0.0,0.0,0.0,0.0,0.0,0.0,0.0,0.0,0.0,0.0,0.0,0.0,0.0,0.0,0.0,0.0,0.0,0.0,0.0,0.0,0.0,0.0,0.0,0.0,0.0,0.0,0.0,0.0,0.0,0.0,0.0,0.0,0.0,0.0,0.0,0.0,0.0,0.0,0.0,0.0,0.0,0.0,0.0,0.0,0.0,0.0,0.0,0.0,0.0,0.0,0.0,0.0,0.0,0.0,0.0,0.0,0.0,0.0,0.0,0.0,0.0,0.0,0.0,0.0,0.0,0.0,0.0,0.0,0.0,0.0,0.0,0.0,0.0,0.0,0.0,0.0,0.0,0.0,0.0,0.0,0.0,0.0,0.0,0.0,0.0,0.0,0.0,0.0,0.0,0.0,0.0,0.0,0.0,0.0,0.0,0.0,0.0,0.0,0.0,0.0,0.0,0.0,0.0,0.0,0.0,0.0,0.0,0.0,0.0,0.0,0.0,0.0,0.0,0.0,0.0,0.0,0.0,0.0,0.0,0.0,0.0,0.0,0.0,0.0,0.0,0.0,0.0,0.0,0.0,0.0,0.0,0.0,0.0,0.0,0.0,0.0,0.0,0.0,0.0,0.0,0.0,0.0,0.0,0.0,0.0,0.0,0.0,0.0,0.0,0.0,0.0,0.0,0.0,0.0,0.0,0.0,0.0,0.0,0.0,0.0,0.0,0.0,0.0,0.0,0.0,0.0,0.0,0.0,0.0,0.0,0.0,0.0,0.0,0.0,0.0,0.0,0.0,0.0,0.0,0.0,0.0,0.0,0.0,0.0,0.0,0.0,0.0,0.0,0.0,0.0,0.0,0.0,0.0,0.0,0.0,0.0,0.0,0.0,0.0,0.0,0.0,0.0,0.0,0.0,0.0,0.0,0.0,0.0,0.0,0.0,0.0,0.0,0.0,0.0,0.0,0.0,0.0,0.0,0.0,0.0,0.0,0.0,0.0,0.0,0.0,0.0,0.0,0.0,0.0,0.0,0.0,0.0,0.0,0.0,0.0,0.0,0.0,0.0,0.0,0.0,0.0,0.0,0.0,0.0,0.0,0.0,0.0,0.0,0.0,0.0,0.0,0.0,0.0,0.0,0.0,0.0,0.0,0.0,0.0,0.0,0.0,0.0,0.0,0.0,0.0,0.0,0.0,0.0,0.0,0.0,0.0,0.0,0.0,0.0,0.0,0.0,0.0,0.0,0.0,0.0,0.0,0.0,0.0,0.0,0.0,0.0,0.0,0.0,0.0,0.0,0.0,0.0,0.0,0.0,0.0,0.0,0.0,0.0,0.0,0.0,0.0,0.0,0.0,0.0,0.0,0.0,0.0,0.0,0.0,0.0,0.0,0.0,0.0,0.0,0.0,0.0,0.0,0.0,0.0,0.0,0.0,0.0,0.0,0.0,0.0,0.0,0.0,0.0,0.0,0.0,0.0,0.0,0.0,0.0,0.0,0.0,0.0,0.0,0.0,0.0,0.0,0.0,0.0,0.0,0.0,0.0,0.0,0.0,0.0,0.0,0.0,0.0,0.0,0.0,0.0,0.0,0.0,0.0,0.0,0.0,0.0,0.0,0.0,0.0,0.0,0.0,0.0,0.0,0.0,0.0,0.0,0.0,0.0,0.0,0.0,0.0,0.0,0.0,0.0,0.0,0.0,0.0,0.0,0.0,0.0,0.0,0.0,0.0,0.0,0.0,0.0,0.0,0.0,0.0,0.0,0.0,0.0,0.0,0.0,0.0,0.0,0.0,0.0,0.0,0.0,0.0,0.0,0.0,0.0,0.0,0.0,0.0,0.0,0.0,0.0,0.0,0.0,0.0,0.0,0.0,0.0,0.0,0.0,0.0,0.0,0.0,0.0,0.0,0.0,0.0,0.0,0.0,0.0,0.0,0.0,0.0,0.0,0.0,0.0,0.0,0.0,0.0,0.0,0.0,0.0,0.0,0.0,0.0,0.0,0.0,0.0,0.0,0.0,0.0,0.0,0.0,0.0,0.0,0.0,0.0,0.0,0.0,0.0,0.0,0.0,0.0,0.0,0.0,0.0,0.0,0.0,0.0,0.0,0.0,0.0,0.0,0.0,0.0,0.0,0.0,0.0,0.0,0.0,0.0,0.0,0.0,0.0,0.0,0.0,0.0,0.0,0.0,0.0,0.0,0.0,0.0,0.0,0.0,0.0,0.0,0.0,0.0,0.0,0.0,0.0,0.0,0.0,0.0,0.0,0.0,0.0,0.0,0.0,0.0,0.0,0.0,0.0,0.0,0.0,0.0,0.0,0.0,0.0,0.0,0.0,0.0,0.0,0.0,0.0,0.0,0.0,0.0,0.0,0.0,0.0,0.0,0.0,0.0,0.0,0.0,0.0,0.0,0.0,0.0,0.0,0.0,0.0,0.0,0.0,0.0,0.0,0.0,0.0,0.0,0.0,0.0,0.0,0.0,0.0,0.0,0.0,0.0,0.0,0.0,0.0,0.0,0.0,0.0,0.0,0.0,0.0,0.0,0.0,0.0,0.0,0.0,0.0,0.0,0.0,0.0,0.0,0.0,0.0,0.0,0.0,0.0,0.0,0.0,0.0,0.0,0.0,0.0,0.0,0.0,0.0,0.0,0.0,0.0,0.0,0.0,0.0,0.0,0.0,0.0,0.0,0.0,0.0,0.0,0.0,0.0,0.0,0.0,0.0,0.0,0.0,0.0,0.0,0.0,0.0,0.0,0.0,0.0,0.0,0.0,0.0,0.0,0.0,0.0,0.0,0.0,0.0,0.0,0.0,0.0,0.0,0.0,0.0,0.0,0.0,0.0,0.0,0.0,0.0,0.0,0.0,0.0,0.0,0.0,0.0,0.0,0.0,0.0,0.0,0.0,0.0,0.0,0.0,0.0,0.0,0.0,0.0,0.0,0.0,0.0,0.0,0.0,0.0,0.0,0.0,0.0,0.0,0.0,0.0,0.0,0.0,0.0,0.0,0.0,0.0,0.0,0.0,0.0,0.0,0.0,0.0,0.0,0.0,0.0,0.0,0.0,0.0,0.0,0.0,0.0,0.0,0.0,0.0,0.0,0.0,0.0,0.0,0.0,0.0,0.0,0.0,0.0,0.0,0.0,0.0,0.0,0.0,0.0,0.0,0.0,0.0,0.0,0.0,0.0,0.0,0.0,0.0,0.0,0.0,0.0,0.0,0.0,0.0,0.0,0.0,0.0,0.0,0.0,0.0,0.0,0.0,0.0,0.0,0.0,0.0,0.0,0.0,0.0,0.0,0.0,0.0,0.0,0.0,0.0,0.0,0.0,0.0,0.0,0.0,0.0,0.0,0.0,0.0,0.0,0.0,0.0,0.0,0.0,0.0,0.0,0.0,0.0,0.0,0.0,0.0,0.0,0.0,0.0,0.0,0.0,0.0,0.0,0.0,0.0,0.0,0.0,0.0,0.0,0.0,0.0,0.0,0.0,0.0,0.0,0.0,0.0,0.0,0.0,0.0,0.0,0.0,0.0,0.0,0.0,0.0,0.0,0.0,0.0,0.0,0.0,0.0,0.0,0.0,0.0,0.0,0.0,0.0,0.0,0.0,0.0,0.0,0.0,0.0,0.0,0.0,0.0,0.0,0.0,0.0,0.0,0.0,0.0,0.0,0.0,0.0,0.0,0.0,0.0,0.0,0.0,0.0,0.0,0.0,0.0,0.0,0.0,0.0,0.0,0.0,0.0,0.0,0.0,0.0,0.0,0.0,0.0,0.0,0.0,0.0,0.0,0.0,0.0,0.0,0.0,0.0,0.0,0.0,0.0,0.0,0.0,0.0,0.0,0.0,0.0,0.0,0.0,0.0,0.0,0.0,0.0,0.0,0.0,0.0,0.0,0.0,0.0,0.0,0.0,0.0,0.0,0.0,0.0,0.0,0.0,0.0,0.0,0.0,0.0,0.0,0.0,0.0,0.0,0.0,0.0,0.0,0.0,0.0,0.0,0.0,0.0,0.0,0.0,0.0,0.0,0.0,0.0,0.0,0.0,0.0,0.0,0.0,0.0,0.0,0.0,0.0,0.0,0.0,0.0,0.0,0.0,0.0,0.0,0.0,0.0,0.0,0.0,0.0,0.0,0.0,0.0,0.0,0.0,0.0,0.0,0.0,0.0,0.0,0.0,0.0,0.0,0.0,0.0,0.0,0.0,0.0,0.0,0.0,0.0,0.0,0.0,0.0,0.0,0.0,0.0,0.0,0.0,0.0,0.0,0.0,0.0,0.0,0.0,0.0,0.0,0.0,0.0,0.0,0.0,0.0,0.0,0.0,0.0,0.0,0.0,0.0,0.0,0.0,0.0,0.0,0.0,0.0,0.0,0.0,0.0,0.0,0.0,0.0,0.0,0.0,0.0,0.0,0.0,0.0,0.0,0.0,0.0,0.0,0.0,0.0,0.0,0.0,0.0,0.0,0.0,0.0,0.0,0.0,0.0,0.0,0.0,0.0,0.0,0.0,0.0,0.0,0.0,0.0,0.0,0.0,0.0,0.0,0.0,0.0,0.0,0.0,0.0,0.0,0.0,0.0,0.0,0.0,0.0,0.0,0.0,0.0,0.0,0.0,0.0,0.0,0.0,0.0,0.0,0.0,0.0,0.0,0.0,0.0,0.0,0.0,0.0,0.0,0.0,0.0,0.0,0.0,0.0,0.0,0.0,0.0,0.0,0.0,0.0,0.0,0.0,0.0,0.0,0.0,0.0,0.0,0.0,0.0,0.0,0.0,0.0,0.0,0.0,0.0,0.0,0.0,0.0,0.0,0.0,0.0,0.0,0.0,0.0,0.0,0.0,0.0,0.0,0.0,0.0,0.0,0.0,0.0,0.0,0.0,0.0,0.0,0.0,0.0,0.0,0.0,0.0,0.0,0.0,0.0,0.0,0.0,0.0,0.0,0.0,0.0,0.0,0.0,0.0,0.0,0.0,0.0,0.0,0.0,0.0,0.0,0.0,0.0,0.0,0.0,0.0,0.0,0.0,0.0,0.0,0.0,0.0,0.0,0.0,0.0,0.0,0.0,0.0,0.0,0.0,0.0,0.0,0.0,0.0,0.0,0.0,0.0,0.0,0.0,0.0,0.0,0.0,0.0,0.0,0.0,0.0,0.0,0.0,0.0,0.0,0.0,0.0,0.0,0.0,0.0,0.0,0.0,0.0,0.0,0.0,0.0,0.0,0.0,0.0,0.0,0.0,0.0,0.0,0.0,0.0,0.0,0.0,0.0,0.0,0.0,0.0,0.0,0.0,0.0,0.0,0.0,0.0,0.0,0.0,0.0,0.0,0.0,0.0,0.0,0.0,0.0,0.0,0.0,0.0,0.0,0.0,0.0,0.0,0.0,0.0,0.0,0.0,0.0,0.0,0.0,0.0,0.0,0.0,0.0,0.0,0.0,0.0,0.0,0.0,0.0,0.0,0.0,0.0,0.0,0.0,0.0,0.0,0.0,0.0,0.0,0.0,0.0,0.0,0.0,0.0,0.0,0.0,0.0,0.0,0.0,0.0,0.0,0.0,0.0,0.0,0.0,0.0,0.0,0.0,0.0,0.0,0.0,0.0,0.0,0.0,0.0,0.0,0.0,0.0,0.0,0.0,0.0,0.0,0.0,0.0,0.0,0.0,0.0,0.0,0.0,0.0,0.0,0.0,0.0,0.0,0.0,0.0,0.0,0.0,0.0,0.0,0.0,0.0,0.0,0.0,0.0,0.0,0.0,0.0,0.0,0.0,0.0,0.0,0.0,0.0,0.0,0.0,0.0,0.0,0.0,0.0,0.0,0.0,0.0,0.0,0.0,0.0,0.0,0.0,0.0,0.0,0.0,0.0,0.0,0.0,0.0,0.0,0.0,0.0,0.0,0.0,0.0,0.0,0.0,0.0,0.0,0.0,0.0,0.0,0.0,0.0,0.0,0.0,0.0,0.0,0.0,0.0,0.0,0.0,0.0,0.0,0.0,0.0,0.0,0.0,0.0,0.0,0.0,0.0,0.0,0.0,0.0,0.0,0.0,0.0,0.0,0.0,0.0,0.0,0.0,0.0,0.0,0.0,0.0,0.0,0.0,0.0,0.0,0.0,0.0,0.0,0.0,0.0,0.0,0.0,0.0,0.0,0.0,0.0,0.0,0.0,0.0,0.0,0.0,0.0,0.0,0.0,0.0,0.0,0.0,0.0,0.0,0.0,0.0,0.0,0.0,0.0,0.0,0.0,0.0,0.0,0.0,0.0,0.0,0.0,0.0,0.0,0.0,0.0,0.0,0.0,0.0,0.0,0.0,0.0,0.0,0.0,0.0,0.0,0.0,0.0,0.0,0.0,0.0,0.0,0.0,0.0,0.0,0.0,0.0,0.0,0.0,0.0,0.0,0.0,0.0,0.0,0.0,0.0,0.0,0.0,0.0,0.0,0.0,0.0,0.0,0.0,0.0,0.0,0.0,0.0,0.0,0.0,0.0,0.0,0.0,0.0,0.0,0.0,0.0,0.0,0.0,0.0,0.0,0.0,0.0,0.0,0.0,0.0,0.0,0.0,0.0,0.0,0.0,0.0,0.0,0.0,0.0,0.0,0.0,0.0,0.0,0.0,0.0,0.0,0.0,0.0,0.0,0.0,0.0,0.0,0.0,0.0,0.0,0.0,0.0,0.0,0.0,0.0,0.0,0.0,0.0,0.0,0.0,0.0,0.0,0.0,0.0,0.0,0.0,0.0,0.0,0.0,0.0,0.0,0.0,0.0,0.0,0.0,0.0,0.0,0.0,0.0,0.0,0.0,0.0,0.0,0.0,0.0,0.0,0.0,0.0,0.0,0.0,0.0,0.0,0.0,0.0,0.0,0.0,0.0,0.0,0.0,0.0,0.0,0.0,0.0,0.0,0.0,0.0,0.0,0.0,0.0,0.0,0.0,0.0,0.0,0.0,0.0,0.0,0.0,0.0,0.0,0.0,0.0,0.0,0.0,0.0,0.0,0.0,0.0,0.0,0.0,0.0,0.0,0.0,0.0,0.0,0.0,0.0,0.0,0.0,0.0,0.0,0.0,0.0,0.0,0.0,0.0,0.0,0.0,0.0,0.0,0.0,0.0,0.0,0.0,0.0,0.0,0.0,0.0,0.0,0.0,0.0,0.0,0.0,0.0,0.0,0.0,0.0,0.0,0.0,0.0,0.0,0.0,0.0,0.0,0.0,0.0,0.0,0.0,0.0,0.0,0.0,0.0,0.0,0.0,0.0,0.0,0.0,0.0,0.0,0.0,0.0,0.0,0.0,0.0,0.0,0.0,0.0,0.0,0.0,0.0,0.0,0.0,0.0,0.0,0.0,0.0,0.0,0.0,0.0,0.0,0.0,0.0,0.0,0.0,0.0,0.0,0.0,0.0,0.0,0.0,0.0,0.0,0.0,0.0,0.0,0.0,0.0,0.0,0.0,0.0,0.0,0.0,0.0,0.0,0.0,0.0,0.0,0.0,0.0,0.0,0.0,0.0,0.0,0.0,0.0,0.0,0.0,0.0,0.0,0.0,0.0,0.0,0.0,0.0,0.0,0.0,0.0,0.0,0.0,0.0,0.0,0.0,0.0,0.0,0.0,0.0,0.0,0.0,0.0,0.0,0.0,0.0,0.0,0.0,0.0,0.0,0.0,0.0,0.0,0.0,0.0,0.0,0.0,0.0,0.0,0.0,0.0,0.0,0.0,0.0,0.0,0.0,0.0,0.0,0.0,0.0,0.0,0.0,0.0,0.0,0.0,0.0,0.0,0.0,0.0,0.0,0.0,0.0,0.0,0.0,0.0,0.0,0.0,0.0,0.0,0.0,0.0,0.0,0.0,0.0,0.0,0.0,0.0,0.0,0.0,0.0,0.0,0.0,0.0,0.0,0.0,0.0,0.0,0.0,0.0,0.0,0.0,0.0,0.0,0.0,0.0,0.0,0.0,0.0,0.0,0.0,0.0,0.0,0.0,0.0,0.0,0.0,0.0,0.0,0.0,0.0,0.0,0.0,0.0,0.0,0.0,0.0,0.0,0.0,0.0,0.0,0.0,0.0,0.0,0.0,0.0,0.0,0.0,0.0,0.0,0.0,0.0,0.0,0.0,0.0,0.0,0.0,0.0,0.0,0.0,0.0,0.0,0.0,0.0,0.0,0.0,0.0,0.0,0.0,0.0,0.0,0.0,0.0,0.0,0.0,0.0,0.0,0.0,0.0,0.0,0.0,0.0,0.0,0.0,0.0,0.0,0.0,0.0,0.0,0.0,0.0,0.0,0.0,0.0,0.0,0.0,0.0,0.0,0.0,0.0,0.0,0.0,0.0,0.0,0.0,0.0,0.0,0.0,0.0,0.0,0.0,0.0,0.0,0.0,0.0,0.0,0.0,0.0,0.0,0.0,0.0,0.0,0.0,0.0,0.0,0.0,0.0,0.0,0.0,0.0,0.0,0.0,0.0,0.0,0.0,0.0,0.0,0.0,0.0,0.0,0.0,0.0,0.0,0.0,0.0,0.0,0.0,0.0,0.0,0.0,0.0,0.0,0.0,0.0,0.0,0.0,0.0,0.0,0.0,0.0,0.0,0.0,0.0,0.0,0.0,0.0,0.0,0.0,0.0,0.0,0.0,0.0,0.0,0.0,0.0,0.0,0.0,0.0,0.0,0.0,0.0,0.0,0.0,0.0,0.0,0.0,0.0,0.0,0.0,0.0,0.0,0.0,0.0,0.0,0.0,0.0,0.0,0.0,0.0,0.0,0.0,0.0,0.0,0.0,0.0,0.0,0.0,0.0,0.0,0.0,0.0,0.0,0.0,0.0,0.0,0.0,0.0,0.0,0.0,0.0,0.0,0.0,0.0,0.0,0.0,0.0,0.0,0.0,0.0,0.0,0.0,0.0,0.0,0.0,0.0,0.0,0.0,0.0,0.0,0.0,0.0,0.0,0.0,0.0,0.0,0.0,0.0,0.0,0.0,0.0,0.0,0.0,0.0,0.0,0.0,0.0,0.0,0.0,0.0,0.0,0.0,0.0,0.0,0.0,0.0,0.0,0.0,0.0,0.0,0.0,0.0,0.0,0.0,0.0,0.0,0.0,0.0,0.0,0.0,0.0,0.0,0.0,0.0,0.0,0.0,0.0,0.0,0.0,0.0,0.0,0.0,0.0,0.0,0.0,0.0,0.0,0.0,0.0,0.0,0.0,0.0,0.0,0.0,0.0,0.0,0.0,0.0,0.0,0.0,0.0,0.0,0.0,0.0,0.0,0.0,0.0,0.0,0.0,0.0,0.0,0.0,0.0,0.0,0.0,0.0,0.0,0.0,0.0,0.0,0.0,0.0,0.0,0.0,0.0,0.0,0.0,0.0,0.0,0.0,0.0,0.0,0.0,0.0,0.0,0.0,0.0,0.0,0.0,0.0,0.0,0.0,0.0,0.0,0.0,0.0,0.0,0.0,0.0,0.0,0.0,0.0,0.0,0.0,0.0,0.0,0.0,0.0,0.0,0.0,0.0,0.0,0.0,0.0,0.0,0.0,0.0,0.0,0.0,0.0,0.0,0.0,0.0,0.0,0.0,0.0,0.0,0.0,0.0,0.0,0.0,0.0,0.0,0.0,0.0,0.0,0.0,0.0,0.0,0.0,0.0,0.0,0.0,0.0,0.0,0.0,0.0,0.0,0.0,0.0,0.0,0.0,0.0,0.0,0.0,0.0,0.0,0.0,0.0,0.0,0.0,0.0,0.0,0.0,0.0,0.0,0.0,0.0,0.0,0.0,0.0,0.0,0.0,0.0,0.0,0.0,0.0,0.0,0.0,0.0,0.0,0.0,0.0,0.0,0.0,0.0,0.0,0.0,0.0,0.0,0.0,0.0,0.0,0.0,0.0,0.0,0.0,0.0,0.0,0.0,0.0,0.0,0.0,0.0,0.0,0.0,0.0,0.0,0.0,0.0,0.0,0.0,0.0,0.0,0.0,0.0,0.0,0.0,0.0,0.0,0.0,0.0,0.0,0.0,0.0,0.0,0.0,0.0,0.0,0.0,0.0,0.0,0.0,0.0,0.0,0.0,0.0,0.0,0.0,0.0,0.0,0.0,0.0,0.0,0.0,0.0,0.0,0.0,0.0,0.0,0.0,0.0,0.0,0.0,0.0,0.0,0.0,0.0,0.0,0.0,0.0,0.0,0.0,0.0,0.0,0.0,0.0,0.0,0.0,0.0,0.0,0.0,0.0,0.0,0.0,0.0,0.0,0.0,0.0,0.0,0.0,0.0,0.0,0.0,0.0,0.0,0.0,0.0,0.0,0.0,0.0,0.0,0.0,0.0,0.0,0.0,0.0,0.0,0.0,0.0,0.0,0.0,0.0,0.0,0.0,0.0,0.0,0.0,0.0,0.0,0.0,0.0,0.0,0.0,0.0,0.0,0.0,0.0,0.0,0.0,0.0,0.0,0.0,0.0,0.0,0.0,0.0,0.0,0.0,0.0,0.0,0.0,0.0,0.0,0.0,0.0,0.0,0.0,0.0,0.0,0.0,0.0,0.0,0.0,0.0,0.0,0.0,0.0,0.0,0.0,0.0,0.0,0.0,0.0,0.0,0.0,0.0,0.0,0.0,0.0,0.0,0.0,0.0,0.0,0.0,0.0,0.0,0.0,0.0,0.0,0.0,0.0,0.0,0.0,0.0,0.0,0.0,0.0,0.0,0.0,0.0,0.0,0.0,0.0,0.0,0.0,0.0,0.0,0.0,0.0,0.0,0.0,0.0,0.0,0.0,0.0,0.0,0.0,0.0,0.0,0.0,0.0,0.0,0.0,0.0,0.0,0.0,0.0,0.0,0.0,0.0,0.0,0.0,0.0,0.0,0.0,0.0,0.0,0.0,0.0,0.0,0.0,0.0,0.0,0.0,0.0,0.0,0.0,0.0,0.0,0.0,0.0,0.0,0.0,0.0,0.0,0.0,0.0,0.0,0.0,0.0,0.0,0.0,0.0,0.0,0.0,0.0,0.0,0.0,0.0,0.0,0.0,0.0,0.0,0.0,0.0,0.0,0.0,0.0,0.0,0.0,0.0,0.0,0.0,0.0,0.0,0.0,0.0,0.0,0.0,0.0,0.0,0.0,0.0,0.0,0.0,0.0,0.0,0.0,0.0,0.0,0.0,0.0,0.0,0.0,0.0,0.0,0.0,0.0,0.0,0.0,0.0,0.0,0.0,0.0,0.0,0.0,0.0,0.0,0.0,0.0,0.0,0.0,0.0,0.0,0.0,0.0,0.0,0.0,0.0,0.0,0.0,0.0,0.0,0.0,0.0,0.0,0.0,0.0,0.0,0.0,0.0,0.0,0.0,0.0,0.0,0.0,0.0,0.0,0.0,0.0,0.0,0.0,0.0,0.0,0.0,0.0,0.0,0.0,0.0,0.0,0.0,0.0,0.0,0.0,0.0,0.0,0.0,0.0,0.0,0.0,0.0,0.0,0.0,0.0,0.0,0.0,0.0,0.0,0.0,0.0,0.0,0.0,0.0,0.0,0.0,0.0,0.0,0.0,0.0,0.0,0.0,0.0,0.0,0.0,0.0,0.0,0.0,0.0,0.0,0.0,0.0,0.0,0.0,0.0,0.0,0.0,0.0,0.0,0.0,0.0,0.0,0.0,0.0,0.0,0.0,0.0,0.0,0.0,0.0,0.0,0.0,0.0,0.0,0.0,0.0,0.0,0.0,0.0,0.0,0.0,0.0,0.0,0.0,0.0,0.0,0.0,0.0,0.0,0.0,0.0,0.0,0.0,0.0,0.0,0.0,0.0,0.0,0.0,0.0,0.0,0.0,0.0,0.0,0.0,0.0,0.0,0.0,0.0,0.0,0.0,0.0,0.0,0.0,0.0,0.0,0.0,0.0,0.0,0.0,0.0,0.0,0.0,0.0,0.0,0.0,0.0,0.0,0.0,0.0,0.0,0.0,0.0,0.0,0.0,0.0,0.0,0.0,0.0,0.0,0.0,0.0,0.0,0.0,0.0,0.0,0.0,0.0,0.0,0.0,0.0,0.0,0.0,0.0,0.0,0.0,0.0,0.0,0.0,0.0,0.0,0.0,0.0,0.0,0.0,0.0,0.0,0.0,0.0,0.0,0.0,0.0,0.0,0.0,0.0,0.0,0.0,0.0,0.0,0.0,0.0,0.0,0.0,0.0,0.0,0.0,0.0,0.0,0.0,0.0,0.0,0.0,0.0,0.0,0.0,0.0,0.0,0.0,0.0,0.0,0.0,0.0,0.0,0.0,0.0,0.0,0.0,0.0,0.0,0.0,0.0,0.0,0.0,0.0,0.0,0.0,0.0,0.0,0.0,0.0,0.0,0.0,0.0,0.0,0.0,0.0,0.0,0.0,0.0,0.0,0.0,0.0,0.0,0.0,0.0,0.0,0.0,0.0,0.0,0.0,0.0,0.0,0.0,0.0,0.0,0.0,0.0,0.0,0.0,0.0,0.0,0.0,0.0,0.0,0.0,0.0,0.0,0.0,0.0,0.0,0.0,0.0,0.0,0.0,0.0,0.0,0.0,0.0,0.0,0.0,0.0,0.0,0.0,0.0,0.0,0.0,0.0,0.0,0.0,0.0,0.0,0.0,0.0,0.0,0.0,0.0,0.0,0.0,0.0,0.0,0.0,0.0,0.0,0.0,0.0,0.0,0.0,0.0,0.0,0.0,0.0,0.0,0.0,0.0,0.0,0.0,0.0,0.0,0.0,0.0,0.0,0.0,0.0,0.0,0.0,0.0,0.0,0.0,0.0,0.0,0.0,0.0,0.0,0.0,0.0,0.0,0.0,0.0,0.0,0.0,0.0,0.0,0.0,0.0,0.0,0.0,0.0,0.0,0.0,0.0,0.0,0.0,0.0,0.0,0.0,0.0,0.0,0.0,0.0,0.0,0.0,0.0,0.0,0.0,0.0,0.0,0.0,0.0,0.0,0.0,0.0,0.0,0.0,0.0,0.0,0.0,0.0,0.0,0.0,0.0,0.0,0.0,0.0,0.0,0.0,0.0,0.0,0.0,0.0,0.0,0.0,0.0,0.0,0.0,0.0,0.0,0.0,0.0,0.0,0.0,0.0,0.0,0.0,0.0,0.0,0.0,0.0,0.0,0.0,0.0,0.0,0.0,0.0,0.0,0.0,0.0,0.0,0.0,0.0,0.0,0.0,0.0,0.0,0.0,0.0,0.0,0.0,0.0,0.0,0.0,0.0,0.0,0.0,0.0,0.0,0.0,0.0,0.0,0.0,0.0,0.0,0.0,0.0,0.0,0.0,0.0,0.0,0.0,0.0,0.0,0.0,0.0,0.0,0.0,0.0,0.0,0.0,0.0,0.0,0.0,0.0,0.0,0.0,0.0,0.0,0.0,0.0,0.0,0.0,0.0,0.0,0.0,0.0,0.0,0.0,0.0,0.0,0.0,0.0,0.0,0.0,0.0,0.0,0.0,0.0,0.0,0.0,0.0,0.0,0.0,0.0,0.0,0.0,0.0,0.0,0.0,0.0,0.0,0.0,0.0,0.0,0.0,0.0,0.0,0.0,0.0,0.0,0.0,0.0,0.0,0.0,0.0,0.0,0.0,0.0,0.0,0.0,0.0,0.0,0.0,0.0,0.0,0.0,0.0,0.0,0.0,0.0,0.0,0.0,0.0,0.0,0.0,0.0,0.0,0.0,0.0,0.0,0.0,0.0,0.0,0.0,0.0,0.0,0.0,0.0,0.0,0.0,0.0,0.0,0.0,0.0,0.0,0.0,0.0,0.0,0.0,0.0,0.0,0.0,0.0,0.0,0.0,0.0,0.0,0.0,0.0,0.0,0.0,0.0,0.0,0.0,0.0,0.0,0.0,0.0,0.0,0.0,0.0,0.0,0.0,0.0,0.0,0.0,0.0,0.0,0.0,0.0,0.0,0.0,0.0,0.0,0.0,0.0,0.0,0.0,0.0,0.0,0.0,0.0,0.0,0.0,0.0,0.0,0.0,0.0,0.0,0.0,0.0,0.0,0.0,0.0,0.0,0.0,0.0,0.0,0.0,0.0,0.0,0.0,0.0,0.0,0.0,0.0,0.0,0.0,0.0,0.0,0.0,0.0,0.0,0.0,0.0,0.0,0.0,0.0,0.0,0.0,0.0,0.0,0.0,0.0,0.0,0.0,0.0,0.0,0.0,0.0,0.0,0.0,0.0,0.0,0.0,0.0,0.0,0.0,0.0,0.0,0.0,0.0,0.0,0.0,0.0,0.0,0.0,0.0,0.0,0.0,0.0,0.0,0.0,0.0,0.0,0.0,0.0,0.0,0.0,0.0,0.0,0.0,0.0,0.0,0.0,0.0,0.0,0.0,0.0,0.0,0.0,0.0,0.0,0.0,0.0,0.0,0.0,0.0,0.0,0.0,0.0,0.0,0.0,0.0,0.0,0.0,0.0,0.0,0.0,0.0,0.0,0.0,0.0,0.0,0.0,0.0,0.0,0.0,0.0,0.0,0.0,0.0,0.0,0.0,0.0,0.0,0.0,0.0,0.0,0.0,0.0,0.0,0.0,0.0,0.0,0.0,0.0,0.0,0.0,0.0,0.0,0.0,0.0,0.0,0.0,0.0,0.0,0.0,0.0,0.0,0.0,0.0,0.0,0.0,0.0,0.0,0.0,0.0,0.0,0.0,0.0,0.0,0.0,0.0,0.0,0.0,0.0,0.0,0.0,0.0,0.0,0.0,0.0,0.0,0.0,0.0,0.0,0.0,0.0,0.0,0.0,0.0,0.0,0.0,0.0,0.0,0.0,0.0,0.0,0.0,0.0,0.0,0.0,0.0,0.0,0.0,0.0,0.0,0.0,0.0,0.0,0.0,0.0,0.0,0.0,0.0,0.0,0.0,0.0,0.0,0.0,0.0,0.0,0.0,0.0,0.0,0.0,0.0,0.0,0.0,0.0,0.0,0.0,0.0,0.0,0.0,0.0,0.0,0.0,0.0,0.0,0.0,0.0,0.0,0.0,0.0,0.0,0.0102,0.0,0.0,0.0,0.0,0.0,0.0,0.0,0.0,0.0,0.0,0.0,0.0,0.0,0.0,0.0,0.0,0.0,0.0,0.0,0.0,0.0,0.0,0.0,0.0,0.0,0.0,0.0,0.0,0.0,0.0,0.0,0.0,0.0,0.0,0.0,0.0,0.0,0.0,0.0,0.0,0.0,0.0,0.0,0.0,0.0,0.0,0.0,0.0,0.0,0.0,0.0,0.0,0.0,0.0,0.0,0.0,0.0,0.0,0.0,0.0,0.0,0.0,0.0,0.0,0.0,0.0,0.0,0.0,0.0,0.0,0.0,0.0,0.0,0.0,0.0,0.0,0.0,0.0,0.0,0.0,0.0,0.0,0.0,0.0,0.0,0.0,0.0,0.0,0.0,0.0,0.0,0.0,0.0,0.0,0.0,0.0,0.0,0.0,0.0,0.0,0.0,0.0,0.0,0.0,0.0,0.0,0.0,0.0,0.0,0.0,0.0,0.0,0.0,0.0,0.0,0.0303,0.0,0.0,0.0,0.0,0.0,0.0,0.0,0.0,0.0,0.0,0.0,0.0,0.0,0.0,0.0,0.0,0.0,0.0,0.0,0.0,0.0,0.0,0.0,0.0,0.0,0.0,0.0,0.0,0.0,0.0,0.0,0.0,0.0,0.0,0.0,0.0,0.0,0.0,0.0,0.0,0.0,0.0,0.0,0.0,0.0,0.0,0.0,0.0,0.0,0.0,0.0,0.0,0.0,0.0,0.0,0.0,0.0,0.0,0.0,0.0,0.0,0.0,0.0,0.0,0.0,0.0,0.0,0.0,0.0,0.0,0.0,0.0,0.0,0.0,0.0,0.0,0.0,0.0,0.0,0.0,0.0,0.0,0.0,0.0,0.0,0.0,0.0,0.0,0.0,0.0,0.0,0.0,0.0,0.0,0.0,0.0,0.0,0.0,0.0,0.0,0.0,0.0,0.0,0.0,0.0,0.0,0.0,0.0,0.0,0.0,0.0,0.0,0.0203,0.1717,0.2218,0.262]}]]